<?xml version="1.0" encoding="UTF-8"?>
<gpx  version="1.1"  creator="Verlag Esterbauer" xmlns:xsi="http://www.w3.org/2001/XMLSchema-instance" xmlns="http://www.topografix.com/GPX/1/1"  xsi:schemaLocation="http://www.topografix.com/GPX/1/1 http://www.topografix.com/GPX/1/1/gpx.xsd">
  <trk>
    <name>rom_1</name>
    <cmt>by Verlag Esterbauer</cmt>
    <trkseg>
      <trkpt lat="49.80135862" lon="9.93535473">
        <ele>186</ele>
        <time>2022-06-01T04:00:00Z</time>
      </trkpt>
      <trkpt lat="49.80113806" lon="9.93515195">
        <ele>183.3333</ele>
        <time>2022-06-01T04:00:06.043Z</time>
      </trkpt>
      <trkpt lat="49.80095945" lon="9.93507334">
        <ele>182</ele>
        <time>2022-06-01T04:00:10.417Z</time>
      </trkpt>
      <trkpt lat="49.80037389" lon="9.93495195">
        <ele>182.7143</ele>
        <time>2022-06-01T04:00:24.332Z</time>
      </trkpt>
      <trkpt lat="49.80038556" lon="9.93489945">
        <ele>182.7005</ele>
        <time>2022-06-01T04:00:25.177Z</time>
      </trkpt>
      <trkpt lat="49.80049639" lon="9.93318528">
        <ele>182.2727</ele>
        <time>2022-06-01T04:00:51.44Z</time>
      </trkpt>
      <trkpt lat="49.80047806" lon="9.93244862">
        <ele>181.3077</ele>
        <time>2022-06-01T04:01:02.679Z</time>
      </trkpt>
      <trkpt lat="49.800295" lon="9.9310025">
        <ele>180.4615</ele>
        <time>2022-06-01T04:01:25.143Z</time>
      </trkpt>
      <trkpt lat="49.79982584" lon="9.92803028">
        <ele>179.6923</ele>
        <time>2022-06-01T04:02:11.784Z</time>
      </trkpt>
      <trkpt lat="49.79919862" lon="9.92415862">
        <ele>179.0769</ele>
        <time>2022-06-01T04:03:12.631Z</time>
      </trkpt>
      <trkpt lat="49.79822445" lon="9.92127639">
        <ele>178.6154</ele>
        <time>2022-06-01T04:04:02.203Z</time>
      </trkpt>
      <trkpt lat="49.79840223" lon="9.92113223">
        <ele>178.2308</ele>
        <time>2022-06-01T04:04:06.931Z</time>
      </trkpt>
      <trkpt lat="49.79847112" lon="9.92107695">
        <ele>177.3846</ele>
        <time>2022-06-01T04:04:08.759Z</time>
      </trkpt>
      <trkpt lat="49.79856278" lon="9.92108889">
        <ele>176.4615</ele>
        <time>2022-06-01T04:04:10.926Z</time>
      </trkpt>
      <trkpt lat="49.7986575" lon="9.92124473">
        <ele>175.3077</ele>
        <time>2022-06-01T04:04:14.183Z</time>
      </trkpt>
      <trkpt lat="49.79863334" lon="9.92132917">
        <ele>174.5385</ele>
        <time>2022-06-01T04:04:15.589Z</time>
      </trkpt>
      <trkpt lat="49.79852834" lon="9.92141362">
        <ele>174.3846</ele>
        <time>2022-06-01T04:04:18.376Z</time>
      </trkpt>
      <trkpt lat="49.79816389" lon="9.92183084">
        <ele>174</ele>
        <time>2022-06-01T04:04:29.06Z</time>
      </trkpt>
      <trkpt lat="49.79783306" lon="9.92228223">
        <ele>173.6923</ele>
        <time>2022-06-01T04:04:39.456Z</time>
      </trkpt>
      <trkpt lat="49.79776584" lon="9.92261889">
        <ele>173.3846</ele>
        <time>2022-06-01T04:04:44.821Z</time>
      </trkpt>
      <trkpt lat="49.79750167" lon="9.92281945">
        <ele>172.9231</ele>
        <time>2022-06-01T04:04:51.752Z</time>
      </trkpt>
      <trkpt lat="49.79726639" lon="9.92304501">
        <ele>172.3846</ele>
        <time>2022-06-01T04:04:58.271Z</time>
      </trkpt>
      <trkpt lat="49.79714139" lon="9.92310334">
        <ele>172</ele>
        <time>2022-06-01T04:05:01.346Z</time>
      </trkpt>
      <trkpt lat="49.79737751" lon="9.92366528">
        <ele>171.5385</ele>
        <time>2022-06-01T04:05:11.56Z</time>
      </trkpt>
      <trkpt lat="49.79734945" lon="9.92361445">
        <ele>171</ele>
        <time>2022-06-01T04:05:12.578Z</time>
      </trkpt>
      <trkpt lat="49.79729639" lon="9.92365445">
        <ele>170.6923</ele>
        <time>2022-06-01T04:05:13.968Z</time>
      </trkpt>
      <trkpt lat="49.79622528" lon="9.92417667">
        <ele>170.7692</ele>
        <time>2022-06-01T04:05:40.423Z</time>
      </trkpt>
      <trkpt lat="49.79537889" lon="9.92446">
        <ele>170.7692</ele>
        <time>2022-06-01T04:06:00.82Z</time>
      </trkpt>
      <trkpt lat="49.79467584" lon="9.92459695">
        <ele>170.7692</ele>
        <time>2022-06-01T04:06:17.51Z</time>
      </trkpt>
      <trkpt lat="49.79443417" lon="9.92462778">
        <ele>170.6154</ele>
        <time>2022-06-01T04:06:23.222Z</time>
      </trkpt>
      <trkpt lat="49.79415501" lon="9.92452778">
        <ele>170.6923</ele>
        <time>2022-06-01T04:06:29.971Z</time>
      </trkpt>
      <trkpt lat="49.79353223" lon="9.92468778">
        <ele>170.8462</ele>
        <time>2022-06-01T04:06:44.841Z</time>
      </trkpt>
      <trkpt lat="49.79297723" lon="9.92478028">
        <ele>171.1538</ele>
        <time>2022-06-01T04:06:57.989Z</time>
      </trkpt>
      <trkpt lat="49.79269751" lon="9.92490084">
        <ele>171.4615</ele>
        <time>2022-06-01T04:07:04.828Z</time>
      </trkpt>
      <trkpt lat="49.79191001" lon="9.92493195">
        <ele>172.3846</ele>
        <time>2022-06-01T04:07:23.382Z</time>
      </trkpt>
      <trkpt lat="49.79182306" lon="9.92480639">
        <ele>173.7692</ele>
        <time>2022-06-01T04:07:26.184Z</time>
      </trkpt>
      <trkpt lat="49.79176778" lon="9.92457028">
        <ele>175.1538</ele>
        <time>2022-06-01T04:07:30.008Z</time>
      </trkpt>
      <trkpt lat="49.790495" lon="9.92485362">
        <ele>176.3077</ele>
        <time>2022-06-01T04:08:00.295Z</time>
      </trkpt>
      <trkpt lat="49.79022056" lon="9.92494362">
        <ele>176.9231</ele>
        <time>2022-06-01T04:08:06.903Z</time>
      </trkpt>
      <trkpt lat="49.79017945" lon="9.92511223">
        <ele>177.0769</ele>
        <time>2022-06-01T04:08:09.647Z</time>
      </trkpt>
      <trkpt lat="49.78983084" lon="9.92504139">
        <ele>177.3077</ele>
        <time>2022-06-01T04:08:17.929Z</time>
      </trkpt>
      <trkpt lat="49.78980501" lon="9.92485195">
        <ele>177.6154</ele>
        <time>2022-06-01T04:08:20.877Z</time>
      </trkpt>
      <trkpt lat="49.78963473" lon="9.92478001">
        <ele>178.4615</ele>
        <time>2022-06-01T04:08:25.035Z</time>
      </trkpt>
      <trkpt lat="49.78948862" lon="9.92476417">
        <ele>179.2308</ele>
        <time>2022-06-01T04:08:28.485Z</time>
      </trkpt>
      <trkpt lat="49.78864278" lon="9.92460417">
        <ele>180.4615</ele>
        <time>2022-06-01T04:08:48.556Z</time>
      </trkpt>
      <trkpt lat="49.78813028" lon="9.92448473">
        <ele>181.7692</ele>
        <time>2022-06-01T04:09:00.763Z</time>
      </trkpt>
      <trkpt lat="49.78792945" lon="9.92451751">
        <ele>183.7692</ele>
        <time>2022-06-01T04:09:05.52Z</time>
      </trkpt>
      <trkpt lat="49.78773445" lon="9.924415">
        <ele>185.8462</ele>
        <time>2022-06-01T04:09:10.371Z</time>
      </trkpt>
      <trkpt lat="49.78776667" lon="9.9222825">
        <ele>187.1538</ele>
        <time>2022-06-01T04:09:42.899Z</time>
      </trkpt>
      <trkpt lat="49.78771278" lon="9.92042417">
        <ele>188.6923</ele>
        <time>2022-06-01T04:10:11.266Z</time>
      </trkpt>
      <trkpt lat="49.78764028" lon="9.91757278">
        <ele>190.6923</ele>
        <time>2022-06-01T04:10:54.781Z</time>
      </trkpt>
      <trkpt lat="49.78770973" lon="9.91665306">
        <ele>193.3846</ele>
        <time>2022-06-01T04:11:08.901Z</time>
      </trkpt>
      <trkpt lat="49.7878875" lon="9.91406362">
        <ele>196.4615</ele>
        <time>2022-06-01T04:11:48.61Z</time>
      </trkpt>
      <trkpt lat="49.78796945" lon="9.91218362">
        <ele>199.6923</ele>
        <time>2022-06-01T04:12:17.344Z</time>
      </trkpt>
      <trkpt lat="49.78813334" lon="9.91146917">
        <ele>202.9231</ele>
        <time>2022-06-01T04:12:28.902Z</time>
      </trkpt>
      <trkpt lat="49.78810251" lon="9.90976889">
        <ele>205.7692</ele>
        <time>2022-06-01T04:12:54.84Z</time>
      </trkpt>
      <trkpt lat="49.78815251" lon="9.90837139">
        <ele>208.5385</ele>
        <time>2022-06-01T04:13:16.183Z</time>
      </trkpt>
      <trkpt lat="49.78836889" lon="9.90584084">
        <ele>211.1538</ele>
        <time>2022-06-01T04:13:55.107Z</time>
      </trkpt>
      <trkpt lat="49.78834306" lon="9.9050725">
        <ele>213.6923</ele>
        <time>2022-06-01T04:14:06.839Z</time>
      </trkpt>
      <trkpt lat="49.7881125" lon="9.90377306">
        <ele>215.9231</ele>
        <time>2022-06-01T04:14:27.385Z</time>
      </trkpt>
      <trkpt lat="49.78810667" lon="9.90313889">
        <ele>217.9231</ele>
        <time>2022-06-01T04:14:37.057Z</time>
      </trkpt>
      <trkpt lat="49.78822973" lon="9.90244112">
        <ele>220.2308</ele>
        <time>2022-06-01T04:14:48.085Z</time>
      </trkpt>
      <trkpt lat="49.78836417" lon="9.90132112">
        <ele>222.3077</ele>
        <time>2022-06-01T04:15:05.455Z</time>
      </trkpt>
      <trkpt lat="49.78838806" lon="9.90076362">
        <ele>224.3077</ele>
        <time>2022-06-01T04:15:13.975Z</time>
      </trkpt>
      <trkpt lat="49.78832084" lon="9.90036528">
        <ele>226.0769</ele>
        <time>2022-06-01T04:15:20.244Z</time>
      </trkpt>
      <trkpt lat="49.78817501" lon="9.89998889">
        <ele>227.6923</ele>
        <time>2022-06-01T04:15:26.926Z</time>
      </trkpt>
      <trkpt lat="49.78742417" lon="9.89849001">
        <ele>229.4615</ele>
        <time>2022-06-01T04:15:55.826Z</time>
      </trkpt>
      <trkpt lat="49.78720639" lon="9.89732028">
        <ele>231.3077</ele>
        <time>2022-06-01T04:16:14.387Z</time>
      </trkpt>
      <trkpt lat="49.78698945" lon="9.89708639">
        <ele>233.0769</ele>
        <time>2022-06-01T04:16:20.616Z</time>
      </trkpt>
      <trkpt lat="49.78666056" lon="9.89658001">
        <ele>235</ele>
        <time>2022-06-01T04:16:31.554Z</time>
      </trkpt>
      <trkpt lat="49.78617778" lon="9.89561084">
        <ele>236.7692</ele>
        <time>2022-06-01T04:16:50.202Z</time>
      </trkpt>
      <trkpt lat="49.78576556" lon="9.89454834">
        <ele>238.5385</ele>
        <time>2022-06-01T04:17:09.091Z</time>
      </trkpt>
      <trkpt lat="49.78558695" lon="9.89386889">
        <ele>240.0769</ele>
        <time>2022-06-01T04:17:20.274Z</time>
      </trkpt>
      <trkpt lat="49.78543806" lon="9.89274362">
        <ele>241.6154</ele>
        <time>2022-06-01T04:17:37.789Z</time>
      </trkpt>
      <trkpt lat="49.78531612" lon="9.89151084">
        <ele>243.3077</ele>
        <time>2022-06-01T04:17:56.807Z</time>
      </trkpt>
      <trkpt lat="49.78530528" lon="9.89063167">
        <ele>245.0769</ele>
        <time>2022-06-01T04:18:10.217Z</time>
      </trkpt>
      <trkpt lat="49.78525167" lon="9.88965695">
        <ele>246.6923</ele>
        <time>2022-06-01T04:18:25.135Z</time>
      </trkpt>
      <trkpt lat="49.78519917" lon="9.88852">
        <ele>248.3077</ele>
        <time>2022-06-01T04:18:42.518Z</time>
      </trkpt>
      <trkpt lat="49.78513195" lon="9.88812667">
        <ele>251.0769</ele>
        <time>2022-06-01T04:18:48.714Z</time>
      </trkpt>
      <trkpt lat="49.78511834" lon="9.88762584">
        <ele>253.6154</ele>
        <time>2022-06-01T04:18:56.358Z</time>
      </trkpt>
      <trkpt lat="49.78511223" lon="9.88727417">
        <ele>256.4615</ele>
        <time>2022-06-01T04:19:01.715Z</time>
      </trkpt>
      <trkpt lat="49.78510473" lon="9.88709834">
        <ele>259.3176</ele>
        <time>2022-06-01T04:19:04.399Z</time>
      </trkpt>
      <trkpt lat="49.78520195" lon="9.88699195">
        <ele>261.2467</ele>
        <time>2022-06-01T04:19:07.204Z</time>
      </trkpt>
      <trkpt lat="49.785145" lon="9.88667639">
        <ele>266.2308</ele>
        <time>2022-06-01T04:19:12.193Z</time>
      </trkpt>
      <trkpt lat="49.78558278" lon="9.88537473">
        <ele>269.2308</ele>
        <time>2022-06-01T04:19:34.562Z</time>
      </trkpt>
      <trkpt lat="49.78613862" lon="9.88466056">
        <ele>272.5385</ele>
        <time>2022-06-01T04:19:51.592Z</time>
      </trkpt>
      <trkpt lat="49.78642584" lon="9.88431862">
        <ele>275.7692</ele>
        <time>2022-06-01T04:20:00.129Z</time>
      </trkpt>
      <trkpt lat="49.78678417" lon="9.88399973">
        <ele>278.9231</ele>
        <time>2022-06-01T04:20:09.866Z</time>
      </trkpt>
      <trkpt lat="49.78706834" lon="9.88393028">
        <ele>282.5385</ele>
        <time>2022-06-01T04:20:16.642Z</time>
      </trkpt>
      <trkpt lat="49.78723223" lon="9.88397389">
        <ele>284.3631</ele>
        <time>2022-06-01T04:20:20.559Z</time>
      </trkpt>
      <trkpt lat="49.78742223" lon="9.88325806">
        <ele>289.8462</ele>
        <time>2022-06-01T04:20:32.357Z</time>
      </trkpt>
      <trkpt lat="49.78757223" lon="9.88260945">
        <ele>292.1538</ele>
        <time>2022-06-01T04:20:42.86Z</time>
      </trkpt>
      <trkpt lat="49.78771973" lon="9.88226639">
        <ele>295.6154</ele>
        <time>2022-06-01T04:20:49.134Z</time>
      </trkpt>
      <trkpt lat="49.78799973" lon="9.88182362">
        <ele>300</ele>
        <time>2022-06-01T04:20:58.572Z</time>
      </trkpt>
      <trkpt lat="49.78816112" lon="9.88159251">
        <ele>303.0799</ele>
        <time>2022-06-01T04:21:03.752Z</time>
      </trkpt>
      <trkpt lat="49.78796528" lon="9.88115139">
        <ele>307.9231</ele>
        <time>2022-06-01T04:21:11.908Z</time>
      </trkpt>
      <trkpt lat="49.78778306" lon="9.88074334">
        <ele>311.3846</ele>
        <time>2022-06-01T04:21:19.46Z</time>
      </trkpt>
      <trkpt lat="49.78765445" lon="9.88044667">
        <ele>311.9641</ele>
        <time>2022-06-01T04:21:24.899Z</time>
      </trkpt>
      <trkpt lat="49.78954112" lon="9.87668167">
        <ele>319.6923</ele>
        <time>2022-06-01T04:22:37.5Z</time>
      </trkpt>
      <trkpt lat="49.79149306" lon="9.87297167">
        <ele>323.8462</ele>
        <time>2022-06-01T04:23:50.398Z</time>
      </trkpt>
      <trkpt lat="49.79175251" lon="9.87255223">
        <ele>326.5385</ele>
        <time>2022-06-01T04:23:59.244Z</time>
      </trkpt>
      <trkpt lat="49.79194639" lon="9.87226945">
        <ele>328.6154</ele>
        <time>2022-06-01T04:24:05.52Z</time>
      </trkpt>
      <trkpt lat="49.79211945" lon="9.87210251">
        <ele>331.1538</ele>
        <time>2022-06-01T04:24:10.324Z</time>
      </trkpt>
      <trkpt lat="49.7923525" lon="9.87201667">
        <ele>333.3846</ele>
        <time>2022-06-01T04:24:15.967Z</time>
      </trkpt>
      <trkpt lat="49.79235139" lon="9.87137862">
        <ele>335.7692</ele>
        <time>2022-06-01T04:24:25.696Z</time>
      </trkpt>
      <trkpt lat="49.79234889" lon="9.86954695">
        <ele>336.6923</ele>
        <time>2022-06-01T04:24:53.625Z</time>
      </trkpt>
      <trkpt lat="49.792195" lon="9.86722362">
        <ele>336.1538</ele>
        <time>2022-06-01T04:25:29.236Z</time>
      </trkpt>
      <trkpt lat="49.79221862" lon="9.86584001">
        <ele>335.3846</ele>
        <time>2022-06-01T04:25:50.341Z</time>
      </trkpt>
      <trkpt lat="49.79222556" lon="9.86488334">
        <ele>334.7692</ele>
        <time>2022-06-01T04:26:04.929Z</time>
      </trkpt>
      <trkpt lat="49.79199834" lon="9.86355639">
        <ele>334.7692</ele>
        <time>2022-06-01T04:26:25.858Z</time>
      </trkpt>
      <trkpt lat="49.79179528" lon="9.86251473">
        <ele>334.6154</ele>
        <time>2022-06-01T04:26:42.446Z</time>
      </trkpt>
      <trkpt lat="49.79177389" lon="9.8618425">
        <ele>333.5385</ele>
        <time>2022-06-01T04:26:52.709Z</time>
      </trkpt>
      <trkpt lat="49.79181473" lon="9.86166001">
        <ele>331.9231</ele>
        <time>2022-06-01T04:26:55.65Z</time>
      </trkpt>
      <trkpt lat="49.7916725" lon="9.86129112">
        <ele>331.5385</ele>
        <time>2022-06-01T04:27:02.19Z</time>
      </trkpt>
      <trkpt lat="49.79118723" lon="9.85920639">
        <ele>331.6154</ele>
        <time>2022-06-01T04:27:35.971Z</time>
      </trkpt>
      <trkpt lat="49.79075473" lon="9.85710223">
        <ele>331.9231</ele>
        <time>2022-06-01T04:28:09.634Z</time>
      </trkpt>
      <trkpt lat="49.79043445" lon="9.85587528">
        <ele>331.6154</ele>
        <time>2022-06-01T04:28:29.807Z</time>
      </trkpt>
      <trkpt lat="49.79031667" lon="9.85494501">
        <ele>331.3077</ele>
        <time>2022-06-01T04:28:44.261Z</time>
      </trkpt>
      <trkpt lat="49.79023556" lon="9.85426389">
        <ele>331.0769</ele>
        <time>2022-06-01T04:28:54.821Z</time>
      </trkpt>
      <trkpt lat="49.78994639" lon="9.85371473">
        <ele>330.8462</ele>
        <time>2022-06-01T04:29:05.615Z</time>
      </trkpt>
      <trkpt lat="49.7897725" lon="9.85284889">
        <ele>330.6923</ele>
        <time>2022-06-01T04:29:19.439Z</time>
      </trkpt>
      <trkpt lat="49.78966639" lon="9.85192889">
        <ele>330.2308</ele>
        <time>2022-06-01T04:29:33.689Z</time>
      </trkpt>
      <trkpt lat="49.78966334" lon="9.85142445">
        <ele>329.2308</ele>
        <time>2022-06-01T04:29:41.381Z</time>
      </trkpt>
      <trkpt lat="49.78970834" lon="9.85067223">
        <ele>328.0769</ele>
        <time>2022-06-01T04:29:52.9Z</time>
      </trkpt>
      <trkpt lat="49.78979417" lon="9.84977806">
        <ele>327.3846</ele>
        <time>2022-06-01T04:30:06.684Z</time>
      </trkpt>
      <trkpt lat="49.78997473" lon="9.84851945">
        <ele>327.1538</ele>
        <time>2022-06-01T04:30:26.342Z</time>
      </trkpt>
      <trkpt lat="49.79006" lon="9.84766584">
        <ele>326.3846</ele>
        <time>2022-06-01T04:30:39.512Z</time>
      </trkpt>
      <trkpt lat="49.79007417" lon="9.84737917">
        <ele>325.1538</ele>
        <time>2022-06-01T04:30:43.89Z</time>
      </trkpt>
      <trkpt lat="49.79005834" lon="9.84710112">
        <ele>323.3077</ele>
        <time>2022-06-01T04:30:48.14Z</time>
      </trkpt>
      <trkpt lat="49.79003001" lon="9.84690417">
        <ele>321.9231</ele>
        <time>2022-06-01T04:30:51.212Z</time>
      </trkpt>
      <trkpt lat="49.78990917" lon="9.84660167">
        <ele>320.5385</ele>
        <time>2022-06-01T04:30:56.627Z</time>
      </trkpt>
      <trkpt lat="49.78966612" lon="9.84614473">
        <ele>319</ele>
        <time>2022-06-01T04:31:05.645Z</time>
      </trkpt>
      <trkpt lat="49.78867084" lon="9.84443612">
        <ele>317.2308</ele>
        <time>2022-06-01T04:31:40.693Z</time>
      </trkpt>
      <trkpt lat="49.78791167" lon="9.84299556">
        <ele>315.3077</ele>
        <time>2022-06-01T04:32:09.018Z</time>
      </trkpt>
      <trkpt lat="49.78769584" lon="9.84219945">
        <ele>312.9231</ele>
        <time>2022-06-01T04:32:22.18Z</time>
      </trkpt>
      <trkpt lat="49.78754862" lon="9.84155723">
        <ele>310.6154</ele>
        <time>2022-06-01T04:32:32.569Z</time>
      </trkpt>
      <trkpt lat="49.78718334" lon="9.84050167">
        <ele>308.1538</ele>
        <time>2022-06-01T04:32:50.821Z</time>
      </trkpt>
      <trkpt lat="49.78712806" lon="9.83951417">
        <ele>304.9231</ele>
        <time>2022-06-01T04:33:05.936Z</time>
      </trkpt>
      <trkpt lat="49.78708223" lon="9.83855695">
        <ele>301.5385</ele>
        <time>2022-06-01T04:33:20.573Z</time>
      </trkpt>
      <trkpt lat="49.78653806" lon="9.83543362">
        <ele>298.3846</ele>
        <time>2022-06-01T04:34:09.897Z</time>
      </trkpt>
      <trkpt lat="49.78642973" lon="9.83400695">
        <ele>295.1538</ele>
        <time>2022-06-01T04:34:31.802Z</time>
      </trkpt>
      <trkpt lat="49.78635778" lon="9.83302889">
        <ele>291.9231</ele>
        <time>2022-06-01T04:34:46.813Z</time>
      </trkpt>
      <trkpt lat="49.786375" lon="9.83247973">
        <ele>288.8462</ele>
        <time>2022-06-01T04:34:55.197Z</time>
      </trkpt>
      <trkpt lat="49.78677306" lon="9.83024778">
        <ele>285.6923</ele>
        <time>2022-06-01T04:35:30.501Z</time>
      </trkpt>
      <trkpt lat="49.78674028" lon="9.82931084">
        <ele>282.7692</ele>
        <time>2022-06-01T04:35:44.81Z</time>
      </trkpt>
      <trkpt lat="49.78656278" lon="9.82835112">
        <ele>280</ele>
        <time>2022-06-01T04:36:00.031Z</time>
      </trkpt>
      <trkpt lat="49.78642501" lon="9.82731084">
        <ele>277.3077</ele>
        <time>2022-06-01T04:36:16.223Z</time>
      </trkpt>
      <trkpt lat="49.78651778" lon="9.82725139">
        <ele>276.1335</ele>
        <time>2022-06-01T04:36:18.588Z</time>
      </trkpt>
      <trkpt lat="49.78646806" lon="9.82684362">
        <ele>273</ele>
        <time>2022-06-01T04:36:24.907Z</time>
      </trkpt>
      <trkpt lat="49.7860775" lon="9.82433362">
        <ele>270.9231</ele>
        <time>2022-06-01T04:37:04.274Z</time>
      </trkpt>
      <trkpt lat="49.78573084" lon="9.82304556">
        <ele>269.1538</ele>
        <time>2022-06-01T04:37:25.546Z</time>
      </trkpt>
      <trkpt lat="49.78510889" lon="9.82154917">
        <ele>267.5385</ele>
        <time>2022-06-01T04:37:52.663Z</time>
      </trkpt>
      <trkpt lat="49.78360889" lon="9.81749417">
        <ele>266.2308</ele>
        <time>2022-06-01T04:39:03.884Z</time>
      </trkpt>
      <trkpt lat="49.78347528" lon="9.81775639">
        <ele>265</ele>
        <time>2022-06-01T04:39:08.968Z</time>
      </trkpt>
      <trkpt lat="49.78296473" lon="9.81654223">
        <ele>263.8462</ele>
        <time>2022-06-01T04:39:31.047Z</time>
      </trkpt>
      <trkpt lat="49.78256028" lon="9.815835">
        <ele>262.6154</ele>
        <time>2022-06-01T04:39:45.437Z</time>
      </trkpt>
      <trkpt lat="49.78161195" lon="9.81479473">
        <ele>261.4615</ele>
        <time>2022-06-01T04:40:12.835Z</time>
      </trkpt>
      <trkpt lat="49.78126084" lon="9.8141375">
        <ele>260.3846</ele>
        <time>2022-06-01T04:40:25.83Z</time>
      </trkpt>
      <trkpt lat="49.7809775" lon="9.81317639">
        <ele>259.4615</ele>
        <time>2022-06-01T04:40:41.936Z</time>
      </trkpt>
      <trkpt lat="49.78042473" lon="9.81121362">
        <ele>258.7692</ele>
        <time>2022-06-01T04:41:14.58Z</time>
      </trkpt>
      <trkpt lat="49.77990667" lon="9.8099025">
        <ele>258.1538</ele>
        <time>2022-06-01T04:41:38.006Z</time>
      </trkpt>
      <trkpt lat="49.77920667" lon="9.80826278">
        <ele>257.5385</ele>
        <time>2022-06-01T04:42:07.961Z</time>
      </trkpt>
      <trkpt lat="49.77850528" lon="9.80680639">
        <ele>256.9231</ele>
        <time>2022-06-01T04:42:35.644Z</time>
      </trkpt>
      <trkpt lat="49.77829862" lon="9.8061925">
        <ele>257</ele>
        <time>2022-06-01T04:42:46.197Z</time>
      </trkpt>
      <trkpt lat="49.77818195" lon="9.80590556">
        <ele>256.8462</ele>
        <time>2022-06-01T04:42:51.36Z</time>
      </trkpt>
      <trkpt lat="49.77802445" lon="9.80582167">
        <ele>256.8462</ele>
        <time>2022-06-01T04:42:55.284Z</time>
      </trkpt>
      <trkpt lat="49.77787528" lon="9.80561945">
        <ele>257.3077</ele>
        <time>2022-06-01T04:42:59.956Z</time>
      </trkpt>
      <trkpt lat="49.77790139" lon="9.80567195">
        <ele>257.5385</ele>
        <time>2022-06-01T04:43:00.965Z</time>
      </trkpt>
      <trkpt lat="49.77779139" lon="9.80515612">
        <ele>257.8462</ele>
        <time>2022-06-01T04:43:09.248Z</time>
      </trkpt>
      <trkpt lat="49.77770723" lon="9.80406639">
        <ele>257.9231</ele>
        <time>2022-06-01T04:43:25.987Z</time>
      </trkpt>
      <trkpt lat="49.7775975" lon="9.80280278">
        <ele>258.3077</ele>
        <time>2022-06-01T04:43:45.433Z</time>
      </trkpt>
      <trkpt lat="49.77745723" lon="9.80158445">
        <ele>258.3077</ele>
        <time>2022-06-01T04:44:04.307Z</time>
      </trkpt>
      <trkpt lat="49.77716473" lon="9.80059806">
        <ele>258.3077</ele>
        <time>2022-06-01T04:44:20.854Z</time>
      </trkpt>
      <trkpt lat="49.77673556" lon="9.79975667">
        <ele>257.9231</ele>
        <time>2022-06-01T04:44:37.19Z</time>
      </trkpt>
      <trkpt lat="49.77635917" lon="9.79891612">
        <ele>257.6154</ele>
        <time>2022-06-01T04:44:52.777Z</time>
      </trkpt>
      <trkpt lat="49.77596806" lon="9.79831973">
        <ele>257.3077</ele>
        <time>2022-06-01T04:45:05.723Z</time>
      </trkpt>
      <trkpt lat="49.77547195" lon="9.79766028">
        <ele>256.6923</ele>
        <time>2022-06-01T04:45:21.141Z</time>
      </trkpt>
      <trkpt lat="49.77506639" lon="9.79720612">
        <ele>256.3077</ele>
        <time>2022-06-01T04:45:32.941Z</time>
      </trkpt>
      <trkpt lat="49.77492306" lon="9.79698">
        <ele>255.8462</ele>
        <time>2022-06-01T04:45:37.764Z</time>
      </trkpt>
      <trkpt lat="49.7748225" lon="9.79626612">
        <ele>255</ele>
        <time>2022-06-01T04:45:48.908Z</time>
      </trkpt>
      <trkpt lat="49.77466112" lon="9.79481889">
        <ele>254.4615</ele>
        <time>2022-06-01T04:46:11.308Z</time>
      </trkpt>
      <trkpt lat="49.77458751" lon="9.79402389">
        <ele>253.8462</ele>
        <time>2022-06-01T04:46:23.558Z</time>
      </trkpt>
      <trkpt lat="49.77424112" lon="9.79267528">
        <ele>253.4615</ele>
        <time>2022-06-01T04:46:45.688Z</time>
      </trkpt>
      <trkpt lat="49.77386806" lon="9.79132639">
        <ele>252.7692</ele>
        <time>2022-06-01T04:47:08.061Z</time>
      </trkpt>
      <trkpt lat="49.77331195" lon="9.78979139">
        <ele>252.4615</ele>
        <time>2022-06-01T04:47:34.89Z</time>
      </trkpt>
      <trkpt lat="49.77277889" lon="9.78874501">
        <ele>252.1538</ele>
        <time>2022-06-01T04:47:55.198Z</time>
      </trkpt>
      <trkpt lat="49.77162139" lon="9.78654001">
        <ele>252.1538</ele>
        <time>2022-06-01T04:48:38.495Z</time>
      </trkpt>
      <trkpt lat="49.77166278" lon="9.78657278">
        <ele>252</ele>
        <time>2022-06-01T04:48:39.59Z</time>
      </trkpt>
      <trkpt lat="49.77158612" lon="9.78641195">
        <ele>251.8462</ele>
        <time>2022-06-01T04:48:42.633Z</time>
      </trkpt>
      <trkpt lat="49.77136973" lon="9.78637056">
        <ele>251.5385</ele>
        <time>2022-06-01T04:48:47.769Z</time>
      </trkpt>
      <trkpt lat="49.77161139" lon="9.78600973">
        <ele>251.3846</ele>
        <time>2022-06-01T04:48:55.682Z</time>
      </trkpt>
      <trkpt lat="49.77181223" lon="9.78552473">
        <ele>250.9231</ele>
        <time>2022-06-01T04:49:04.463Z</time>
      </trkpt>
      <trkpt lat="49.77192112" lon="9.78503806">
        <ele>250.6923</ele>
        <time>2022-06-01T04:49:12.317Z</time>
      </trkpt>
      <trkpt lat="49.77197889" lon="9.78428612">
        <ele>250.3846</ele>
        <time>2022-06-01T04:49:23.868Z</time>
      </trkpt>
      <trkpt lat="49.77214751" lon="9.7827425">
        <ele>250.0769</ele>
        <time>2022-06-01T04:49:47.747Z</time>
      </trkpt>
      <trkpt lat="49.77258917" lon="9.78171195">
        <ele>249.8462</ele>
        <time>2022-06-01T04:50:06.597Z</time>
      </trkpt>
      <trkpt lat="49.77305695" lon="9.78074278">
        <ele>249.6923</ele>
        <time>2022-06-01T04:50:25.035Z</time>
      </trkpt>
      <trkpt lat="49.77356306" lon="9.77995751">
        <ele>249.6154</ele>
        <time>2022-06-01T04:50:41.934Z</time>
      </trkpt>
      <trkpt lat="49.77386917" lon="9.77951473">
        <ele>249.3077</ele>
        <time>2022-06-01T04:50:51.813Z</time>
      </trkpt>
      <trkpt lat="49.77401862" lon="9.77882528">
        <ele>249</ele>
        <time>2022-06-01T04:51:02.903Z</time>
      </trkpt>
      <trkpt lat="49.77424695" lon="9.77819834">
        <ele>248.7692</ele>
        <time>2022-06-01T04:51:13.875Z</time>
      </trkpt>
      <trkpt lat="49.77448778" lon="9.77765278">
        <ele>248.5385</ele>
        <time>2022-06-01T04:51:23.946Z</time>
      </trkpt>
      <trkpt lat="49.77462695" lon="9.77744167">
        <ele>248.3846</ele>
        <time>2022-06-01T04:51:28.538Z</time>
      </trkpt>
      <trkpt lat="49.77485945" lon="9.77700306">
        <ele>248.1538</ele>
        <time>2022-06-01T04:51:37.184Z</time>
      </trkpt>
      <trkpt lat="49.77394278" lon="9.77541612">
        <ele>248</ele>
        <time>2022-06-01T04:52:09.62Z</time>
      </trkpt>
      <trkpt lat="49.77396389" lon="9.7751925">
        <ele>247.6154</ele>
        <time>2022-06-01T04:52:13.062Z</time>
      </trkpt>
      <trkpt lat="49.77410278" lon="9.77464528">
        <ele>247.2308</ele>
        <time>2022-06-01T04:52:22.027Z</time>
      </trkpt>
      <trkpt lat="49.77411556" lon="9.77421834">
        <ele>247.1538</ele>
        <time>2022-06-01T04:52:28.546Z</time>
      </trkpt>
      <trkpt lat="49.77489417" lon="9.77352362">
        <ele>247.1538</ele>
        <time>2022-06-01T04:52:49.726Z</time>
      </trkpt>
      <trkpt lat="49.77622862" lon="9.77250695">
        <ele>247.1538</ele>
        <time>2022-06-01T04:53:24.774Z</time>
      </trkpt>
      <trkpt lat="49.77830695" lon="9.77109528">
        <ele>247.2308</ele>
        <time>2022-06-01T04:54:18.252Z</time>
      </trkpt>
      <trkpt lat="49.77873001" lon="9.77087806">
        <ele>247.6154</ele>
        <time>2022-06-01T04:54:28.751Z</time>
      </trkpt>
      <trkpt lat="49.78009723" lon="9.77040139">
        <ele>248.0769</ele>
        <time>2022-06-01T04:55:01.764Z</time>
      </trkpt>
      <trkpt lat="49.78145723" lon="9.76997528">
        <ele>248.3846</ele>
        <time>2022-06-01T04:55:34.449Z</time>
      </trkpt>
      <trkpt lat="49.78203112" lon="9.76989278">
        <ele>248.1538</ele>
        <time>2022-06-01T04:55:48.024Z</time>
      </trkpt>
      <trkpt lat="49.78232" lon="9.77002945">
        <ele>248.1538</ele>
        <time>2022-06-01T04:55:55.139Z</time>
      </trkpt>
      <trkpt lat="49.78250362" lon="9.77014445">
        <ele>248.0769</ele>
        <time>2022-06-01T04:55:59.805Z</time>
      </trkpt>
      <trkpt lat="49.78269389" lon="9.77025945">
        <ele>248.0769</ele>
        <time>2022-06-01T04:56:04.617Z</time>
      </trkpt>
      <trkpt lat="49.78339639" lon="9.76964973">
        <ele>248.0769</ele>
        <time>2022-06-01T04:56:23.597Z</time>
      </trkpt>
      <trkpt lat="49.78386084" lon="9.76918889">
        <ele>248.2308</ele>
        <time>2022-06-01T04:56:36.6Z</time>
      </trkpt>
      <trkpt lat="49.78444556" lon="9.76843501">
        <ele>247.9231</ele>
        <time>2022-06-01T04:56:54.54Z</time>
      </trkpt>
      <trkpt lat="49.78504389" lon="9.76762028">
        <ele>247.5385</ele>
        <time>2022-06-01T04:57:13.328Z</time>
      </trkpt>
      <trkpt lat="49.78550806" lon="9.76719">
        <ele>247.1538</ele>
        <time>2022-06-01T04:57:26.079Z</time>
      </trkpt>
      <trkpt lat="49.78593862" lon="9.76682028">
        <ele>246.6923</ele>
        <time>2022-06-01T04:57:37.678Z</time>
      </trkpt>
      <trkpt lat="49.78609723" lon="9.76674139">
        <ele>246.1538</ele>
        <time>2022-06-01T04:57:41.602Z</time>
      </trkpt>
      <trkpt lat="49.78713889" lon="9.76667639">
        <ele>245.7692</ele>
        <time>2022-06-01T04:58:06.157Z</time>
      </trkpt>
      <trkpt lat="49.78752223" lon="9.76646889">
        <ele>245.1538</ele>
        <time>2022-06-01T04:58:15.723Z</time>
      </trkpt>
      <trkpt lat="49.78783306" lon="9.76630084">
        <ele>245.2308</ele>
        <time>2022-06-01T04:58:23.479Z</time>
      </trkpt>
      <trkpt lat="49.78812306" lon="9.76626473">
        <ele>245.1538</ele>
        <time>2022-06-01T04:58:30.332Z</time>
      </trkpt>
      <trkpt lat="49.78863056" lon="9.7662625">
        <ele>245.0769</ele>
        <time>2022-06-01T04:58:42.285Z</time>
      </trkpt>
      <trkpt lat="49.78882945" lon="9.76607223">
        <ele>245</ele>
        <time>2022-06-01T04:58:47.793Z</time>
      </trkpt>
      <trkpt lat="49.78909584" lon="9.76565917">
        <ele>244.7692</ele>
        <time>2022-06-01T04:58:56.684Z</time>
      </trkpt>
      <trkpt lat="49.79008306" lon="9.76380223">
        <ele>244.6154</ele>
        <time>2022-06-01T04:59:33.324Z</time>
      </trkpt>
      <trkpt lat="49.79052751" lon="9.76334084">
        <ele>244.9231</ele>
        <time>2022-06-01T04:59:45.937Z</time>
      </trkpt>
      <trkpt lat="49.79191195" lon="9.76222278">
        <ele>245.0769</ele>
        <time>2022-06-01T05:00:22.733Z</time>
      </trkpt>
      <trkpt lat="49.79234223" lon="9.76193445">
        <ele>244.8462</ele>
        <time>2022-06-01T05:00:33.778Z</time>
      </trkpt>
      <trkpt lat="49.79264084" lon="9.76160334">
        <ele>244.6154</ele>
        <time>2022-06-01T05:00:42.432Z</time>
      </trkpt>
      <trkpt lat="49.79280751" lon="9.76127">
        <ele>244.4615</ele>
        <time>2022-06-01T05:00:48.849Z</time>
      </trkpt>
      <trkpt lat="49.79310167" lon="9.76063334">
        <ele>244.2308</ele>
        <time>2022-06-01T05:01:00.776Z</time>
      </trkpt>
      <trkpt lat="49.79332195" lon="9.76020945">
        <ele>244.0769</ele>
        <time>2022-06-01T05:01:09.064Z</time>
      </trkpt>
      <trkpt lat="49.79386056" lon="9.75943417">
        <ele>243.7692</ele>
        <time>2022-06-01T05:01:26.404Z</time>
      </trkpt>
      <trkpt lat="49.79424612" lon="9.75893139">
        <ele>243.3077</ele>
        <time>2022-06-01T05:01:38.288Z</time>
      </trkpt>
      <trkpt lat="49.79449334" lon="9.75840584">
        <ele>242.7692</ele>
        <time>2022-06-01T05:01:48.193Z</time>
      </trkpt>
      <trkpt lat="49.79486945" lon="9.75729223">
        <ele>242.3077</ele>
        <time>2022-06-01T05:02:07.344Z</time>
      </trkpt>
      <trkpt lat="49.79514417" lon="9.75659417">
        <ele>242.0769</ele>
        <time>2022-06-01T05:02:19.8Z</time>
      </trkpt>
      <trkpt lat="49.79557723" lon="9.75586806">
        <ele>241.6154</ele>
        <time>2022-06-01T05:02:34.854Z</time>
      </trkpt>
      <trkpt lat="49.79606362" lon="9.75504112">
        <ele>240.8462</ele>
        <time>2022-06-01T05:02:51.89Z</time>
      </trkpt>
      <trkpt lat="49.79650306" lon="9.75434556">
        <ele>240.1538</ele>
        <time>2022-06-01T05:03:06.709Z</time>
      </trkpt>
      <trkpt lat="49.79672889" lon="9.75406417">
        <ele>239.7692</ele>
        <time>2022-06-01T05:03:13.539Z</time>
      </trkpt>
      <trkpt lat="49.79675612" lon="9.75390167">
        <ele>239.3846</ele>
        <time>2022-06-01T05:03:16.095Z</time>
      </trkpt>
      <trkpt lat="49.79678362" lon="9.75373917">
        <ele>238.8462</ele>
        <time>2022-06-01T05:03:18.652Z</time>
      </trkpt>
      <trkpt lat="49.79690306" lon="9.75361889">
        <ele>238.1538</ele>
        <time>2022-06-01T05:03:22.009Z</time>
      </trkpt>
      <trkpt lat="49.79700973" lon="9.75342723">
        <ele>237.8462</ele>
        <time>2022-06-01T05:03:25.86Z</time>
      </trkpt>
      <trkpt lat="49.79721806" lon="9.75278917">
        <ele>237.6923</ele>
        <time>2022-06-01T05:03:36.756Z</time>
      </trkpt>
      <trkpt lat="49.79732695" lon="9.75227195">
        <ele>237.6923</ele>
        <time>2022-06-01T05:03:45.048Z</time>
      </trkpt>
      <trkpt lat="49.79743112" lon="9.75144889">
        <ele>237.7692</ele>
        <time>2022-06-01T05:03:57.834Z</time>
      </trkpt>
      <trkpt lat="49.79755362" lon="9.75085028">
        <ele>237.6154</ele>
        <time>2022-06-01T05:04:07.406Z</time>
      </trkpt>
      <trkpt lat="49.79772334" lon="9.75005889">
        <ele>237.6154</ele>
        <time>2022-06-01T05:04:20.117Z</time>
      </trkpt>
      <trkpt lat="49.79785334" lon="9.74929751">
        <ele>237.3846</ele>
        <time>2022-06-01T05:04:32.122Z</time>
      </trkpt>
      <trkpt lat="49.79789084" lon="9.74860612">
        <ele>237.3077</ele>
        <time>2022-06-01T05:04:42.7Z</time>
      </trkpt>
      <trkpt lat="49.79788334" lon="9.74771028">
        <ele>237.1538</ele>
        <time>2022-06-01T05:04:56.359Z</time>
      </trkpt>
      <trkpt lat="49.79774889" lon="9.74710751">
        <ele>237.0769</ele>
        <time>2022-06-01T05:05:06.079Z</time>
      </trkpt>
      <trkpt lat="49.79703056" lon="9.74512195">
        <ele>237.0769</ele>
        <time>2022-06-01T05:05:40.759Z</time>
      </trkpt>
      <trkpt lat="49.79666556" lon="9.74344695">
        <ele>237</ele>
        <time>2022-06-01T05:06:07.705Z</time>
      </trkpt>
      <trkpt lat="49.79635167" lon="9.74204778">
        <ele>237.1538</ele>
        <time>2022-06-01T05:06:30.282Z</time>
      </trkpt>
      <trkpt lat="49.79575306" lon="9.73983">
        <ele>237.2308</ele>
        <time>2022-06-01T05:07:06.918Z</time>
      </trkpt>
      <trkpt lat="49.79543001" lon="9.73885806">
        <ele>237.2308</ele>
        <time>2022-06-01T05:07:23.576Z</time>
      </trkpt>
      <trkpt lat="49.79504612" lon="9.73808889">
        <ele>237</ele>
        <time>2022-06-01T05:07:38.385Z</time>
      </trkpt>
      <trkpt lat="49.79486362" lon="9.73780112">
        <ele>236.8462</ele>
        <time>2022-06-01T05:07:44.523Z</time>
      </trkpt>
      <trkpt lat="49.79448473" lon="9.73727639">
        <ele>237</ele>
        <time>2022-06-01T05:07:56.508Z</time>
      </trkpt>
      <trkpt lat="49.79416973" lon="9.73706806">
        <ele>236.9231</ele>
        <time>2022-06-01T05:08:04.577Z</time>
      </trkpt>
      <trkpt lat="49.79397334" lon="9.73685112">
        <ele>237.0769</ele>
        <time>2022-06-01T05:08:10.261Z</time>
      </trkpt>
      <trkpt lat="49.79384917" lon="9.73669667">
        <ele>237</ele>
        <time>2022-06-01T05:08:14.014Z</time>
      </trkpt>
      <trkpt lat="49.7936675" lon="9.73626639">
        <ele>237.0769</ele>
        <time>2022-06-01T05:08:21.847Z</time>
      </trkpt>
      <trkpt lat="49.79328056" lon="9.73599584">
        <ele>237.0769</ele>
        <time>2022-06-01T05:08:31.849Z</time>
      </trkpt>
      <trkpt lat="49.79269695" lon="9.73554945">
        <ele>236.7692</ele>
        <time>2022-06-01T05:08:47.188Z</time>
      </trkpt>
      <trkpt lat="49.79258556" lon="9.73544612">
        <ele>236.6154</ele>
        <time>2022-06-01T05:08:50.247Z</time>
      </trkpt>
      <trkpt lat="49.79234306" lon="9.73524889">
        <ele>236.3077</ele>
        <time>2022-06-01T05:08:56.7Z</time>
      </trkpt>
      <trkpt lat="49.7923975" lon="9.73496473">
        <ele>235.9231</ele>
        <time>2022-06-01T05:09:01.213Z</time>
      </trkpt>
      <trkpt lat="49.79243306" lon="9.73456834">
        <ele>235.4615</ele>
        <time>2022-06-01T05:09:07.306Z</time>
      </trkpt>
      <trkpt lat="49.79240973" lon="9.73407945">
        <ele>235.3077</ele>
        <time>2022-06-01T05:09:14.781Z</time>
      </trkpt>
      <trkpt lat="49.79222889" lon="9.73350695">
        <ele>235.2308</ele>
        <time>2022-06-01T05:09:24.494Z</time>
      </trkpt>
      <trkpt lat="49.79198251" lon="9.73286195">
        <ele>235.0769</ele>
        <time>2022-06-01T05:09:35.913Z</time>
      </trkpt>
      <trkpt lat="49.79184667" lon="9.73246306">
        <ele>234.9231</ele>
        <time>2022-06-01T05:09:42.778Z</time>
      </trkpt>
      <trkpt lat="49.79169889" lon="9.73189084">
        <ele>234.6923</ele>
        <time>2022-06-01T05:09:52.172Z</time>
      </trkpt>
      <trkpt lat="49.79157167" lon="9.73118667">
        <ele>234.4615</ele>
        <time>2022-06-01T05:10:03.32Z</time>
      </trkpt>
      <trkpt lat="49.79147667" lon="9.73055417">
        <ele>234.1538</ele>
        <time>2022-06-01T05:10:13.221Z</time>
      </trkpt>
      <trkpt lat="49.79134584" lon="9.73007695">
        <ele>233.6923</ele>
        <time>2022-06-01T05:10:21.123Z</time>
      </trkpt>
      <trkpt lat="49.79127028" lon="9.72955723">
        <ele>233.3846</ele>
        <time>2022-06-01T05:10:29.245Z</time>
      </trkpt>
      <trkpt lat="49.79124695" lon="9.72940778">
        <ele>233</ele>
        <time>2022-06-01T05:10:31.586Z</time>
      </trkpt>
      <trkpt lat="49.79156889" lon="9.72949723">
        <ele>232.6923</ele>
        <time>2022-06-01T05:10:39.29Z</time>
      </trkpt>
      <trkpt lat="49.79157223" lon="9.72897834">
        <ele>232.3846</ele>
        <time>2022-06-01T05:10:47.202Z</time>
      </trkpt>
      <trkpt lat="49.79163056" lon="9.72758834">
        <ele>232.1538</ele>
        <time>2022-06-01T05:11:08.441Z</time>
      </trkpt>
      <trkpt lat="49.79170889" lon="9.72716862">
        <ele>231.8462</ele>
        <time>2022-06-01T05:11:15.102Z</time>
      </trkpt>
      <trkpt lat="49.79186445" lon="9.72649945">
        <ele>231.4615</ele>
        <time>2022-06-01T05:11:25.943Z</time>
      </trkpt>
      <trkpt lat="49.79198667" lon="9.72594139">
        <ele>231.1538</ele>
        <time>2022-06-01T05:11:34.926Z</time>
      </trkpt>
      <trkpt lat="49.79203195" lon="9.72502612">
        <ele>231</ele>
        <time>2022-06-01T05:11:48.923Z</time>
      </trkpt>
      <trkpt lat="49.79199973" lon="9.72385528">
        <ele>230.7692</ele>
        <time>2022-06-01T05:12:06.792Z</time>
      </trkpt>
      <trkpt lat="49.79209417" lon="9.72246223">
        <ele>230.4615</ele>
        <time>2022-06-01T05:12:28.149Z</time>
      </trkpt>
      <trkpt lat="49.79212195" lon="9.72223889">
        <ele>230.1538</ele>
        <time>2022-06-01T05:12:31.612Z</time>
      </trkpt>
      <trkpt lat="49.79213473" lon="9.72226945">
        <ele>229.8462</ele>
        <time>2022-06-01T05:12:32.166Z</time>
      </trkpt>
      <trkpt lat="49.79194723" lon="9.72171723">
        <ele>229.6154</ele>
        <time>2022-06-01T05:12:41.674Z</time>
      </trkpt>
      <trkpt lat="49.79176084" lon="9.72096139">
        <ele>229.5385</ele>
        <time>2022-06-01T05:12:54.007Z</time>
      </trkpt>
      <trkpt lat="49.79161445" lon="9.72014501">
        <ele>229.3077</ele>
        <time>2022-06-01T05:13:06.924Z</time>
      </trkpt>
      <trkpt lat="49.79150556" lon="9.71855556">
        <ele>229</ele>
        <time>2022-06-01T05:13:31.295Z</time>
      </trkpt>
      <trkpt lat="49.79143306" lon="9.71749612">
        <ele>228.6923</ele>
        <time>2022-06-01T05:13:47.54Z</time>
      </trkpt>
      <trkpt lat="49.79144584" lon="9.71645528">
        <ele>228.8462</ele>
        <time>2022-06-01T05:14:03.414Z</time>
      </trkpt>
      <trkpt lat="49.79130167" lon="9.71425778">
        <ele>228.6923</ele>
        <time>2022-06-01T05:14:37.094Z</time>
      </trkpt>
      <trkpt lat="49.79096334" lon="9.71248195">
        <ele>228.3846</ele>
        <time>2022-06-01T05:15:05.321Z</time>
      </trkpt>
      <trkpt lat="49.79076973" lon="9.71179723">
        <ele>228</ele>
        <time>2022-06-01T05:15:16.714Z</time>
      </trkpt>
      <trkpt lat="49.79037362" lon="9.71087556">
        <ele>227.6154</ele>
        <time>2022-06-01T05:15:33.583Z</time>
      </trkpt>
      <trkpt lat="49.789885" lon="9.70999306">
        <ele>227.3846</ele>
        <time>2022-06-01T05:15:51.29Z</time>
      </trkpt>
      <trkpt lat="49.78910445" lon="9.70939139">
        <ele>227.2308</ele>
        <time>2022-06-01T05:16:11.837Z</time>
      </trkpt>
      <trkpt lat="49.78847028" lon="9.70858834">
        <ele>227.0769</ele>
        <time>2022-06-01T05:16:31.152Z</time>
      </trkpt>
      <trkpt lat="49.78818417" lon="9.70796362">
        <ele>226.7692</ele>
        <time>2022-06-01T05:16:42.821Z</time>
      </trkpt>
      <trkpt lat="49.78777445" lon="9.70707223">
        <ele>226.3846</ele>
        <time>2022-06-01T05:16:59.491Z</time>
      </trkpt>
      <trkpt lat="49.78756195" lon="9.70627528">
        <ele>226.3077</ele>
        <time>2022-06-01T05:17:12.634Z</time>
      </trkpt>
      <trkpt lat="49.78677917" lon="9.70500195">
        <ele>226.3846</ele>
        <time>2022-06-01T05:17:39.41Z</time>
      </trkpt>
      <trkpt lat="49.78587195" lon="9.70356417">
        <ele>227.0769</ele>
        <time>2022-06-01T05:18:10.026Z</time>
      </trkpt>
      <trkpt lat="49.78554945" lon="9.70243">
        <ele>227.7692</ele>
        <time>2022-06-01T05:18:28.917Z</time>
      </trkpt>
      <trkpt lat="49.78521862" lon="9.70159084">
        <ele>228.6154</ele>
        <time>2022-06-01T05:18:43.9Z</time>
      </trkpt>
      <trkpt lat="49.78490667" lon="9.70089445">
        <ele>230.0769</ele>
        <time>2022-06-01T05:18:56.814Z</time>
      </trkpt>
      <trkpt lat="49.78454389" lon="9.69986139">
        <ele>232</ele>
        <time>2022-06-01T05:19:14.736Z</time>
      </trkpt>
      <trkpt lat="49.78421723" lon="9.69939862">
        <ele>233.0769</ele>
        <time>2022-06-01T05:19:25.177Z</time>
      </trkpt>
      <trkpt lat="49.78371445" lon="9.69861806">
        <ele>234.0769</ele>
        <time>2022-06-01T05:19:41.968Z</time>
      </trkpt>
      <trkpt lat="49.78339112" lon="9.69762639">
        <ele>235.0769</ele>
        <time>2022-06-01T05:19:58.901Z</time>
      </trkpt>
      <trkpt lat="49.78310723" lon="9.696615">
        <ele>235.6154</ele>
        <time>2022-06-01T05:20:15.712Z</time>
      </trkpt>
      <trkpt lat="49.78285084" lon="9.69545139">
        <ele>236</ele>
        <time>2022-06-01T05:20:34.457Z</time>
      </trkpt>
      <trkpt lat="49.78276445" lon="9.69446306">
        <ele>236.4615</ele>
        <time>2022-06-01T05:20:49.667Z</time>
      </trkpt>
      <trkpt lat="49.78279834" lon="9.69321195">
        <ele>236.6154</ele>
        <time>2022-06-01T05:21:08.764Z</time>
      </trkpt>
      <trkpt lat="49.78278695" lon="9.69290639">
        <ele>236.7692</ele>
        <time>2022-06-01T05:21:13.425Z</time>
      </trkpt>
      <trkpt lat="49.78260695" lon="9.69214084">
        <ele>235.8462</ele>
        <time>2022-06-01T05:21:25.846Z</time>
      </trkpt>
      <trkpt lat="49.78256084" lon="9.69106139">
        <ele>234.2308</ele>
        <time>2022-06-01T05:21:42.344Z</time>
      </trkpt>
      <trkpt lat="49.78224278" lon="9.69023278">
        <ele>231.9231</ele>
        <time>2022-06-01T05:21:57.035Z</time>
      </trkpt>
      <trkpt lat="49.78167556" lon="9.6892275">
        <ele>229</ele>
        <time>2022-06-01T05:22:17.371Z</time>
      </trkpt>
      <trkpt lat="49.7810425" lon="9.68821112">
        <ele>226.0769</ele>
        <time>2022-06-01T05:22:38.88Z</time>
      </trkpt>
      <trkpt lat="49.78062473" lon="9.68753362">
        <ele>224.5385</ele>
        <time>2022-06-01T05:22:53.149Z</time>
      </trkpt>
      <trkpt lat="49.78037028" lon="9.68713334">
        <ele>223.2308</ele>
        <time>2022-06-01T05:23:01.698Z</time>
      </trkpt>
      <trkpt lat="49.78026667" lon="9.68680612">
        <ele>221.7692</ele>
        <time>2022-06-01T05:23:07.247Z</time>
      </trkpt>
      <trkpt lat="49.78020223" lon="9.68544167">
        <ele>221.5385</ele>
        <time>2022-06-01T05:23:28.112Z</time>
      </trkpt>
      <trkpt lat="49.78015584" lon="9.68330445">
        <ele>222</ele>
        <time>2022-06-01T05:24:00.727Z</time>
      </trkpt>
      <trkpt lat="49.77972278" lon="9.68299306">
        <ele>222.5385</ele>
        <time>2022-06-01T05:24:11.976Z</time>
      </trkpt>
      <trkpt lat="49.77967278" lon="9.68252445">
        <ele>223.3077</ele>
        <time>2022-06-01T05:24:19.22Z</time>
      </trkpt>
      <trkpt lat="49.77971195" lon="9.68145639">
        <ele>224.3077</ele>
        <time>2022-06-01T05:24:35.536Z</time>
      </trkpt>
      <trkpt lat="49.77968417" lon="9.68059139">
        <ele>225.5385</ele>
        <time>2022-06-01T05:24:48.745Z</time>
      </trkpt>
      <trkpt lat="49.77965556" lon="9.67986834">
        <ele>226.9231</ele>
        <time>2022-06-01T05:24:59.793Z</time>
      </trkpt>
      <trkpt lat="49.77961417" lon="9.67903362">
        <ele>229.3077</ele>
        <time>2022-06-01T05:25:12.561Z</time>
      </trkpt>
      <trkpt lat="49.77961639" lon="9.67863667">
        <ele>231.3077</ele>
        <time>2022-06-01T05:25:18.607Z</time>
      </trkpt>
      <trkpt lat="49.77960195" lon="9.67773084">
        <ele>232.6923</ele>
        <time>2022-06-01T05:25:32.427Z</time>
      </trkpt>
      <trkpt lat="49.7795925" lon="9.6771">
        <ele>232.4615</ele>
        <time>2022-06-01T05:25:42.051Z</time>
      </trkpt>
      <trkpt lat="49.77946362" lon="9.67641556">
        <ele>231.7692</ele>
        <time>2022-06-01T05:25:52.922Z</time>
      </trkpt>
      <trkpt lat="49.77909945" lon="9.67578056">
        <ele>231.0769</ele>
        <time>2022-06-01T05:26:05.859Z</time>
      </trkpt>
      <trkpt lat="49.77866445" lon="9.67468584">
        <ele>229.6154</ele>
        <time>2022-06-01T05:26:25.449Z</time>
      </trkpt>
      <trkpt lat="49.77816306" lon="9.67366139">
        <ele>227.3846</ele>
        <time>2022-06-01T05:26:45.035Z</time>
      </trkpt>
      <trkpt lat="49.77730167" lon="9.672225">
        <ele>225.3846</ele>
        <time>2022-06-01T05:27:14.895Z</time>
      </trkpt>
      <trkpt lat="49.77657278" lon="9.67065834">
        <ele>223.3846</ele>
        <time>2022-06-01T05:27:44.319Z</time>
      </trkpt>
      <trkpt lat="49.77653139" lon="9.66985389">
        <ele>221.4615</ele>
        <time>2022-06-01T05:27:56.628Z</time>
      </trkpt>
      <trkpt lat="49.77643556" lon="9.66934389">
        <ele>219.3077</ele>
        <time>2022-06-01T05:28:04.728Z</time>
      </trkpt>
      <trkpt lat="49.77628751" lon="9.66873139">
        <ele>217.3846</ele>
        <time>2022-06-01T05:28:14.7Z</time>
      </trkpt>
      <trkpt lat="49.77617139" lon="9.66832306">
        <ele>215.6154</ele>
        <time>2022-06-01T05:28:21.494Z</time>
      </trkpt>
      <trkpt lat="49.77593306" lon="9.66735306">
        <ele>214.2308</ele>
        <time>2022-06-01T05:28:37.319Z</time>
      </trkpt>
      <trkpt lat="49.7758325" lon="9.66653778">
        <ele>212.0769</ele>
        <time>2022-06-01T05:28:49.978Z</time>
      </trkpt>
      <trkpt lat="49.77571362" lon="9.66541695">
        <ele>211.3077</ele>
        <time>2022-06-01T05:29:07.302Z</time>
      </trkpt>
      <trkpt lat="49.77555556" lon="9.66427528">
        <ele>210.6154</ele>
        <time>2022-06-01T05:29:25.11Z</time>
      </trkpt>
      <trkpt lat="49.77522945" lon="9.66251084">
        <ele>210.1538</ele>
        <time>2022-06-01T05:29:53.098Z</time>
      </trkpt>
      <trkpt lat="49.77491945" lon="9.66142806">
        <ele>209.2308</ele>
        <time>2022-06-01T05:30:11.156Z</time>
      </trkpt>
      <trkpt lat="49.77451723" lon="9.66032389">
        <ele>208.4615</ele>
        <time>2022-06-01T05:30:30.48Z</time>
      </trkpt>
      <trkpt lat="49.77434973" lon="9.65968056">
        <ele>207.2308</ele>
        <time>2022-06-01T05:30:41.056Z</time>
      </trkpt>
      <trkpt lat="49.77428112" lon="9.65897778">
        <ele>205.8462</ele>
        <time>2022-06-01T05:30:51.897Z</time>
      </trkpt>
      <trkpt lat="49.77415417" lon="9.65813167">
        <ele>204.1538</ele>
        <time>2022-06-01T05:31:05.145Z</time>
      </trkpt>
      <trkpt lat="49.7741475" lon="9.65813167">
        <ele>204.1143</ele>
        <time>2022-06-01T05:31:05.302Z</time>
      </trkpt>
      <trkpt lat="49.77417167" lon="9.65739945">
        <ele>201.3077</ele>
        <time>2022-06-01T05:31:16.485Z</time>
      </trkpt>
      <trkpt lat="49.77436889" lon="9.65629306">
        <ele>199.5385</ele>
        <time>2022-06-01T05:31:33.989Z</time>
      </trkpt>
      <trkpt lat="49.7745525" lon="9.65526806">
        <ele>197.8462</ele>
        <time>2022-06-01T05:31:50.211Z</time>
      </trkpt>
      <trkpt lat="49.77460917" lon="9.6546075">
        <ele>196.9231</ele>
        <time>2022-06-01T05:32:00.375Z</time>
      </trkpt>
      <trkpt lat="49.77462723" lon="9.65372251">
        <ele>195.7692</ele>
        <time>2022-06-01T05:32:13.881Z</time>
      </trkpt>
      <trkpt lat="49.77461695" lon="9.65318334">
        <ele>194.6923</ele>
        <time>2022-06-01T05:32:22.109Z</time>
      </trkpt>
      <trkpt lat="49.77459889" lon="9.65289806">
        <ele>193.3846</ele>
        <time>2022-06-01T05:32:26.475Z</time>
      </trkpt>
      <trkpt lat="49.77410306" lon="9.65225612">
        <ele>192.6154</ele>
        <time>2022-06-01T05:32:41.715Z</time>
      </trkpt>
      <trkpt lat="49.77410862" lon="9.65223028">
        <ele>192.606</ele>
        <time>2022-06-01T05:32:42.13Z</time>
      </trkpt>
      <trkpt lat="49.77401862" lon="9.65183223">
        <ele>192.4615</ele>
        <time>2022-06-01T05:32:48.553Z</time>
      </trkpt>
      <trkpt lat="49.77349084" lon="9.65077723">
        <ele>192.3846</ele>
        <time>2022-06-01T05:33:08.888Z</time>
      </trkpt>
      <trkpt lat="49.77311195" lon="9.65019223">
        <ele>192.1538</ele>
        <time>2022-06-01T05:33:21.508Z</time>
      </trkpt>
      <trkpt lat="49.77225862" lon="9.64960112">
        <ele>191.6154</ele>
        <time>2022-06-01T05:33:43.537Z</time>
      </trkpt>
      <trkpt lat="49.7717275" lon="9.64916667">
        <ele>191</ele>
        <time>2022-06-01T05:33:57.694Z</time>
      </trkpt>
      <trkpt lat="49.77136723" lon="9.648765">
        <ele>190.6154</ele>
        <time>2022-06-01T05:34:08.156Z</time>
      </trkpt>
      <trkpt lat="49.77109834" lon="9.64854778">
        <ele>189.8462</ele>
        <time>2022-06-01T05:34:15.302Z</time>
      </trkpt>
      <trkpt lat="49.77091084" lon="9.64794528">
        <ele>189.1538</ele>
        <time>2022-06-01T05:34:25.499Z</time>
      </trkpt>
      <trkpt lat="49.77069889" lon="9.64693528">
        <ele>188.5385</ele>
        <time>2022-06-01T05:34:41.695Z</time>
      </trkpt>
      <trkpt lat="49.77059862" lon="9.64600806">
        <ele>188.3846</ele>
        <time>2022-06-01T05:34:56.035Z</time>
      </trkpt>
      <trkpt lat="49.77056695" lon="9.64460389">
        <ele>188.0769</ele>
        <time>2022-06-01T05:35:17.468Z</time>
      </trkpt>
      <trkpt lat="49.77048084" lon="9.64351417">
        <ele>188.0769</ele>
        <time>2022-06-01T05:35:34.215Z</time>
      </trkpt>
      <trkpt lat="49.77035334" lon="9.64275973">
        <ele>187.7692</ele>
        <time>2022-06-01T05:35:46.109Z</time>
      </trkpt>
      <trkpt lat="49.76985917" lon="9.64154278">
        <ele>186.9231</ele>
        <time>2022-06-01T05:36:08.02Z</time>
      </trkpt>
      <trkpt lat="49.76957889" lon="9.64097945">
        <ele>186.2308</ele>
        <time>2022-06-01T05:36:18.857Z</time>
      </trkpt>
      <trkpt lat="49.76900362" lon="9.64020889">
        <ele>185.5385</ele>
        <time>2022-06-01T05:36:36.795Z</time>
      </trkpt>
      <trkpt lat="49.76838084" lon="9.63963112">
        <ele>185</ele>
        <time>2022-06-01T05:36:53.908Z</time>
      </trkpt>
      <trkpt lat="49.76727139" lon="9.63893473">
        <ele>184.6923</ele>
        <time>2022-06-01T05:37:22.116Z</time>
      </trkpt>
      <trkpt lat="49.76677195" lon="9.63859278">
        <ele>184.0769</ele>
        <time>2022-06-01T05:37:34.981Z</time>
      </trkpt>
      <trkpt lat="49.76624056" lon="9.63822973">
        <ele>183.6154</ele>
        <time>2022-06-01T05:37:48.665Z</time>
      </trkpt>
      <trkpt lat="49.76591362" lon="9.63780834">
        <ele>183.1538</ele>
        <time>2022-06-01T05:37:58.696Z</time>
      </trkpt>
      <trkpt lat="49.76569917" lon="9.63726639">
        <ele>182.6923</ele>
        <time>2022-06-01T05:38:08.385Z</time>
      </trkpt>
      <trkpt lat="49.76547362" lon="9.63632751">
        <ele>181.9231</ele>
        <time>2022-06-01T05:38:23.662Z</time>
      </trkpt>
      <trkpt lat="49.76534639" lon="9.63548167">
        <ele>181.3846</ele>
        <time>2022-06-01T05:38:36.91Z</time>
      </trkpt>
      <trkpt lat="49.76527251" lon="9.634535">
        <ele>180.5385</ele>
        <time>2022-06-01T05:38:51.457Z</time>
      </trkpt>
      <trkpt lat="49.76531028" lon="9.63366056">
        <ele>179.7692</ele>
        <time>2022-06-01T05:39:04.827Z</time>
      </trkpt>
      <trkpt lat="49.76557223" lon="9.63276889">
        <ele>178.9231</ele>
        <time>2022-06-01T05:39:19.764Z</time>
      </trkpt>
      <trkpt lat="49.76576751" lon="9.63195778">
        <ele>178.1538</ele>
        <time>2022-06-01T05:39:32.966Z</time>
      </trkpt>
      <trkpt lat="49.76590362" lon="9.63117612">
        <ele>177.6154</ele>
        <time>2022-06-01T05:39:45.315Z</time>
      </trkpt>
      <trkpt lat="49.76591806" lon="9.62973195">
        <ele>177.2308</ele>
        <time>2022-06-01T05:40:07.35Z</time>
      </trkpt>
      <trkpt lat="49.76593167" lon="9.62843">
        <ele>176.9231</ele>
        <time>2022-06-01T05:40:27.215Z</time>
      </trkpt>
      <trkpt lat="49.76589862" lon="9.62724973">
        <ele>176.4615</ele>
        <time>2022-06-01T05:40:45.238Z</time>
      </trkpt>
      <trkpt lat="49.76581501" lon="9.62562639">
        <ele>176.2308</ele>
        <time>2022-06-01T05:41:10.082Z</time>
      </trkpt>
      <trkpt lat="49.76616473" lon="9.62433389">
        <ele>176.0769</ele>
        <time>2022-06-01T05:41:31.452Z</time>
      </trkpt>
      <trkpt lat="49.76653417" lon="9.62425723">
        <ele>175.7692</ele>
        <time>2022-06-01T05:41:40.232Z</time>
      </trkpt>
      <trkpt lat="49.76637334" lon="9.62353278">
        <ele>175.5385</ele>
        <time>2022-06-01T05:41:51.915Z</time>
      </trkpt>
      <trkpt lat="49.76610556" lon="9.62247667">
        <ele>175.3077</ele>
        <time>2022-06-01T05:42:09.218Z</time>
      </trkpt>
      <trkpt lat="49.76602889" lon="9.62154223">
        <ele>175.0769</ele>
        <time>2022-06-01T05:42:23.588Z</time>
      </trkpt>
      <trkpt lat="49.766135" lon="9.62066723">
        <ele>174.7692</ele>
        <time>2022-06-01T05:42:37.169Z</time>
      </trkpt>
      <trkpt lat="49.76629389" lon="9.62008917">
        <ele>174.5385</ele>
        <time>2022-06-01T05:42:46.749Z</time>
      </trkpt>
      <trkpt lat="49.76649945" lon="9.61955112">
        <ele>174.3846</ele>
        <time>2022-06-01T05:42:56.279Z</time>
      </trkpt>
      <trkpt lat="49.76684501" lon="9.61928473">
        <ele>174.0769</ele>
        <time>2022-06-01T05:43:05.374Z</time>
      </trkpt>
      <trkpt lat="49.76713001" lon="9.618955">
        <ele>173.9231</ele>
        <time>2022-06-01T05:43:13.758Z</time>
      </trkpt>
      <trkpt lat="49.76742195" lon="9.61834973">
        <ele>173.6154</ele>
        <time>2022-06-01T05:43:25.271Z</time>
      </trkpt>
      <trkpt lat="49.76760417" lon="9.61783139">
        <ele>173.3077</ele>
        <time>2022-06-01T05:43:34.268Z</time>
      </trkpt>
      <trkpt lat="49.76788751" lon="9.61678973">
        <ele>173.0769</ele>
        <time>2022-06-01T05:43:51.504Z</time>
      </trkpt>
      <trkpt lat="49.76808" lon="9.61615473">
        <ele>173.0769</ele>
        <time>2022-06-01T05:44:02.2Z</time>
      </trkpt>
      <trkpt lat="49.76827501" lon="9.61534806">
        <ele>173.6154</ele>
        <time>2022-06-01T05:44:15.335Z</time>
      </trkpt>
      <trkpt lat="49.76837084" lon="9.61467806">
        <ele>174.3077</ele>
        <time>2022-06-01T05:44:25.802Z</time>
      </trkpt>
      <trkpt lat="49.76835417" lon="9.61411834">
        <ele>175.3077</ele>
        <time>2022-06-01T05:44:34.35Z</time>
      </trkpt>
      <trkpt lat="49.76824556" lon="9.61344556">
        <ele>176.3846</ele>
        <time>2022-06-01T05:44:44.928Z</time>
      </trkpt>
      <trkpt lat="49.76825223" lon="9.61345584">
        <ele>176.4174</ele>
        <time>2022-06-01T05:44:45.15Z</time>
      </trkpt>
      <trkpt lat="49.76848528" lon="9.61243834">
        <ele>178.8462</ele>
        <time>2022-06-01T05:45:01.614Z</time>
      </trkpt>
      <trkpt lat="49.76864806" lon="9.61166001">
        <ele>179.5385</ele>
        <time>2022-06-01T05:45:14.091Z</time>
      </trkpt>
      <trkpt lat="49.76882167" lon="9.61068223">
        <ele>180.2308</ele>
        <time>2022-06-01T05:45:29.558Z</time>
      </trkpt>
      <trkpt lat="49.76903001" lon="9.60976556">
        <ele>180.9231</ele>
        <time>2022-06-01T05:45:44.378Z</time>
      </trkpt>
      <trkpt lat="49.76916389" lon="9.609205">
        <ele>181.5385</ele>
        <time>2022-06-01T05:45:53.492Z</time>
      </trkpt>
      <trkpt lat="49.76961862" lon="9.60794917">
        <ele>182.3846</ele>
        <time>2022-06-01T05:46:15.44Z</time>
      </trkpt>
      <trkpt lat="49.76999251" lon="9.60700778">
        <ele>183.2308</ele>
        <time>2022-06-01T05:46:32.286Z</time>
      </trkpt>
      <trkpt lat="49.77039278" lon="9.60607695">
        <ele>184</ele>
        <time>2022-06-01T05:46:49.33Z</time>
      </trkpt>
      <trkpt lat="49.77116778" lon="9.60401139">
        <ele>184.4615</ele>
        <time>2022-06-01T05:47:25.745Z</time>
      </trkpt>
      <trkpt lat="49.77226778" lon="9.6015325">
        <ele>184.8462</ele>
        <time>2022-06-01T05:48:11.583Z</time>
      </trkpt>
      <trkpt lat="49.77264251" lon="9.60044862">
        <ele>185.3077</ele>
        <time>2022-06-01T05:48:30.325Z</time>
      </trkpt>
      <trkpt lat="49.77278278" lon="9.60007389">
        <ele>185.7692</ele>
        <time>2022-06-01T05:48:36.92Z</time>
      </trkpt>
      <trkpt lat="49.77298195" lon="9.59849945">
        <ele>186.0769</ele>
        <time>2022-06-01T05:49:01.39Z</time>
      </trkpt>
      <trkpt lat="49.77315917" lon="9.59734195">
        <ele>186.4615</ele>
        <time>2022-06-01T05:49:19.533Z</time>
      </trkpt>
      <trkpt lat="49.77320889" lon="9.59663056">
        <ele>187.3846</ele>
        <time>2022-06-01T05:49:30.447Z</time>
      </trkpt>
      <trkpt lat="49.77335028" lon="9.59479084">
        <ele>189.2308</ele>
        <time>2022-06-01T05:49:58.707Z</time>
      </trkpt>
      <trkpt lat="49.7733675" lon="9.592675">
        <ele>191</ele>
        <time>2022-06-01T05:50:30.984Z</time>
      </trkpt>
      <trkpt lat="49.77341667" lon="9.59082389">
        <ele>192.6154</ele>
        <time>2022-06-01T05:50:59.244Z</time>
      </trkpt>
      <trkpt lat="49.77351556" lon="9.58945195">
        <ele>194</ele>
        <time>2022-06-01T05:51:20.301Z</time>
      </trkpt>
      <trkpt lat="49.77352362" lon="9.58919778">
        <ele>195.3846</ele>
        <time>2022-06-01T05:51:24.177Z</time>
      </trkpt>
      <trkpt lat="49.77362417" lon="9.58759389">
        <ele>196.3846</ele>
        <time>2022-06-01T05:51:48.757Z</time>
      </trkpt>
      <trkpt lat="49.7736525" lon="9.58582806">
        <ele>197.3077</ele>
        <time>2022-06-01T05:52:15.701Z</time>
      </trkpt>
      <trkpt lat="49.77367389" lon="9.58489278">
        <ele>198.0769</ele>
        <time>2022-06-01T05:52:29.976Z</time>
      </trkpt>
      <trkpt lat="49.77370389" lon="9.58416639">
        <ele>198.5385</ele>
        <time>2022-06-01T05:52:41.079Z</time>
      </trkpt>
      <trkpt lat="49.77373167" lon="9.58385695">
        <ele>198.8462</ele>
        <time>2022-06-01T05:52:45.838Z</time>
      </trkpt>
      <trkpt lat="49.77388139" lon="9.58363417">
        <ele>199.0769</ele>
        <time>2022-06-01T05:52:50.732Z</time>
      </trkpt>
      <trkpt lat="49.7738325" lon="9.58350195">
        <ele>199.3077</ele>
        <time>2022-06-01T05:52:53.052Z</time>
      </trkpt>
      <trkpt lat="49.77377723" lon="9.58335362">
        <ele>199.2308</ele>
        <time>2022-06-01T05:52:55.66Z</time>
      </trkpt>
      <trkpt lat="49.77399917" lon="9.58247584">
        <ele>197.9231</ele>
        <time>2022-06-01T05:53:10.034Z</time>
      </trkpt>
      <trkpt lat="49.77411362" lon="9.58195834">
        <ele>196.4615</ele>
        <time>2022-06-01T05:53:18.375Z</time>
      </trkpt>
      <trkpt lat="49.774175" lon="9.58154195">
        <ele>195.2308</ele>
        <time>2022-06-01T05:53:24.889Z</time>
      </trkpt>
      <trkpt lat="49.77412473" lon="9.58105306">
        <ele>194.0769</ele>
        <time>2022-06-01T05:53:32.44Z</time>
      </trkpt>
      <trkpt lat="49.77405417" lon="9.58066556">
        <ele>192.8462</ele>
        <time>2022-06-01T05:53:38.572Z</time>
      </trkpt>
      <trkpt lat="49.77382056" lon="9.57995056">
        <ele>191.7692</ele>
        <time>2022-06-01T05:53:50.788Z</time>
      </trkpt>
      <trkpt lat="49.77342334" lon="9.57906084">
        <ele>190.6923</ele>
        <time>2022-06-01T05:54:07.272Z</time>
      </trkpt>
      <trkpt lat="49.77348723" lon="9.57885806">
        <ele>189.3846</ele>
        <time>2022-06-01T05:54:10.708Z</time>
      </trkpt>
      <trkpt lat="49.77350084" lon="9.57869556">
        <ele>188</ele>
        <time>2022-06-01T05:54:13.204Z</time>
      </trkpt>
      <trkpt lat="49.77347834" lon="9.57860862">
        <ele>187.1106</ele>
        <time>2022-06-01T05:54:14.63Z</time>
      </trkpt>
      <trkpt lat="49.77337945" lon="9.57857195">
        <ele>185.6154</ele>
        <time>2022-06-01T05:54:17.025Z</time>
      </trkpt>
      <trkpt lat="49.77330751" lon="9.57854084">
        <ele>184.3268</ele>
        <time>2022-06-01T05:54:18.784Z</time>
      </trkpt>
      <trkpt lat="49.77325195" lon="9.57839723">
        <ele>182.4615</ele>
        <time>2022-06-01T05:54:21.333Z</time>
      </trkpt>
      <trkpt lat="49.77328528" lon="9.57769056">
        <ele>181.3846</ele>
        <time>2022-06-01T05:54:32.141Z</time>
      </trkpt>
      <trkpt lat="49.77332028" lon="9.57715028">
        <ele>180.4615</ele>
        <time>2022-06-01T05:54:40.423Z</time>
      </trkpt>
      <trkpt lat="49.77320834" lon="9.57682">
        <ele>179.1538</ele>
        <time>2022-06-01T05:54:46.103Z</time>
      </trkpt>
      <trkpt lat="49.77318778" lon="9.57691139">
        <ele>178.8762</ele>
        <time>2022-06-01T05:54:47.577Z</time>
      </trkpt>
      <trkpt lat="49.77281889" lon="9.57586723">
        <ele>175.4615</ele>
        <time>2022-06-01T05:55:05.72Z</time>
      </trkpt>
      <trkpt lat="49.77331612" lon="9.57520889">
        <ele>173.4615</ele>
        <time>2022-06-01T05:55:21.147Z</time>
      </trkpt>
      <trkpt lat="49.77339389" lon="9.57488667">
        <ele>171.2308</ele>
        <time>2022-06-01T05:55:26.386Z</time>
      </trkpt>
      <trkpt lat="49.77337862" lon="9.57426806">
        <ele>169.1538</ele>
        <time>2022-06-01T05:55:35.829Z</time>
      </trkpt>
      <trkpt lat="49.77338001" lon="9.57336806">
        <ele>167.1538</ele>
        <time>2022-06-01T05:55:49.558Z</time>
      </trkpt>
      <trkpt lat="49.77332389" lon="9.57194806">
        <ele>165.1538</ele>
        <time>2022-06-01T05:56:11.259Z</time>
      </trkpt>
      <trkpt lat="49.77319112" lon="9.57076889">
        <ele>163.2308</ele>
        <time>2022-06-01T05:56:29.516Z</time>
      </trkpt>
      <trkpt lat="49.77301" lon="9.57035139">
        <ele>161.9231</ele>
        <time>2022-06-01T05:56:37.181Z</time>
      </trkpt>
      <trkpt lat="49.7728" lon="9.57002">
        <ele>160.5385</ele>
        <time>2022-06-01T05:56:44.248Z</time>
      </trkpt>
      <trkpt lat="49.77301362" lon="9.56958834">
        <ele>159.0769</ele>
        <time>2022-06-01T05:56:52.535Z</time>
      </trkpt>
      <trkpt lat="49.77335001" lon="9.56890806">
        <ele>157.6154</ele>
        <time>2022-06-01T05:57:05.591Z</time>
      </trkpt>
      <trkpt lat="49.77313195" lon="9.56847806">
        <ele>156.2308</ele>
        <time>2022-06-01T05:57:13.922Z</time>
      </trkpt>
      <trkpt lat="49.77293028" lon="9.56638723">
        <ele>155</ele>
        <time>2022-06-01T05:57:46.167Z</time>
      </trkpt>
      <trkpt lat="49.77264112" lon="9.56394806">
        <ele>154.0769</ele>
        <time>2022-06-01T05:58:23.992Z</time>
      </trkpt>
      <trkpt lat="49.77235973" lon="9.56259278">
        <ele>153.0769</ele>
        <time>2022-06-01T05:58:45.702Z</time>
      </trkpt>
      <trkpt lat="49.7722025" lon="9.56202084">
        <ele>152.2308</ele>
        <time>2022-06-01T05:58:55.18Z</time>
      </trkpt>
      <trkpt lat="49.77200362" lon="9.56189001">
        <ele>151.2308</ele>
        <time>2022-06-01T05:59:00.271Z</time>
      </trkpt>
      <trkpt lat="49.77160612" lon="9.56203889">
        <ele>150.3846</ele>
        <time>2022-06-01T05:59:09.904Z</time>
      </trkpt>
      <trkpt lat="49.77095723" lon="9.56225862">
        <ele>149.4615</ele>
        <time>2022-06-01T05:59:25.55Z</time>
      </trkpt>
      <trkpt lat="49.77039112" lon="9.56244556">
        <ele>148.5385</ele>
        <time>2022-06-01T05:59:39.185Z</time>
      </trkpt>
      <trkpt lat="49.76935667" lon="9.56250445">
        <ele>147.6154</ele>
        <time>2022-06-01T06:00:03.566Z</time>
      </trkpt>
      <trkpt lat="49.76933834" lon="9.5617325">
        <ele>146.5385</ele>
        <time>2022-06-01T06:00:15.35Z</time>
      </trkpt>
      <trkpt lat="49.76930778" lon="9.56115862">
        <ele>145.5385</ele>
        <time>2022-06-01T06:00:24.134Z</time>
      </trkpt>
      <trkpt lat="49.76909584" lon="9.56063389">
        <ele>144.6923</ele>
        <time>2022-06-01T06:00:33.568Z</time>
      </trkpt>
      <trkpt lat="49.76886862" lon="9.56026751">
        <ele>144.0769</ele>
        <time>2022-06-01T06:00:41.301Z</time>
      </trkpt>
      <trkpt lat="49.76850639" lon="9.56002584">
        <ele>143.7692</ele>
        <time>2022-06-01T06:00:50.593Z</time>
      </trkpt>
      <trkpt lat="49.76675862" lon="9.55992834">
        <ele>142.4615</ele>
        <time>2022-06-01T06:01:31.786Z</time>
      </trkpt>
      <trkpt lat="49.76452028" lon="9.56050862">
        <ele>142.2308</ele>
        <time>2022-06-01T06:02:25.245Z</time>
      </trkpt>
      <trkpt lat="49.76350667" lon="9.56079417">
        <ele>142.3077</ele>
        <time>2022-06-01T06:02:49.512Z</time>
      </trkpt>
      <trkpt lat="49.76226139" lon="9.56141834">
        <ele>142.6923</ele>
        <time>2022-06-01T06:03:20.35Z</time>
      </trkpt>
      <trkpt lat="49.76121834" lon="9.56217751">
        <ele>142.8462</ele>
        <time>2022-06-01T06:03:47.511Z</time>
      </trkpt>
      <trkpt lat="49.76021445" lon="9.56291001">
        <ele>143</ele>
        <time>2022-06-01T06:04:13.664Z</time>
      </trkpt>
      <trkpt lat="49.75877139" lon="9.56431112">
        <ele>143.0769</ele>
        <time>2022-06-01T06:04:53.817Z</time>
      </trkpt>
      <trkpt lat="49.75767889" lon="9.56536806">
        <ele>143.1538</ele>
        <time>2022-06-01T06:05:24.185Z</time>
      </trkpt>
      <trkpt lat="49.75780612" lon="9.56583278">
        <ele>143.3846</ele>
        <time>2022-06-01T06:05:31.883Z</time>
      </trkpt>
      <trkpt lat="49.75696195" lon="9.56668973">
        <ele>143.6154</ele>
        <time>2022-06-01T06:05:55.68Z</time>
      </trkpt>
      <trkpt lat="49.75672695" lon="9.56688889">
        <ele>143.6923</ele>
        <time>2022-06-01T06:06:01.992Z</time>
      </trkpt>
      <trkpt lat="49.75598973" lon="9.56754056">
        <ele>143.6923</ele>
        <time>2022-06-01T06:06:22.002Z</time>
      </trkpt>
      <trkpt lat="49.75564639" lon="9.56780889">
        <ele>143.8462</ele>
        <time>2022-06-01T06:06:31.064Z</time>
      </trkpt>
      <trkpt lat="49.75555695" lon="9.56755695">
        <ele>144.8462</ele>
        <time>2022-06-01T06:06:35.443Z</time>
      </trkpt>
      <trkpt lat="49.75554723" lon="9.56752612">
        <ele>144.7692</ele>
        <time>2022-06-01T06:06:35.966Z</time>
      </trkpt>
      <trkpt lat="49.75543528" lon="9.56756223">
        <ele>144.2308</ele>
        <time>2022-06-01T06:06:38.66Z</time>
      </trkpt>
      <trkpt lat="49.75503917" lon="9.56794334">
        <ele>143.9231</ele>
        <time>2022-06-01T06:06:49.65Z</time>
      </trkpt>
      <trkpt lat="49.75436862" lon="9.56847695">
        <ele>143.6923</ele>
        <time>2022-06-01T06:07:07.419Z</time>
      </trkpt>
      <trkpt lat="49.75387445" lon="9.56887862">
        <ele>143.4615</ele>
        <time>2022-06-01T06:07:20.57Z</time>
      </trkpt>
      <trkpt lat="49.75235639" lon="9.57003639">
        <ele>143.2308</ele>
        <time>2022-06-01T06:08:00.452Z</time>
      </trkpt>
      <trkpt lat="49.75172528" lon="9.57039917">
        <ele>143.0769</ele>
        <time>2022-06-01T06:08:16.312Z</time>
      </trkpt>
      <trkpt lat="49.75076612" lon="9.57063695">
        <ele>143</ele>
        <time>2022-06-01T06:08:39.192Z</time>
      </trkpt>
      <trkpt lat="49.75018473" lon="9.57065445">
        <ele>142.9231</ele>
        <time>2022-06-01T06:08:52.888Z</time>
      </trkpt>
      <trkpt lat="49.74969695" lon="9.57057723">
        <ele>142.6923</ele>
        <time>2022-06-01T06:09:04.437Z</time>
      </trkpt>
      <trkpt lat="49.7493475" lon="9.57028834">
        <ele>142.6923</ele>
        <time>2022-06-01T06:09:13.771Z</time>
      </trkpt>
      <trkpt lat="49.74868667" lon="9.57016639">
        <ele>142.6154</ele>
        <time>2022-06-01T06:09:29.446Z</time>
      </trkpt>
      <trkpt lat="49.74813806" lon="9.57014501">
        <ele>142.6923</ele>
        <time>2022-06-01T06:09:42.372Z</time>
      </trkpt>
      <trkpt lat="49.74800889" lon="9.57027612">
        <ele>142.9231</ele>
        <time>2022-06-01T06:09:46.012Z</time>
      </trkpt>
      <trkpt lat="49.74782167" lon="9.57018056">
        <ele>143.2308</ele>
        <time>2022-06-01T06:09:50.656Z</time>
      </trkpt>
      <trkpt lat="49.74699528" lon="9.56970889">
        <ele>143.5385</ele>
        <time>2022-06-01T06:10:11.409Z</time>
      </trkpt>
      <trkpt lat="49.74696445" lon="9.56935945">
        <ele>143.7692</ele>
        <time>2022-06-01T06:10:16.784Z</time>
      </trkpt>
      <trkpt lat="49.74691639" lon="9.56908389">
        <ele>144.2308</ele>
        <time>2022-06-01T06:10:21.134Z</time>
      </trkpt>
      <trkpt lat="49.74676806" lon="9.56888723">
        <ele>144.5385</ele>
        <time>2022-06-01T06:10:25.737Z</time>
      </trkpt>
      <trkpt lat="49.74594862" lon="9.56827195">
        <ele>144.9231</ele>
        <time>2022-06-01T06:10:47.201Z</time>
      </trkpt>
      <trkpt lat="49.74548084" lon="9.56815639">
        <ele>145.1538</ele>
        <time>2022-06-01T06:10:58.359Z</time>
      </trkpt>
      <trkpt lat="49.74474362" lon="9.56744251">
        <ele>145.3846</ele>
        <time>2022-06-01T06:11:18.858Z</time>
      </trkpt>
      <trkpt lat="49.74471667" lon="9.56700917">
        <ele>145.7692</ele>
        <time>2022-06-01T06:11:25.502Z</time>
      </trkpt>
      <trkpt lat="49.74455334" lon="9.56663639">
        <ele>146.1538</ele>
        <time>2022-06-01T06:11:32.364Z</time>
      </trkpt>
      <trkpt lat="49.74406028" lon="9.56577001">
        <ele>146.4615</ele>
        <time>2022-06-01T06:11:49.963Z</time>
      </trkpt>
      <trkpt lat="49.74372167" lon="9.5643275">
        <ele>146.6154</ele>
        <time>2022-06-01T06:12:13.38Z</time>
      </trkpt>
      <trkpt lat="49.7436825" lon="9.56370945">
        <ele>146.6923</ele>
        <time>2022-06-01T06:12:22.858Z</time>
      </trkpt>
      <trkpt lat="49.74363778" lon="9.56276084">
        <ele>147.0769</ele>
        <time>2022-06-01T06:12:37.375Z</time>
      </trkpt>
      <trkpt lat="49.74376778" lon="9.56045334">
        <ele>147.3846</ele>
        <time>2022-06-01T06:13:12.728Z</time>
      </trkpt>
      <trkpt lat="49.74402334" lon="9.55878973">
        <ele>147.6923</ele>
        <time>2022-06-01T06:13:38.824Z</time>
      </trkpt>
      <trkpt lat="49.74437556" lon="9.5576925">
        <ele>147.3846</ele>
        <time>2022-06-01T06:13:57.513Z</time>
      </trkpt>
      <trkpt lat="49.74414139" lon="9.55769056">
        <ele>146.9231</ele>
        <time>2022-06-01T06:14:03.029Z</time>
      </trkpt>
      <trkpt lat="49.74441889" lon="9.55692862">
        <ele>146.3077</ele>
        <time>2022-06-01T06:14:16.369Z</time>
      </trkpt>
      <trkpt lat="49.74490917" lon="9.55591001">
        <ele>145.9231</ele>
        <time>2022-06-01T06:14:35.735Z</time>
      </trkpt>
      <trkpt lat="49.74587806" lon="9.55465584">
        <ele>146.0769</ele>
        <time>2022-06-01T06:15:05.521Z</time>
      </trkpt>
      <trkpt lat="49.74700445" lon="9.55360862">
        <ele>145.7692</ele>
        <time>2022-06-01T06:15:36.494Z</time>
      </trkpt>
      <trkpt lat="49.74793278" lon="9.55290945">
        <ele>145.1538</ele>
        <time>2022-06-01T06:16:00.824Z</time>
      </trkpt>
      <trkpt lat="49.74918917" lon="9.5523925">
        <ele>144.5385</ele>
        <time>2022-06-01T06:16:31.45Z</time>
      </trkpt>
      <trkpt lat="49.75021723" lon="9.55210889">
        <ele>144.0769</ele>
        <time>2022-06-01T06:16:56.047Z</time>
      </trkpt>
      <trkpt lat="49.75237389" lon="9.55165862">
        <ele>143.6923</ele>
        <time>2022-06-01T06:17:47.306Z</time>
      </trkpt>
      <trkpt lat="49.75417473" lon="9.5510425">
        <ele>143.2308</ele>
        <time>2022-06-01T06:18:30.751Z</time>
      </trkpt>
      <trkpt lat="49.75452612" lon="9.55101">
        <ele>142.5385</ele>
        <time>2022-06-01T06:18:39.042Z</time>
      </trkpt>
      <trkpt lat="49.75490695" lon="9.55125389">
        <ele>141.8462</ele>
        <time>2022-06-01T06:18:48.751Z</time>
      </trkpt>
      <trkpt lat="49.75523417" lon="9.55129056">
        <ele>141.5385</ele>
        <time>2022-06-01T06:18:56.478Z</time>
      </trkpt>
      <trkpt lat="49.75541889" lon="9.55094362">
        <ele>141.5385</ele>
        <time>2022-06-01T06:19:03.325Z</time>
      </trkpt>
      <trkpt lat="49.75555084" lon="9.55061862">
        <ele>141.3846</ele>
        <time>2022-06-01T06:19:09.172Z</time>
      </trkpt>
      <trkpt lat="49.75614139" lon="9.55035473">
        <ele>141.0769</ele>
        <time>2022-06-01T06:19:23.651Z</time>
      </trkpt>
      <trkpt lat="49.75616834" lon="9.55031723">
        <ele>141.0577</ele>
        <time>2022-06-01T06:19:24.505Z</time>
      </trkpt>
      <trkpt lat="49.75884584" lon="9.54963556">
        <ele>139.6154</ele>
        <time>2022-06-01T06:20:28.421Z</time>
      </trkpt>
      <trkpt lat="49.75899528" lon="9.54953001">
        <ele>139.7692</ele>
        <time>2022-06-01T06:20:32.291Z</time>
      </trkpt>
      <trkpt lat="49.75930278" lon="9.54947223">
        <ele>139.8462</ele>
        <time>2022-06-01T06:20:39.587Z</time>
      </trkpt>
      <trkpt lat="49.75938389" lon="9.55015584">
        <ele>139.8462</ele>
        <time>2022-06-01T06:20:50.191Z</time>
      </trkpt>
      <trkpt lat="49.75942084" lon="9.55011001">
        <ele>139.8462</ele>
        <time>2022-06-01T06:20:51.307Z</time>
      </trkpt>
      <trkpt lat="49.75991" lon="9.54996306">
        <ele>139.7692</ele>
        <time>2022-06-01T06:21:03.044Z</time>
      </trkpt>
      <trkpt lat="49.76082389" lon="9.54951417">
        <ele>139.6923</ele>
        <time>2022-06-01T06:21:25.633Z</time>
      </trkpt>
      <trkpt lat="49.76141139" lon="9.54908639">
        <ele>140</ele>
        <time>2022-06-01T06:21:40.933Z</time>
      </trkpt>
      <trkpt lat="49.76273362" lon="9.54793">
        <ele>140.6154</ele>
        <time>2022-06-01T06:22:16.727Z</time>
      </trkpt>
      <trkpt lat="49.76348973" lon="9.54723889">
        <ele>141.2308</ele>
        <time>2022-06-01T06:22:37.423Z</time>
      </trkpt>
      <trkpt lat="49.76438612" lon="9.54614612">
        <ele>141.8462</ele>
        <time>2022-06-01T06:23:04.325Z</time>
      </trkpt>
      <trkpt lat="49.76524334" lon="9.54486028">
        <ele>142.3077</ele>
        <time>2022-06-01T06:23:32.476Z</time>
      </trkpt>
      <trkpt lat="49.76547751" lon="9.54435056">
        <ele>143.0769</ele>
        <time>2022-06-01T06:23:42.01Z</time>
      </trkpt>
      <trkpt lat="49.76551639" lon="9.54380889">
        <ele>143.5385</ele>
        <time>2022-06-01T06:23:50.324Z</time>
      </trkpt>
      <trkpt lat="49.76551362" lon="9.54267473">
        <ele>143.7692</ele>
        <time>2022-06-01T06:24:07.627Z</time>
      </trkpt>
      <trkpt lat="49.76546528" lon="9.54231584">
        <ele>144.1538</ele>
        <time>2022-06-01T06:24:13.212Z</time>
      </trkpt>
      <trkpt lat="49.76542056" lon="9.54129028">
        <ele>144.5385</ele>
        <time>2022-06-01T06:24:28.894Z</time>
      </trkpt>
      <trkpt lat="49.76569445" lon="9.540175">
        <ele>144.6923</ele>
        <time>2022-06-01T06:24:47.091Z</time>
      </trkpt>
      <trkpt lat="49.76580751" lon="9.53899028">
        <ele>144.7692</ele>
        <time>2022-06-01T06:25:05.36Z</time>
      </trkpt>
      <trkpt lat="49.76568945" lon="9.53743862">
        <ele>144.8462</ele>
        <time>2022-06-01T06:25:29.195Z</time>
      </trkpt>
      <trkpt lat="49.76529473" lon="9.53601167">
        <ele>144.5385</ele>
        <time>2022-06-01T06:25:52.867Z</time>
      </trkpt>
      <trkpt lat="49.76465056" lon="9.53479362">
        <ele>143.9231</ele>
        <time>2022-06-01T06:26:16.857Z</time>
      </trkpt>
      <trkpt lat="49.76373834" lon="9.53341695">
        <ele>143.3077</ele>
        <time>2022-06-01T06:26:46.903Z</time>
      </trkpt>
      <trkpt lat="49.76313167" lon="9.53247">
        <ele>142.6923</ele>
        <time>2022-06-01T06:27:07.223Z</time>
      </trkpt>
      <trkpt lat="49.76234112" lon="9.53114917">
        <ele>142.2308</ele>
        <time>2022-06-01T06:27:34.661Z</time>
      </trkpt>
      <trkpt lat="49.76197584" lon="9.53052167">
        <ele>141.6923</ele>
        <time>2022-06-01T06:27:47.533Z</time>
      </trkpt>
      <trkpt lat="49.761495" lon="9.52931306">
        <ele>141.3077</ele>
        <time>2022-06-01T06:28:09.174Z</time>
      </trkpt>
      <trkpt lat="49.76124001" lon="9.52860389">
        <ele>140.7692</ele>
        <time>2022-06-01T06:28:21.549Z</time>
      </trkpt>
      <trkpt lat="49.76126584" lon="9.52862362">
        <ele>140.6559</ele>
        <time>2022-06-01T06:28:22.228Z</time>
      </trkpt>
      <trkpt lat="49.76143028" lon="9.52843195">
        <ele>139.8462</ele>
        <time>2022-06-01T06:28:27.079Z</time>
      </trkpt>
      <trkpt lat="49.76155389" lon="9.52826889">
        <ele>139.5385</ele>
        <time>2022-06-01T06:28:30.906Z</time>
      </trkpt>
      <trkpt lat="49.76126695" lon="9.52752889">
        <ele>139.6154</ele>
        <time>2022-06-01T06:28:44.065Z</time>
      </trkpt>
      <trkpt lat="49.76090028" lon="9.52658723">
        <ele>139.6154</ele>
        <time>2022-06-01T06:29:00.828Z</time>
      </trkpt>
      <trkpt lat="49.76078723" lon="9.52625945">
        <ele>139.6154</ele>
        <time>2022-06-01T06:29:06.488Z</time>
      </trkpt>
      <trkpt lat="49.76068806" lon="9.52584556">
        <ele>139.5385</ele>
        <time>2022-06-01T06:29:13.221Z</time>
      </trkpt>
      <trkpt lat="49.76056834" lon="9.52511612">
        <ele>139.6923</ele>
        <time>2022-06-01T06:29:24.702Z</time>
      </trkpt>
      <trkpt lat="49.76047862" lon="9.52453417">
        <ele>140.1538</ele>
        <time>2022-06-01T06:29:33.829Z</time>
      </trkpt>
      <trkpt lat="49.76042889" lon="9.52382556">
        <ele>140.6923</ele>
        <time>2022-06-01T06:29:44.704Z</time>
      </trkpt>
      <trkpt lat="49.76038973" lon="9.52340723">
        <ele>141.0769</ele>
        <time>2022-06-01T06:29:51.153Z</time>
      </trkpt>
      <trkpt lat="49.76036223" lon="9.52283834">
        <ele>141.5385</ele>
        <time>2022-06-01T06:29:59.857Z</time>
      </trkpt>
      <trkpt lat="49.760355" lon="9.52246667">
        <ele>141.9231</ele>
        <time>2022-06-01T06:30:05.523Z</time>
      </trkpt>
      <trkpt lat="49.76034139" lon="9.52206667">
        <ele>142.3077</ele>
        <time>2022-06-01T06:30:11.626Z</time>
      </trkpt>
      <trkpt lat="49.76043167" lon="9.52168278">
        <ele>142.5385</ele>
        <time>2022-06-01T06:30:17.85Z</time>
      </trkpt>
      <trkpt lat="49.76041556" lon="9.52158556">
        <ele>142.9231</ele>
        <time>2022-06-01T06:30:19.379Z</time>
      </trkpt>
      <trkpt lat="49.76036889" lon="9.52131584">
        <ele>143</ele>
        <time>2022-06-01T06:30:23.633Z</time>
      </trkpt>
      <trkpt lat="49.76041862" lon="9.52103723">
        <ele>143.2308</ele>
        <time>2022-06-01T06:30:28.037Z</time>
      </trkpt>
      <trkpt lat="49.76043917" lon="9.52088223">
        <ele>143.5385</ele>
        <time>2022-06-01T06:30:30.448Z</time>
      </trkpt>
      <trkpt lat="49.76018695" lon="9.52065612">
        <ele>143.9231</ele>
        <time>2022-06-01T06:30:37.315Z</time>
      </trkpt>
      <trkpt lat="49.76022778" lon="9.52051389">
        <ele>144.1538</ele>
        <time>2022-06-01T06:30:39.686Z</time>
      </trkpt>
      <trkpt lat="49.76024917" lon="9.52026584">
        <ele>144.3846</ele>
        <time>2022-06-01T06:30:43.499Z</time>
      </trkpt>
      <trkpt lat="49.76027417" lon="9.52008001">
        <ele>144.5385</ele>
        <time>2022-06-01T06:30:46.391Z</time>
      </trkpt>
      <trkpt lat="49.76032362" lon="9.51954862">
        <ele>145</ele>
        <time>2022-06-01T06:30:54.582Z</time>
      </trkpt>
      <trkpt lat="49.76032306" lon="9.51962167">
        <ele>145.2308</ele>
        <time>2022-06-01T06:30:55.695Z</time>
      </trkpt>
      <trkpt lat="49.76028001" lon="9.51934251">
        <ele>145.6154</ele>
        <time>2022-06-01T06:31:00.068Z</time>
      </trkpt>
      <trkpt lat="49.76025389" lon="9.51896973">
        <ele>145.8462</ele>
        <time>2022-06-01T06:31:05.781Z</time>
      </trkpt>
      <trkpt lat="49.76017584" lon="9.51808223">
        <ele>145.8462</ele>
        <time>2022-06-01T06:31:19.447Z</time>
      </trkpt>
      <trkpt lat="49.76008584" lon="9.51715112">
        <ele>145.5385</ele>
        <time>2022-06-01T06:31:33.811Z</time>
      </trkpt>
      <trkpt lat="49.76001806" lon="9.51657695">
        <ele>145.2308</ele>
        <time>2022-06-01T06:31:42.716Z</time>
      </trkpt>
      <trkpt lat="49.75994834" lon="9.51578528">
        <ele>145.2308</ele>
        <time>2022-06-01T06:31:54.906Z</time>
      </trkpt>
      <trkpt lat="49.75989362" lon="9.51552417">
        <ele>145.1538</ele>
        <time>2022-06-01T06:31:59.088Z</time>
      </trkpt>
      <trkpt lat="49.75994445" lon="9.5158125">
        <ele>145.1538</ele>
        <time>2022-06-01T06:32:03.641Z</time>
      </trkpt>
      <trkpt lat="49.75970389" lon="9.51443501">
        <ele>145.3077</ele>
        <time>2022-06-01T06:32:25.409Z</time>
      </trkpt>
      <trkpt lat="49.75839556" lon="9.51534528">
        <ele>145.3077</ele>
        <time>2022-06-01T06:32:59.21Z</time>
      </trkpt>
      <trkpt lat="49.75766445" lon="9.51591667">
        <ele>145.2308</ele>
        <time>2022-06-01T06:33:18.511Z</time>
      </trkpt>
      <trkpt lat="49.75718695" lon="9.51630362">
        <ele>145</ele>
        <time>2022-06-01T06:33:31.21Z</time>
      </trkpt>
      <trkpt lat="49.75688251" lon="9.51654806">
        <ele>144.7692</ele>
        <time>2022-06-01T06:33:39.29Z</time>
      </trkpt>
      <trkpt lat="49.75656278" lon="9.51669806">
        <ele>144.9231</ele>
        <time>2022-06-01T06:33:47.16Z</time>
      </trkpt>
      <trkpt lat="49.75602584" lon="9.51688334">
        <ele>145.4615</ele>
        <time>2022-06-01T06:34:00.118Z</time>
      </trkpt>
      <trkpt lat="49.75531195" lon="9.51703528">
        <ele>146.4615</ele>
        <time>2022-06-01T06:34:17.091Z</time>
      </trkpt>
      <trkpt lat="49.75477223" lon="9.51699584">
        <ele>147.7692</ele>
        <time>2022-06-01T06:34:29.817Z</time>
      </trkpt>
      <trkpt lat="49.75402889" lon="9.51678501">
        <ele>148.8462</ele>
        <time>2022-06-01T06:34:47.617Z</time>
      </trkpt>
      <trkpt lat="49.75314084" lon="9.5161275">
        <ele>149.2308</ele>
        <time>2022-06-01T06:35:10.816Z</time>
      </trkpt>
      <trkpt lat="49.75208556" lon="9.51471528">
        <ele>149.6923</ele>
        <time>2022-06-01T06:35:43.713Z</time>
      </trkpt>
      <trkpt lat="49.75156084" lon="9.51377028">
        <ele>150.1538</ele>
        <time>2022-06-01T06:36:02.706Z</time>
      </trkpt>
      <trkpt lat="49.75092334" lon="9.51298723">
        <ele>150.5385</ele>
        <time>2022-06-01T06:36:21.896Z</time>
      </trkpt>
      <trkpt lat="49.74956195" lon="9.51103973">
        <ele>151</ele>
        <time>2022-06-01T06:37:05.617Z</time>
      </trkpt>
      <trkpt lat="49.74839945" lon="9.50990556">
        <ele>151.3077</ele>
        <time>2022-06-01T06:37:38.01Z</time>
      </trkpt>
      <trkpt lat="49.74794028" lon="9.50947834">
        <ele>151.4615</ele>
        <time>2022-06-01T06:37:50.638Z</time>
      </trkpt>
      <trkpt lat="49.74758389" lon="9.50916195">
        <ele>152</ele>
        <time>2022-06-01T06:38:00.319Z</time>
      </trkpt>
      <trkpt lat="49.74738223" lon="9.50908001">
        <ele>152.1538</ele>
        <time>2022-06-01T06:38:05.23Z</time>
      </trkpt>
      <trkpt lat="49.74722278" lon="9.50870251">
        <ele>152.1538</ele>
        <time>2022-06-01T06:38:12.101Z</time>
      </trkpt>
      <trkpt lat="49.74702612" lon="9.50848612">
        <ele>152</ele>
        <time>2022-06-01T06:38:17.787Z</time>
      </trkpt>
      <trkpt lat="49.74680334" lon="9.50881862">
        <ele>152.2308</ele>
        <time>2022-06-01T06:38:25.082Z</time>
      </trkpt>
      <trkpt lat="49.74615001" lon="9.50914917">
        <ele>153</ele>
        <time>2022-06-01T06:38:41.274Z</time>
      </trkpt>
      <trkpt lat="49.74569834" lon="9.50937139">
        <ele>154.6923</ele>
        <time>2022-06-01T06:38:52.438Z</time>
      </trkpt>
      <trkpt lat="49.74536667" lon="9.50962723">
        <ele>156.3077</ele>
        <time>2022-06-01T06:39:01.169Z</time>
      </trkpt>
      <trkpt lat="49.744735" lon="9.51014528">
        <ele>158.1538</ele>
        <time>2022-06-01T06:39:18.017Z</time>
      </trkpt>
      <trkpt lat="49.74368306" lon="9.51120639">
        <ele>158.6923</ele>
        <time>2022-06-01T06:39:47.617Z</time>
      </trkpt>
      <trkpt lat="49.74262223" lon="9.51275612">
        <ele>159</ele>
        <time>2022-06-01T06:40:22.024Z</time>
      </trkpt>
      <trkpt lat="49.74211695" lon="9.51392528">
        <ele>159.4615</ele>
        <time>2022-06-01T06:40:43.474Z</time>
      </trkpt>
      <trkpt lat="49.74186028" lon="9.51462223">
        <ele>159.6923</ele>
        <time>2022-06-01T06:40:55.71Z</time>
      </trkpt>
      <trkpt lat="49.74170278" lon="9.51513056">
        <ele>159.3077</ele>
        <time>2022-06-01T06:41:04.31Z</time>
      </trkpt>
      <trkpt lat="49.74182834" lon="9.51536389">
        <ele>158.8462</ele>
        <time>2022-06-01T06:41:08.935Z</time>
      </trkpt>
      <trkpt lat="49.74223084" lon="9.51565667">
        <ele>158.0769</ele>
        <time>2022-06-01T06:41:19.413Z</time>
      </trkpt>
      <trkpt lat="49.74236223" lon="9.51586834">
        <ele>157.4615</ele>
        <time>2022-06-01T06:41:23.884Z</time>
      </trkpt>
      <trkpt lat="49.74242556" lon="9.51620639">
        <ele>156.3846</ele>
        <time>2022-06-01T06:41:29.248Z</time>
      </trkpt>
      <trkpt lat="49.74261223" lon="9.51690528">
        <ele>155.2308</ele>
        <time>2022-06-01T06:41:40.786Z</time>
      </trkpt>
      <trkpt lat="49.74353862" lon="9.518685">
        <ele>153.9231</ele>
        <time>2022-06-01T06:42:15.629Z</time>
      </trkpt>
      <trkpt lat="49.74390862" lon="9.51924862">
        <ele>152.9231</ele>
        <time>2022-06-01T06:42:27.874Z</time>
      </trkpt>
      <trkpt lat="49.74422667" lon="9.51967195">
        <ele>151.6154</ele>
        <time>2022-06-01T06:42:37.767Z</time>
      </trkpt>
      <trkpt lat="49.74444639" lon="9.52000528">
        <ele>151.5385</ele>
        <time>2022-06-01T06:42:45.019Z</time>
      </trkpt>
      <trkpt lat="49.74448028" lon="9.52057612">
        <ele>151.5385</ele>
        <time>2022-06-01T06:42:53.768Z</time>
      </trkpt>
      <trkpt lat="49.74424584" lon="9.52101001">
        <ele>151.6923</ele>
        <time>2022-06-01T06:43:02.391Z</time>
      </trkpt>
      <trkpt lat="49.74391334" lon="9.52158639">
        <ele>152.2308</ele>
        <time>2022-06-01T06:43:14.169Z</time>
      </trkpt>
      <trkpt lat="49.74384667" lon="9.52199639">
        <ele>153.2308</ele>
        <time>2022-06-01T06:43:20.621Z</time>
      </trkpt>
      <trkpt lat="49.74396778" lon="9.52266528">
        <ele>154.0769</ele>
        <time>2022-06-01T06:43:31.221Z</time>
      </trkpt>
      <trkpt lat="49.74398278" lon="9.52305806">
        <ele>154.8462</ele>
        <time>2022-06-01T06:43:37.218Z</time>
      </trkpt>
      <trkpt lat="49.74398612" lon="9.52292612">
        <ele>155.0769</ele>
        <time>2022-06-01T06:43:39.231Z</time>
      </trkpt>
      <trkpt lat="49.74396417" lon="9.52317473">
        <ele>155.3077</ele>
        <time>2022-06-01T06:43:43.055Z</time>
      </trkpt>
      <trkpt lat="49.74379528" lon="9.52418112">
        <ele>155.3846</ele>
        <time>2022-06-01T06:43:58.922Z</time>
      </trkpt>
      <trkpt lat="49.74365167" lon="9.52455667">
        <ele>155</ele>
        <time>2022-06-01T06:44:05.571Z</time>
      </trkpt>
      <trkpt lat="49.74329001" lon="9.52503889">
        <ele>154.3077</ele>
        <time>2022-06-01T06:44:16.829Z</time>
      </trkpt>
      <trkpt lat="49.74301195" lon="9.52517695">
        <ele>153.5385</ele>
        <time>2022-06-01T06:44:23.708Z</time>
      </trkpt>
      <trkpt lat="49.74227889" lon="9.52525612">
        <ele>152.7692</ele>
        <time>2022-06-01T06:44:41.016Z</time>
      </trkpt>
      <trkpt lat="49.74183445" lon="9.52518778">
        <ele>152.2308</ele>
        <time>2022-06-01T06:44:51.536Z</time>
      </trkpt>
      <trkpt lat="49.74143862" lon="9.52505167">
        <ele>151.7692</ele>
        <time>2022-06-01T06:45:01.087Z</time>
      </trkpt>
      <trkpt lat="49.74063889" lon="9.5245375">
        <ele>151.2308</ele>
        <time>2022-06-01T06:45:21.493Z</time>
      </trkpt>
      <trkpt lat="49.74002389" lon="9.52415056">
        <ele>150.9231</ele>
        <time>2022-06-01T06:45:37.133Z</time>
      </trkpt>
      <trkpt lat="49.73962556" lon="9.52378223">
        <ele>150.8462</ele>
        <time>2022-06-01T06:45:48.067Z</time>
      </trkpt>
      <trkpt lat="49.73900723" lon="9.52266223">
        <ele>151.0769</ele>
        <time>2022-06-01T06:46:10.526Z</time>
      </trkpt>
      <trkpt lat="49.73842362" lon="9.52133334">
        <ele>151.6154</ele>
        <time>2022-06-01T06:46:35.03Z</time>
      </trkpt>
      <trkpt lat="49.73729445" lon="9.51925139">
        <ele>151.8462</ele>
        <time>2022-06-01T06:47:16.471Z</time>
      </trkpt>
      <trkpt lat="49.73636751" lon="9.5182025">
        <ele>152.0769</ele>
        <time>2022-06-01T06:47:43.546Z</time>
      </trkpt>
      <trkpt lat="49.73622195" lon="9.51780195">
        <ele>152.2308</ele>
        <time>2022-06-01T06:47:50.549Z</time>
      </trkpt>
      <trkpt lat="49.73568445" lon="9.51735389">
        <ele>152.3846</ele>
        <time>2022-06-01T06:48:04.938Z</time>
      </trkpt>
      <trkpt lat="49.73528473" lon="9.51705139">
        <ele>152.6154</ele>
        <time>2022-06-01T06:48:15.421Z</time>
      </trkpt>
      <trkpt lat="49.73497778" lon="9.51683584">
        <ele>152.8462</ele>
        <time>2022-06-01T06:48:23.362Z</time>
      </trkpt>
      <trkpt lat="49.73394612" lon="9.51651306">
        <ele>152.8462</ele>
        <time>2022-06-01T06:48:48.154Z</time>
      </trkpt>
      <trkpt lat="49.73281751" lon="9.51675556">
        <ele>152.7692</ele>
        <time>2022-06-01T06:49:14.992Z</time>
      </trkpt>
      <trkpt lat="49.73245306" lon="9.51709278">
        <ele>152.7692</ele>
        <time>2022-06-01T06:49:24.998Z</time>
      </trkpt>
      <trkpt lat="49.73219139" lon="9.51743445">
        <ele>152.3077</ele>
        <time>2022-06-01T06:49:33.068Z</time>
      </trkpt>
      <trkpt lat="49.73189751" lon="9.51775445">
        <ele>151.7692</ele>
        <time>2022-06-01T06:49:41.536Z</time>
      </trkpt>
      <trkpt lat="49.73159084" lon="9.51811001">
        <ele>151.2308</ele>
        <time>2022-06-01T06:49:50.567Z</time>
      </trkpt>
      <trkpt lat="49.731505" lon="9.51859362">
        <ele>151.0769</ele>
        <time>2022-06-01T06:49:58.222Z</time>
      </trkpt>
      <trkpt lat="49.73136028" lon="9.51949723">
        <ele>151.4615</ele>
        <time>2022-06-01T06:50:12.432Z</time>
      </trkpt>
      <trkpt lat="49.73120945" lon="9.52028362">
        <ele>151.9231</ele>
        <time>2022-06-01T06:50:24.952Z</time>
      </trkpt>
      <trkpt lat="49.73073167" lon="9.52162806">
        <ele>152.4615</ele>
        <time>2022-06-01T06:50:48.36Z</time>
      </trkpt>
      <trkpt lat="49.73035278" lon="9.52334501">
        <ele>153</ele>
        <time>2022-06-01T06:51:16.051Z</time>
      </trkpt>
      <trkpt lat="49.73002445" lon="9.52454556">
        <ele>153.0769</ele>
        <time>2022-06-01T06:51:35.945Z</time>
      </trkpt>
      <trkpt lat="49.72947695" lon="9.52661612">
        <ele>153.3846</ele>
        <time>2022-06-01T06:52:10.086Z</time>
      </trkpt>
      <trkpt lat="49.72897417" lon="9.52776417">
        <ele>153.6154</ele>
        <time>2022-06-01T06:52:31.239Z</time>
      </trkpt>
      <trkpt lat="49.72840278" lon="9.52864584">
        <ele>153.8462</ele>
        <time>2022-06-01T06:52:50.274Z</time>
      </trkpt>
      <trkpt lat="49.72827389" lon="9.52885639">
        <ele>154.2308</ele>
        <time>2022-06-01T06:52:54.692Z</time>
      </trkpt>
      <trkpt lat="49.72806667" lon="9.52924945">
        <ele>154.7692</ele>
        <time>2022-06-01T06:53:02.421Z</time>
      </trkpt>
      <trkpt lat="49.72776695" lon="9.52969028">
        <ele>155.1538</ele>
        <time>2022-06-01T06:53:12.175Z</time>
      </trkpt>
      <trkpt lat="49.72742278" lon="9.53012556">
        <ele>155.5385</ele>
        <time>2022-06-01T06:53:22.657Z</time>
      </trkpt>
      <trkpt lat="49.72722417" lon="9.5298775">
        <ele>155.7692</ele>
        <time>2022-06-01T06:53:28.673Z</time>
      </trkpt>
      <trkpt lat="49.72659528" lon="9.52949806">
        <ele>155.9231</ele>
        <time>2022-06-01T06:53:44.575Z</time>
      </trkpt>
      <trkpt lat="49.72643667" lon="9.52920167">
        <ele>155.6923</ele>
        <time>2022-06-01T06:53:50.438Z</time>
      </trkpt>
      <trkpt lat="49.72544223" lon="9.52856639">
        <ele>155.3077</ele>
        <time>2022-06-01T06:54:15.789Z</time>
      </trkpt>
      <trkpt lat="49.72476612" lon="9.52804056">
        <ele>154.9231</ele>
        <time>2022-06-01T06:54:33.623Z</time>
      </trkpt>
      <trkpt lat="49.72424917" lon="9.52746723">
        <ele>155</ele>
        <time>2022-06-01T06:54:48.619Z</time>
      </trkpt>
      <trkpt lat="49.72342473" lon="9.52655167">
        <ele>154.6923</ele>
        <time>2022-06-01T06:55:12.546Z</time>
      </trkpt>
      <trkpt lat="49.72216862" lon="9.52521751">
        <ele>154.6923</ele>
        <time>2022-06-01T06:55:48.467Z</time>
      </trkpt>
      <trkpt lat="49.72141806" lon="9.52471501">
        <ele>154.4615</ele>
        <time>2022-06-01T06:56:07.739Z</time>
      </trkpt>
      <trkpt lat="49.721165" lon="9.52459778">
        <ele>154.0769</ele>
        <time>2022-06-01T06:56:13.962Z</time>
      </trkpt>
      <trkpt lat="49.72079139" lon="9.5244275">
        <ele>153.8462</ele>
        <time>2022-06-01T06:56:23.137Z</time>
      </trkpt>
      <trkpt lat="49.7199975" lon="9.52438473">
        <ele>153.9231</ele>
        <time>2022-06-01T06:56:41.847Z</time>
      </trkpt>
      <trkpt lat="49.71907667" lon="9.52449667">
        <ele>154.0769</ele>
        <time>2022-06-01T06:57:03.603Z</time>
      </trkpt>
      <trkpt lat="49.71843223" lon="9.52472362">
        <ele>154.0769</ele>
        <time>2022-06-01T06:57:19.171Z</time>
      </trkpt>
      <trkpt lat="49.71791723" lon="9.52502195">
        <ele>153.9231</ele>
        <time>2022-06-01T06:57:32.126Z</time>
      </trkpt>
      <trkpt lat="49.71758778" lon="9.52539084">
        <ele>154.2308</ele>
        <time>2022-06-01T06:57:41.71Z</time>
      </trkpt>
      <trkpt lat="49.71733445" lon="9.52577445">
        <ele>154.7692</ele>
        <time>2022-06-01T06:57:50.066Z</time>
      </trkpt>
      <trkpt lat="49.71716806" lon="9.52604195">
        <ele>156</ele>
        <time>2022-06-01T06:57:55.723Z</time>
      </trkpt>
      <trkpt lat="49.71687251" lon="9.52581778">
        <ele>157.2308</ele>
        <time>2022-06-01T06:58:03.478Z</time>
      </trkpt>
      <trkpt lat="49.71681973" lon="9.52561028">
        <ele>158.1538</ele>
        <time>2022-06-01T06:58:06.878Z</time>
      </trkpt>
      <trkpt lat="49.71683001" lon="9.52530112">
        <ele>159.0769</ele>
        <time>2022-06-01T06:58:11.599Z</time>
      </trkpt>
      <trkpt lat="49.71656834" lon="9.52549306">
        <ele>160.0769</ele>
        <time>2022-06-01T06:58:18.422Z</time>
      </trkpt>
      <trkpt lat="49.71648445" lon="9.52568862">
        <ele>161.4615</ele>
        <time>2022-06-01T06:58:21.999Z</time>
      </trkpt>
      <trkpt lat="49.71637028" lon="9.52604751">
        <ele>163.1538</ele>
        <time>2022-06-01T06:58:28.097Z</time>
      </trkpt>
      <trkpt lat="49.71635889" lon="9.52644362">
        <ele>164.6154</ele>
        <time>2022-06-01T06:58:34.144Z</time>
      </trkpt>
      <trkpt lat="49.71625806" lon="9.52699389">
        <ele>166</ele>
        <time>2022-06-01T06:58:42.877Z</time>
      </trkpt>
      <trkpt lat="49.71599667" lon="9.52793028">
        <ele>167.2308</ele>
        <time>2022-06-01T06:58:58.446Z</time>
      </trkpt>
      <trkpt lat="49.71584445" lon="9.52867251">
        <ele>168.6923</ele>
        <time>2022-06-01T06:59:10.335Z</time>
      </trkpt>
      <trkpt lat="49.71572" lon="9.53053389">
        <ele>170.3077</ele>
        <time>2022-06-01T06:59:38.913Z</time>
      </trkpt>
      <trkpt lat="49.71582501" lon="9.53208195">
        <ele>171.9231</ele>
        <time>2022-06-01T07:00:02.684Z</time>
      </trkpt>
      <trkpt lat="49.716035" lon="9.53312001">
        <ele>173.3846</ele>
        <time>2022-06-01T07:00:19.291Z</time>
      </trkpt>
      <trkpt lat="49.71620334" lon="9.53418862">
        <ele>174.9231</ele>
        <time>2022-06-01T07:00:36.085Z</time>
      </trkpt>
      <trkpt lat="49.71624778" lon="9.53548778">
        <ele>176.7692</ele>
        <time>2022-06-01T07:00:55.953Z</time>
      </trkpt>
      <trkpt lat="49.71614278" lon="9.53727">
        <ele>178.2308</ele>
        <time>2022-06-01T07:01:23.283Z</time>
      </trkpt>
      <trkpt lat="49.71600139" lon="9.53779917">
        <ele>180.2308</ele>
        <time>2022-06-01T07:01:32.024Z</time>
      </trkpt>
      <trkpt lat="49.71588639" lon="9.53831862">
        <ele>181.2308</ele>
        <time>2022-06-01T07:01:40.407Z</time>
      </trkpt>
      <trkpt lat="49.7157675" lon="9.53881751">
        <ele>181.1538</ele>
        <time>2022-06-01T07:01:48.524Z</time>
      </trkpt>
      <trkpt lat="49.71561834" lon="9.53943251">
        <ele>180.3846</ele>
        <time>2022-06-01T07:01:58.552Z</time>
      </trkpt>
      <trkpt lat="49.71559167" lon="9.5403925">
        <ele>179.5385</ele>
        <time>2022-06-01T07:02:13.226Z</time>
      </trkpt>
      <trkpt lat="49.71558862" lon="9.54100167">
        <ele>178.9231</ele>
        <time>2022-06-01T07:02:22.53Z</time>
      </trkpt>
      <trkpt lat="49.71548723" lon="9.54163195">
        <ele>178</ele>
        <time>2022-06-01T07:02:32.447Z</time>
      </trkpt>
      <trkpt lat="49.71521945" lon="9.542375">
        <ele>176.7692</ele>
        <time>2022-06-01T07:02:45.43Z</time>
      </trkpt>
      <trkpt lat="49.71462056" lon="9.54316778">
        <ele>175.6154</ele>
        <time>2022-06-01T07:03:04.019Z</time>
      </trkpt>
      <trkpt lat="49.71405945" lon="9.54381473">
        <ele>174.1538</ele>
        <time>2022-06-01T07:03:20.52Z</time>
      </trkpt>
      <trkpt lat="49.71409917" lon="9.54386473">
        <ele>173.9396</ele>
        <time>2022-06-01T07:03:21.727Z</time>
      </trkpt>
      <trkpt lat="49.71345223" lon="9.54410917">
        <ele>171.1538</ele>
        <time>2022-06-01T07:03:37.414Z</time>
      </trkpt>
      <trkpt lat="49.71267139" lon="9.54432028">
        <ele>169.8462</ele>
        <time>2022-06-01T07:03:56.085Z</time>
      </trkpt>
      <trkpt lat="49.71247167" lon="9.54437223">
        <ele>167.7692</ele>
        <time>2022-06-01T07:04:00.855Z</time>
      </trkpt>
      <trkpt lat="49.71128612" lon="9.54475612">
        <ele>166.3846</ele>
        <time>2022-06-01T07:04:29.386Z</time>
      </trkpt>
      <trkpt lat="49.71094445" lon="9.54495556">
        <ele>165.5385</ele>
        <time>2022-06-01T07:04:37.989Z</time>
      </trkpt>
      <trkpt lat="49.71034473" lon="9.54541973">
        <ele>165.8462</ele>
        <time>2022-06-01T07:04:53.794Z</time>
      </trkpt>
      <trkpt lat="49.71037723" lon="9.54540334">
        <ele>166.3846</ele>
        <time>2022-06-01T07:04:54.599Z</time>
      </trkpt>
      <trkpt lat="49.70962501" lon="9.54636195">
        <ele>166.8462</ele>
        <time>2022-06-01T07:05:17.583Z</time>
      </trkpt>
      <trkpt lat="49.70900917" lon="9.54700862">
        <ele>167.5385</ele>
        <time>2022-06-01T07:05:35.132Z</time>
      </trkpt>
      <trkpt lat="49.70861139" lon="9.54747945">
        <ele>168.1538</ele>
        <time>2022-06-01T07:05:46.943Z</time>
      </trkpt>
      <trkpt lat="49.70813389" lon="9.54824334">
        <ele>168.6154</ele>
        <time>2022-06-01T07:06:03.149Z</time>
      </trkpt>
      <trkpt lat="49.70731528" lon="9.5498275">
        <ele>168.4615</ele>
        <time>2022-06-01T07:06:34.089Z</time>
      </trkpt>
      <trkpt lat="49.70716806" lon="9.54985917">
        <ele>168.1538</ele>
        <time>2022-06-01T07:06:37.59Z</time>
      </trkpt>
      <trkpt lat="49.70691417" lon="9.54974778">
        <ele>167.8462</ele>
        <time>2022-06-01T07:06:43.807Z</time>
      </trkpt>
      <trkpt lat="49.70624473" lon="9.54842445">
        <ele>167.5385</ele>
        <time>2022-06-01T07:07:09.443Z</time>
      </trkpt>
      <trkpt lat="49.70580917" lon="9.54746334">
        <ele>167.4615</ele>
        <time>2022-06-01T07:07:27.353Z</time>
      </trkpt>
      <trkpt lat="49.70535862" lon="9.54664528">
        <ele>167.6923</ele>
        <time>2022-06-01T07:07:43.747Z</time>
      </trkpt>
      <trkpt lat="49.70502528" lon="9.54636556">
        <ele>168.1538</ele>
        <time>2022-06-01T07:07:52.683Z</time>
      </trkpt>
      <trkpt lat="49.70475945" lon="9.54623056">
        <ele>168.0769</ele>
        <time>2022-06-01T07:07:59.274Z</time>
      </trkpt>
      <trkpt lat="49.70417278" lon="9.54593612">
        <ele>168.0769</ele>
        <time>2022-06-01T07:08:13.804Z</time>
      </trkpt>
      <trkpt lat="49.70321" lon="9.54592695">
        <ele>168.2308</ele>
        <time>2022-06-01T07:08:36.481Z</time>
      </trkpt>
      <trkpt lat="49.70248667" lon="9.54586167">
        <ele>168.6923</ele>
        <time>2022-06-01T07:08:53.547Z</time>
      </trkpt>
      <trkpt lat="49.70180112" lon="9.54565973">
        <ele>169.2308</ele>
        <time>2022-06-01T07:09:09.985Z</time>
      </trkpt>
      <trkpt lat="49.70141584" lon="9.54554806">
        <ele>170.2308</ele>
        <time>2022-06-01T07:09:19.218Z</time>
      </trkpt>
      <trkpt lat="49.70058028" lon="9.54536501">
        <ele>171.6923</ele>
        <time>2022-06-01T07:09:39.095Z</time>
      </trkpt>
      <trkpt lat="49.69981445" lon="9.54548695">
        <ele>173</ele>
        <time>2022-06-01T07:09:57.228Z</time>
      </trkpt>
      <trkpt lat="49.69954751" lon="9.54544639">
        <ele>174.2308</ele>
        <time>2022-06-01T07:10:03.546Z</time>
      </trkpt>
      <trkpt lat="49.69932862" lon="9.54517528">
        <ele>175.6154</ele>
        <time>2022-06-01T07:10:10.156Z</time>
      </trkpt>
      <trkpt lat="49.69917806" lon="9.54510084">
        <ele>176.6923</ele>
        <time>2022-06-01T07:10:13.88Z</time>
      </trkpt>
      <trkpt lat="49.69900834" lon="9.54526028">
        <ele>177</ele>
        <time>2022-06-01T07:10:18.559Z</time>
      </trkpt>
      <trkpt lat="49.69894695" lon="9.54551612">
        <ele>176.7692</ele>
        <time>2022-06-01T07:10:22.721Z</time>
      </trkpt>
      <trkpt lat="49.69868667" lon="9.54591084">
        <ele>176.6154</ele>
        <time>2022-06-01T07:10:31.314Z</time>
      </trkpt>
      <trkpt lat="49.69807473" lon="9.54683389">
        <ele>176.0769</ele>
        <time>2022-06-01T07:10:51.478Z</time>
      </trkpt>
      <trkpt lat="49.69740334" lon="9.54792751">
        <ele>175.2308</ele>
        <time>2022-06-01T07:11:14.483Z</time>
      </trkpt>
      <trkpt lat="49.69736889" lon="9.54861417">
        <ele>174.1538</ele>
        <time>2022-06-01T07:11:25.005Z</time>
      </trkpt>
      <trkpt lat="49.69732" lon="9.54914417">
        <ele>173.2308</ele>
        <time>2022-06-01T07:11:33.184Z</time>
      </trkpt>
      <trkpt lat="49.69719501" lon="9.55027695">
        <ele>172.6923</ele>
        <time>2022-06-01T07:11:50.739Z</time>
      </trkpt>
      <trkpt lat="49.69715001" lon="9.55058223">
        <ele>171.6154</ele>
        <time>2022-06-01T07:11:55.516Z</time>
      </trkpt>
      <trkpt lat="49.69705917" lon="9.55078723">
        <ele>170.7692</ele>
        <time>2022-06-01T07:11:59.305Z</time>
      </trkpt>
      <trkpt lat="49.69691084" lon="9.55093528">
        <ele>170.8462</ele>
        <time>2022-06-01T07:12:03.465Z</time>
      </trkpt>
      <trkpt lat="49.69657001" lon="9.55116723">
        <ele>170.3846</ele>
        <time>2022-06-01T07:12:12.238Z</time>
      </trkpt>
      <trkpt lat="49.69656028" lon="9.55154389">
        <ele>169.5385</ele>
        <time>2022-06-01T07:12:17.989Z</time>
      </trkpt>
      <trkpt lat="49.69636556" lon="9.55217278">
        <ele>169.0769</ele>
        <time>2022-06-01T07:12:28.636Z</time>
      </trkpt>
      <trkpt lat="49.69636834" lon="9.55287501">
        <ele>169.1538</ele>
        <time>2022-06-01T07:12:39.365Z</time>
      </trkpt>
      <trkpt lat="49.69651028" lon="9.55413778">
        <ele>169.5385</ele>
        <time>2022-06-01T07:12:58.945Z</time>
      </trkpt>
      <trkpt lat="49.69660334" lon="9.55516056">
        <ele>170.3846</ele>
        <time>2022-06-01T07:13:14.724Z</time>
      </trkpt>
      <trkpt lat="49.69676612" lon="9.55662945">
        <ele>171.7692</ele>
        <time>2022-06-01T07:13:37.491Z</time>
      </trkpt>
      <trkpt lat="49.69738306" lon="9.55975723">
        <ele>172.2308</ele>
        <time>2022-06-01T07:14:27.437Z</time>
      </trkpt>
      <trkpt lat="49.69827528" lon="9.56234973">
        <ele>172.2308</ele>
        <time>2022-06-01T07:15:12.274Z</time>
      </trkpt>
      <trkpt lat="49.69895667" lon="9.56409834">
        <ele>171.4615</ele>
        <time>2022-06-01T07:15:43.438Z</time>
      </trkpt>
      <trkpt lat="49.69973417" lon="9.56570473">
        <ele>171</ele>
        <time>2022-06-01T07:16:14.058Z</time>
      </trkpt>
      <trkpt lat="49.700495" lon="9.56731389">
        <ele>170.8462</ele>
        <time>2022-06-01T07:16:44.479Z</time>
      </trkpt>
      <trkpt lat="49.70110306" lon="9.56884445">
        <ele>171.0769</ele>
        <time>2022-06-01T07:17:11.898Z</time>
      </trkpt>
      <trkpt lat="49.70128528" lon="9.56988139">
        <ele>172.6154</ele>
        <time>2022-06-01T07:17:28.31Z</time>
      </trkpt>
      <trkpt lat="49.70131723" lon="9.57116362">
        <ele>174.6923</ele>
        <time>2022-06-01T07:17:47.912Z</time>
      </trkpt>
      <trkpt lat="49.70104195" lon="9.57198">
        <ele>176.3846</ele>
        <time>2022-06-01T07:18:01.968Z</time>
      </trkpt>
      <trkpt lat="49.70070639" lon="9.57271112">
        <ele>177.9231</ele>
        <time>2022-06-01T07:18:15.651Z</time>
      </trkpt>
      <trkpt lat="49.70021945" lon="9.57314167">
        <ele>179.3846</ele>
        <time>2022-06-01T07:18:28.872Z</time>
      </trkpt>
      <trkpt lat="49.69869806" lon="9.57401">
        <ele>180.2308</ele>
        <time>2022-06-01T07:19:07.082Z</time>
      </trkpt>
      <trkpt lat="49.69624195" lon="9.57516167">
        <ele>179.6154</ele>
        <time>2022-06-01T07:20:07.548Z</time>
      </trkpt>
      <trkpt lat="49.69574862" lon="9.575645">
        <ele>179.3846</ele>
        <time>2022-06-01T07:20:21.315Z</time>
      </trkpt>
      <trkpt lat="49.69537862" lon="9.57614417">
        <ele>179.4615</ele>
        <time>2022-06-01T07:20:32.896Z</time>
      </trkpt>
      <trkpt lat="49.695555" lon="9.57667667">
        <ele>178.8462</ele>
        <time>2022-06-01T07:20:42.031Z</time>
      </trkpt>
      <trkpt lat="49.69590251" lon="9.57732334">
        <ele>178.5385</ele>
        <time>2022-06-01T07:20:54.861Z</time>
      </trkpt>
      <trkpt lat="49.69635917" lon="9.57794528">
        <ele>178.0769</ele>
        <time>2022-06-01T07:21:09.213Z</time>
      </trkpt>
      <trkpt lat="49.69665139" lon="9.57828278">
        <ele>176.3077</ele>
        <time>2022-06-01T07:21:17.809Z</time>
      </trkpt>
      <trkpt lat="49.69672889" lon="9.57840834">
        <ele>174.2855</ele>
        <time>2022-06-01T07:21:20.455Z</time>
      </trkpt>
      <trkpt lat="49.69662639" lon="9.57857389">
        <ele>171.6154</ele>
        <time>2022-06-01T07:21:23.949Z</time>
      </trkpt>
      <trkpt lat="49.69483334" lon="9.58024223">
        <ele>169.8462</ele>
        <time>2022-06-01T07:22:13.277Z</time>
      </trkpt>
      <trkpt lat="49.69358445" lon="9.58108084">
        <ele>168.2308</ele>
        <time>2022-06-01T07:22:45.362Z</time>
      </trkpt>
      <trkpt lat="49.69306445" lon="9.58144806">
        <ele>166.3077</ele>
        <time>2022-06-01T07:22:58.83Z</time>
      </trkpt>
      <trkpt lat="49.69237417" lon="9.58246417">
        <ele>164.6923</ele>
        <time>2022-06-01T07:23:21.31Z</time>
      </trkpt>
      <trkpt lat="49.69178362" lon="9.58327695">
        <ele>164.2308</ele>
        <time>2022-06-01T07:23:39.957Z</time>
      </trkpt>
      <trkpt lat="49.69111306" lon="9.58443056">
        <ele>164.7692</ele>
        <time>2022-06-01T07:24:03.624Z</time>
      </trkpt>
      <trkpt lat="49.69034084" lon="9.58623084">
        <ele>165.2308</ele>
        <time>2022-06-01T07:24:36.601Z</time>
      </trkpt>
      <trkpt lat="49.69003917" lon="9.58705778">
        <ele>166.3077</ele>
        <time>2022-06-01T07:24:51.097Z</time>
      </trkpt>
      <trkpt lat="49.68981584" lon="9.58801139">
        <ele>167.1538</ele>
        <time>2022-06-01T07:25:06.589Z</time>
      </trkpt>
      <trkpt lat="49.68955112" lon="9.58939028">
        <ele>167.3846</ele>
        <time>2022-06-01T07:25:28.562Z</time>
      </trkpt>
      <trkpt lat="49.68913945" lon="9.59043195">
        <ele>167.7692</ele>
        <time>2022-06-01T07:25:47.2Z</time>
      </trkpt>
      <trkpt lat="49.68860139" lon="9.59166195">
        <ele>167.9231</ele>
        <time>2022-06-01T07:26:09.868Z</time>
      </trkpt>
      <trkpt lat="49.68825084" lon="9.59305556">
        <ele>168.2308</ele>
        <time>2022-06-01T07:26:32.708Z</time>
      </trkpt>
      <trkpt lat="49.68819695" lon="9.59384084">
        <ele>168.3077</ele>
        <time>2022-06-01T07:26:44.774Z</time>
      </trkpt>
      <trkpt lat="49.68825695" lon="9.59537723">
        <ele>168.5385</ele>
        <time>2022-06-01T07:27:08.293Z</time>
      </trkpt>
      <trkpt lat="49.68839195" lon="9.59701">
        <ele>169.3846</ele>
        <time>2022-06-01T07:27:33.444Z</time>
      </trkpt>
      <trkpt lat="49.68884112" lon="9.59818639">
        <ele>170.3846</ele>
        <time>2022-06-01T07:27:54.302Z</time>
      </trkpt>
      <trkpt lat="49.68908584" lon="9.59894445">
        <ele>170.6154</ele>
        <time>2022-06-01T07:28:07.24Z</time>
      </trkpt>
      <trkpt lat="49.68944556" lon="9.59931223">
        <ele>170.1538</ele>
        <time>2022-06-01T07:28:17.403Z</time>
      </trkpt>
      <trkpt lat="49.68979639" lon="9.59958556">
        <ele>169.7692</ele>
        <time>2022-06-01T07:28:26.659Z</time>
      </trkpt>
      <trkpt lat="49.69000112" lon="9.59991806">
        <ele>169.3846</ele>
        <time>2022-06-01T07:28:33.658Z</time>
      </trkpt>
      <trkpt lat="49.69114862" lon="9.60052334">
        <ele>169.1538</ele>
        <time>2022-06-01T07:29:02.224Z</time>
      </trkpt>
      <trkpt lat="49.69179306" lon="9.60067">
        <ele>169.6923</ele>
        <time>2022-06-01T07:29:17.567Z</time>
      </trkpt>
      <trkpt lat="49.69255389" lon="9.60073778">
        <ele>170.0769</ele>
        <time>2022-06-01T07:29:35.517Z</time>
      </trkpt>
      <trkpt lat="49.69332862" lon="9.60070584">
        <ele>170.3846</ele>
        <time>2022-06-01T07:29:53.771Z</time>
      </trkpt>
      <trkpt lat="49.69381778" lon="9.60048306">
        <ele>170.6154</ele>
        <time>2022-06-01T07:30:05.783Z</time>
      </trkpt>
      <trkpt lat="49.69398917" lon="9.60046834">
        <ele>170.9231</ele>
        <time>2022-06-01T07:30:09.826Z</time>
      </trkpt>
      <trkpt lat="49.69437751" lon="9.60027223">
        <ele>171</ele>
        <time>2022-06-01T07:30:19.45Z</time>
      </trkpt>
      <trkpt lat="49.69484028" lon="9.59974778">
        <ele>170.8462</ele>
        <time>2022-06-01T07:30:32.978Z</time>
      </trkpt>
      <trkpt lat="49.69537417" lon="9.59928028">
        <ele>170.7692</ele>
        <time>2022-06-01T07:30:47.44Z</time>
      </trkpt>
      <trkpt lat="49.69611084" lon="9.59878362">
        <ele>170.7692</ele>
        <time>2022-06-01T07:31:06.378Z</time>
      </trkpt>
      <trkpt lat="49.69633806" lon="9.59869862">
        <ele>170.3846</ele>
        <time>2022-06-01T07:31:11.885Z</time>
      </trkpt>
      <trkpt lat="49.69656917" lon="9.59878889">
        <ele>170</ele>
        <time>2022-06-01T07:31:17.5Z</time>
      </trkpt>
      <trkpt lat="49.69698223" lon="9.59913112">
        <ele>169.6923</ele>
        <time>2022-06-01T07:31:28.541Z</time>
      </trkpt>
      <trkpt lat="49.69726695" lon="9.59959362">
        <ele>169.4615</ele>
        <time>2022-06-01T07:31:38.283Z</time>
      </trkpt>
      <trkpt lat="49.69750584" lon="9.60032028">
        <ele>169.1538</ele>
        <time>2022-06-01T07:31:50.729Z</time>
      </trkpt>
      <trkpt lat="49.69790167" lon="9.60097584">
        <ele>168.9231</ele>
        <time>2022-06-01T07:32:04.412Z</time>
      </trkpt>
      <trkpt lat="49.69868945" lon="9.60227167">
        <ele>168.8462</ele>
        <time>2022-06-01T07:32:31.545Z</time>
      </trkpt>
      <trkpt lat="49.69933723" lon="9.60358056">
        <ele>168.8462</ele>
        <time>2022-06-01T07:32:56.697Z</time>
      </trkpt>
      <trkpt lat="49.69988473" lon="9.60460473">
        <ele>168.6154</ele>
        <time>2022-06-01T07:33:16.972Z</time>
      </trkpt>
      <trkpt lat="49.70033556" lon="9.60544834">
        <ele>168.3846</ele>
        <time>2022-06-01T07:33:33.671Z</time>
      </trkpt>
      <trkpt lat="49.70077362" lon="9.60597584">
        <ele>167.9231</ele>
        <time>2022-06-01T07:33:46.763Z</time>
      </trkpt>
      <trkpt lat="49.70134028" lon="9.60640723">
        <ele>167.3846</ele>
        <time>2022-06-01T07:34:01.648Z</time>
      </trkpt>
      <trkpt lat="49.70168389" lon="9.60683584">
        <ele>167.4615</ele>
        <time>2022-06-01T07:34:12.058Z</time>
      </trkpt>
      <trkpt lat="49.70196" lon="9.60723139">
        <ele>167.8462</ele>
        <time>2022-06-01T07:34:20.929Z</time>
      </trkpt>
      <trkpt lat="49.70254473" lon="9.60669139">
        <ele>168.1538</ele>
        <time>2022-06-01T07:34:36.983Z</time>
      </trkpt>
      <trkpt lat="49.70276889" lon="9.6064525">
        <ele>168.4615</ele>
        <time>2022-06-01T07:34:43.398Z</time>
      </trkpt>
      <trkpt lat="49.70308723" lon="9.60747723">
        <ele>168.6154</ele>
        <time>2022-06-01T07:35:00.755Z</time>
      </trkpt>
      <trkpt lat="49.70326639" lon="9.60845639">
        <ele>168.5385</ele>
        <time>2022-06-01T07:35:16.296Z</time>
      </trkpt>
      <trkpt lat="49.70333695" lon="9.60948362">
        <ele>168.5385</ele>
        <time>2022-06-01T07:35:32.076Z</time>
      </trkpt>
      <trkpt lat="49.70367528" lon="9.61030973">
        <ele>168.4615</ele>
        <time>2022-06-01T07:35:47.001Z</time>
      </trkpt>
      <trkpt lat="49.70370334" lon="9.61053139">
        <ele>168.3846</ele>
        <time>2022-06-01T07:35:50.446Z</time>
      </trkpt>
      <trkpt lat="49.70355973" lon="9.61101889">
        <ele>168.6154</ele>
        <time>2022-06-01T07:35:58.625Z</time>
      </trkpt>
      <trkpt lat="49.70222195" lon="9.61346751">
        <ele>168.6154</ele>
        <time>2022-06-01T07:36:47.533Z</time>
      </trkpt>
      <trkpt lat="49.70179417" lon="9.61437306">
        <ele>168.5385</ele>
        <time>2022-06-01T07:37:04.647Z</time>
      </trkpt>
      <trkpt lat="49.70025973" lon="9.61619417">
        <ele>168.2308</ele>
        <time>2022-06-01T07:37:50.255Z</time>
      </trkpt>
      <trkpt lat="49.69949862" lon="9.61767445">
        <ele>168.1538</ele>
        <time>2022-06-01T07:38:19.113Z</time>
      </trkpt>
      <trkpt lat="49.69894223" lon="9.61958334">
        <ele>168.3077</ele>
        <time>2022-06-01T07:38:51.084Z</time>
      </trkpt>
      <trkpt lat="49.69845251" lon="9.62163945">
        <ele>168.2308</ele>
        <time>2022-06-01T07:39:24.547Z</time>
      </trkpt>
      <trkpt lat="49.69814389" lon="9.62266639">
        <ele>168</ele>
        <time>2022-06-01T07:39:41.838Z</time>
      </trkpt>
      <trkpt lat="49.69781389" lon="9.62348306">
        <ele>168.0769</ele>
        <time>2022-06-01T07:39:56.538Z</time>
      </trkpt>
      <trkpt lat="49.69710112" lon="9.62479834">
        <ele>168.0769</ele>
        <time>2022-06-01T07:40:22.722Z</time>
      </trkpt>
      <trkpt lat="49.696025" lon="9.62599167">
        <ele>168.4615</ele>
        <time>2022-06-01T07:40:53.944Z</time>
      </trkpt>
      <trkpt lat="49.69493695" lon="9.62667695">
        <ele>168.7692</ele>
        <time>2022-06-01T07:41:21.627Z</time>
      </trkpt>
      <trkpt lat="49.69331723" lon="9.62711001">
        <ele>169.3846</ele>
        <time>2022-06-01T07:42:00.346Z</time>
      </trkpt>
      <trkpt lat="49.69205195" lon="9.62723695">
        <ele>169.9231</ele>
        <time>2022-06-01T07:42:30.21Z</time>
      </trkpt>
      <trkpt lat="49.69079612" lon="9.62711084">
        <ele>170.4615</ele>
        <time>2022-06-01T07:42:59.851Z</time>
      </trkpt>
      <trkpt lat="49.68983945" lon="9.62687056">
        <ele>170.8462</ele>
        <time>2022-06-01T07:43:22.68Z</time>
      </trkpt>
      <trkpt lat="49.68865584" lon="9.62620278">
        <ele>171.0769</ele>
        <time>2022-06-01T07:43:52.366Z</time>
      </trkpt>
      <trkpt lat="49.68730362" lon="9.62475612">
        <ele>171.0769</ele>
        <time>2022-06-01T07:44:31.135Z</time>
      </trkpt>
      <trkpt lat="49.68676667" lon="9.62407473">
        <ele>170.7692</ele>
        <time>2022-06-01T07:44:47.517Z</time>
      </trkpt>
      <trkpt lat="49.68611334" lon="9.62354417">
        <ele>170.6154</ele>
        <time>2022-06-01T07:45:04.91Z</time>
      </trkpt>
      <trkpt lat="49.68578084" lon="9.62337167">
        <ele>170.6154</ele>
        <time>2022-06-01T07:45:13.172Z</time>
      </trkpt>
      <trkpt lat="49.68510084" lon="9.62321028">
        <ele>170.8462</ele>
        <time>2022-06-01T07:45:29.376Z</time>
      </trkpt>
      <trkpt lat="49.683865" lon="9.62360362">
        <ele>171.4615</ele>
        <time>2022-06-01T07:45:59.096Z</time>
      </trkpt>
      <trkpt lat="49.68338862" lon="9.62583334">
        <ele>170.5385</ele>
        <time>2022-06-01T07:46:34.97Z</time>
      </trkpt>
      <trkpt lat="49.68317862" lon="9.62663112">
        <ele>170.2308</ele>
        <time>2022-06-01T07:46:48.127Z</time>
      </trkpt>
      <trkpt lat="49.68287528" lon="9.62725473">
        <ele>169.6923</ele>
        <time>2022-06-01T07:47:00.038Z</time>
      </trkpt>
      <trkpt lat="49.68217556" lon="9.62774806">
        <ele>169.2308</ele>
        <time>2022-06-01T07:47:18.161Z</time>
      </trkpt>
      <trkpt lat="49.68121278" lon="9.62792112">
        <ele>169.0769</ele>
        <time>2022-06-01T07:47:40.991Z</time>
      </trkpt>
      <trkpt lat="49.68010723" lon="9.62789639">
        <ele>169.0769</ele>
        <time>2022-06-01T07:48:07.033Z</time>
      </trkpt>
      <trkpt lat="49.67603778" lon="9.628395">
        <ele>169.0769</ele>
        <time>2022-06-01T07:49:43.184Z</time>
      </trkpt>
      <trkpt lat="49.67507112" lon="9.62891528">
        <ele>169.1538</ele>
        <time>2022-06-01T07:50:07.301Z</time>
      </trkpt>
      <trkpt lat="49.67458778" lon="9.62904445">
        <ele>169.3077</ele>
        <time>2022-06-01T07:50:18.855Z</time>
      </trkpt>
      <trkpt lat="49.67416667" lon="9.62899723">
        <ele>169.3846</ele>
        <time>2022-06-01T07:50:28.8Z</time>
      </trkpt>
      <trkpt lat="49.67385917" lon="9.62903695">
        <ele>169.6923</ele>
        <time>2022-06-01T07:50:36.068Z</time>
      </trkpt>
      <trkpt lat="49.67301473" lon="9.63011612">
        <ele>169.4615</ele>
        <time>2022-06-01T07:51:01.907Z</time>
      </trkpt>
      <trkpt lat="49.67227362" lon="9.63107306">
        <ele>169.2308</ele>
        <time>2022-06-01T07:51:24.681Z</time>
      </trkpt>
      <trkpt lat="49.67191445" lon="9.63150167">
        <ele>170.2308</ele>
        <time>2022-06-01T07:51:35.381Z</time>
      </trkpt>
      <trkpt lat="49.67147501" lon="9.63186945">
        <ele>170.6923</ele>
        <time>2022-06-01T07:51:47.156Z</time>
      </trkpt>
      <trkpt lat="49.6708825" lon="9.63209695">
        <ele>171</ele>
        <time>2022-06-01T07:52:01.537Z</time>
      </trkpt>
      <trkpt lat="49.67036195" lon="9.63216167">
        <ele>171.3077</ele>
        <time>2022-06-01T07:52:13.837Z</time>
      </trkpt>
      <trkpt lat="49.66952445" lon="9.63244584">
        <ele>171.2308</ele>
        <time>2022-06-01T07:52:34.034Z</time>
      </trkpt>
      <trkpt lat="49.66892417" lon="9.63262806">
        <ele>171.3077</ele>
        <time>2022-06-01T07:52:48.443Z</time>
      </trkpt>
      <trkpt lat="49.66748889" lon="9.63242251">
        <ele>171.4615</ele>
        <time>2022-06-01T07:53:22.394Z</time>
      </trkpt>
      <trkpt lat="49.66697389" lon="9.63270723">
        <ele>171.4615</ele>
        <time>2022-06-01T07:53:35.279Z</time>
      </trkpt>
      <trkpt lat="49.66663195" lon="9.63318528">
        <ele>171.6154</ele>
        <time>2022-06-01T07:53:46.154Z</time>
      </trkpt>
      <trkpt lat="49.66668223" lon="9.63315445">
        <ele>171.9231</ele>
        <time>2022-06-01T07:53:47.428Z</time>
      </trkpt>
      <trkpt lat="49.66651056" lon="9.63351056">
        <ele>172.0769</ele>
        <time>2022-06-01T07:53:54.203Z</time>
      </trkpt>
      <trkpt lat="49.66628445" lon="9.63381223">
        <ele>172.2308</ele>
        <time>2022-06-01T07:54:01.244Z</time>
      </trkpt>
      <trkpt lat="49.66590584" lon="9.63424473">
        <ele>172.3077</ele>
        <time>2022-06-01T07:54:12.345Z</time>
      </trkpt>
      <trkpt lat="49.66573139" lon="9.63437362">
        <ele>172.1538</ele>
        <time>2022-06-01T07:54:16.901Z</time>
      </trkpt>
      <trkpt lat="49.66522028" lon="9.63448389">
        <ele>172.0769</ele>
        <time>2022-06-01T07:54:29.056Z</time>
      </trkpt>
      <trkpt lat="49.66479167" lon="9.63455306">
        <ele>172.2308</ele>
        <time>2022-06-01T07:54:39.206Z</time>
      </trkpt>
      <trkpt lat="49.66432112" lon="9.63470334">
        <ele>172.1538</ele>
        <time>2022-06-01T07:54:50.524Z</time>
      </trkpt>
      <trkpt lat="49.66404723" lon="9.63493306">
        <ele>172.4615</ele>
        <time>2022-06-01T07:54:57.867Z</time>
      </trkpt>
      <trkpt lat="49.66391167" lon="9.63493834">
        <ele>172.7692</ele>
        <time>2022-06-01T07:55:01.061Z</time>
      </trkpt>
      <trkpt lat="49.66370973" lon="9.63542028">
        <ele>173.2308</ele>
        <time>2022-06-01T07:55:09.831Z</time>
      </trkpt>
      <trkpt lat="49.66345862" lon="9.63588528">
        <ele>173.7692</ele>
        <time>2022-06-01T07:55:19.079Z</time>
      </trkpt>
      <trkpt lat="49.66295723" lon="9.63650528">
        <ele>174.3077</ele>
        <time>2022-06-01T07:55:34.222Z</time>
      </trkpt>
      <trkpt lat="49.66233028" lon="9.63728306">
        <ele>174.6923</ele>
        <time>2022-06-01T07:55:53.181Z</time>
      </trkpt>
      <trkpt lat="49.66190584" lon="9.63758751">
        <ele>175</ele>
        <time>2022-06-01T07:56:04.206Z</time>
      </trkpt>
      <trkpt lat="49.66159917" lon="9.63768084">
        <ele>175.2308</ele>
        <time>2022-06-01T07:56:11.568Z</time>
      </trkpt>
      <trkpt lat="49.66119445" lon="9.63773056">
        <ele>175.1538</ele>
        <time>2022-06-01T07:56:21.131Z</time>
      </trkpt>
      <trkpt lat="49.66100501" lon="9.63791862">
        <ele>175.1538</ele>
        <time>2022-06-01T07:56:26.437Z</time>
      </trkpt>
      <trkpt lat="49.66084195" lon="9.63804556">
        <ele>175.1538</ele>
        <time>2022-06-01T07:56:30.739Z</time>
      </trkpt>
      <trkpt lat="49.65994612" lon="9.63845278">
        <ele>175</ele>
        <time>2022-06-01T07:56:52.738Z</time>
      </trkpt>
      <trkpt lat="49.65962223" lon="9.63857417">
        <ele>174.9231</ele>
        <time>2022-06-01T07:57:00.588Z</time>
      </trkpt>
      <trkpt lat="49.65964612" lon="9.63874973">
        <ele>174.7692</ele>
        <time>2022-06-01T07:57:03.327Z</time>
      </trkpt>
      <trkpt lat="49.65961862" lon="9.63911223">
        <ele>174.5385</ele>
        <time>2022-06-01T07:57:08.899Z</time>
      </trkpt>
      <trkpt lat="49.65921139" lon="9.63898917">
        <ele>174.2308</ele>
        <time>2022-06-01T07:57:18.673Z</time>
      </trkpt>
      <trkpt lat="49.6590425" lon="9.63890056">
        <ele>173.7692</ele>
        <time>2022-06-01T07:57:22.875Z</time>
      </trkpt>
      <trkpt lat="49.65905556" lon="9.63888778">
        <ele>173.7636</ele>
        <time>2022-06-01T07:57:23.239Z</time>
      </trkpt>
      <trkpt lat="49.65739667" lon="9.63866584">
        <ele>173.1538</ele>
        <time>2022-06-01T07:58:02.457Z</time>
      </trkpt>
      <trkpt lat="49.65659195" lon="9.63809306">
        <ele>172.7692</ele>
        <time>2022-06-01T07:58:23.336Z</time>
      </trkpt>
      <trkpt lat="49.65646001" lon="9.63790917">
        <ele>172.6154</ele>
        <time>2022-06-01T07:58:27.524Z</time>
      </trkpt>
      <trkpt lat="49.65646528" lon="9.63782612">
        <ele>172.6923</ele>
        <time>2022-06-01T07:58:28.798Z</time>
      </trkpt>
      <trkpt lat="49.65590806" lon="9.63833917">
        <ele>172.8462</ele>
        <time>2022-06-01T07:58:44.088Z</time>
      </trkpt>
      <trkpt lat="49.65507056" lon="9.63920028">
        <ele>172.8462</ele>
        <time>2022-06-01T07:59:07.804Z</time>
      </trkpt>
      <trkpt lat="49.65406834" lon="9.64003251">
        <ele>172.9231</ele>
        <time>2022-06-01T07:59:34.621Z</time>
      </trkpt>
      <trkpt lat="49.65356334" lon="9.64036195">
        <ele>173.1538</ele>
        <time>2022-06-01T07:59:47.535Z</time>
      </trkpt>
      <trkpt lat="49.65271278" lon="9.64074723">
        <ele>173.3077</ele>
        <time>2022-06-01T08:00:08.414Z</time>
      </trkpt>
      <trkpt lat="49.65187334" lon="9.64114778">
        <ele>173.3846</ele>
        <time>2022-06-01T08:00:29.11Z</time>
      </trkpt>
      <trkpt lat="49.65128862" lon="9.64143806">
        <ele>173.6154</ele>
        <time>2022-06-01T08:00:43.578Z</time>
      </trkpt>
      <trkpt lat="49.65057584" lon="9.64176362">
        <ele>174.1538</ele>
        <time>2022-06-01T08:01:01.087Z</time>
      </trkpt>
      <trkpt lat="49.65006917" lon="9.64205389">
        <ele>174.5385</ele>
        <time>2022-06-01T08:01:13.817Z</time>
      </trkpt>
      <trkpt lat="49.64881639" lon="9.64280528">
        <ele>174.8462</ele>
        <time>2022-06-01T08:01:45.482Z</time>
      </trkpt>
      <trkpt lat="49.64778139" lon="9.64368612">
        <ele>174.9231</ele>
        <time>2022-06-01T08:02:13.334Z</time>
      </trkpt>
      <trkpt lat="49.64662445" lon="9.64493862">
        <ele>175</ele>
        <time>2022-06-01T08:02:46.642Z</time>
      </trkpt>
      <trkpt lat="49.64508862" lon="9.64675167">
        <ele>175.1538</ele>
        <time>2022-06-01T08:03:32.22Z</time>
      </trkpt>
      <trkpt lat="49.64395028" lon="9.64797556">
        <ele>175.3846</ele>
        <time>2022-06-01T08:04:04.919Z</time>
      </trkpt>
      <trkpt lat="49.64226251" lon="9.64934195">
        <ele>175.4615</ele>
        <time>2022-06-01T08:04:49.83Z</time>
      </trkpt>
      <trkpt lat="49.64080556" lon="9.65045556">
        <ele>175.4615</ele>
        <time>2022-06-01T08:05:28.14Z</time>
      </trkpt>
      <trkpt lat="49.63989917" lon="9.65149306">
        <ele>175.4615</ele>
        <time>2022-06-01T08:05:54.74Z</time>
      </trkpt>
      <trkpt lat="49.63943723" lon="9.65206973">
        <ele>175.6154</ele>
        <time>2022-06-01T08:06:08.746Z</time>
      </trkpt>
      <trkpt lat="49.63894056" lon="9.65266778">
        <ele>175.8462</ele>
        <time>2022-06-01T08:06:23.596Z</time>
      </trkpt>
      <trkpt lat="49.6382475" lon="9.65348695">
        <ele>175.8462</ele>
        <time>2022-06-01T08:06:44.174Z</time>
      </trkpt>
      <trkpt lat="49.63737667" lon="9.65444195">
        <ele>175.8462</ele>
        <time>2022-06-01T08:07:09.355Z</time>
      </trkpt>
      <trkpt lat="49.63642584" lon="9.65511139">
        <ele>175.8462</ele>
        <time>2022-06-01T08:07:33.98Z</time>
      </trkpt>
      <trkpt lat="49.63518417" lon="9.65571445">
        <ele>175.9231</ele>
        <time>2022-06-01T08:08:04.645Z</time>
      </trkpt>
      <trkpt lat="49.63442" lon="9.65600862">
        <ele>176.3077</ele>
        <time>2022-06-01T08:08:23.196Z</time>
      </trkpt>
      <trkpt lat="49.63366334" lon="9.65634445">
        <ele>176.6923</ele>
        <time>2022-06-01T08:08:41.741Z</time>
      </trkpt>
      <trkpt lat="49.63272195" lon="9.65691695">
        <ele>177</ele>
        <time>2022-06-01T08:09:05.58Z</time>
      </trkpt>
      <trkpt lat="49.63162917" lon="9.65762445">
        <ele>177.1538</ele>
        <time>2022-06-01T08:09:33.501Z</time>
      </trkpt>
      <trkpt lat="49.63058306" lon="9.65826556">
        <ele>177.5385</ele>
        <time>2022-06-01T08:10:00.02Z</time>
      </trkpt>
      <trkpt lat="49.62995112" lon="9.65874">
        <ele>178</ele>
        <time>2022-06-01T08:10:16.579Z</time>
      </trkpt>
      <trkpt lat="49.62973667" lon="9.65898445">
        <ele>178.3077</ele>
        <time>2022-06-01T08:10:22.861Z</time>
      </trkpt>
      <trkpt lat="49.62972084" lon="9.65934862">
        <ele>178.5385</ele>
        <time>2022-06-01T08:10:28.437Z</time>
      </trkpt>
      <trkpt lat="49.62959695" lon="9.65952306">
        <ele>178.6154</ele>
        <time>2022-06-01T08:10:32.389Z</time>
      </trkpt>
      <trkpt lat="49.62943362" lon="9.65958834">
        <ele>178.7692</ele>
        <time>2022-06-01T08:10:36.363Z</time>
      </trkpt>
      <trkpt lat="49.62930973" lon="9.65950528">
        <ele>178.7692</ele>
        <time>2022-06-01T08:10:39.545Z</time>
      </trkpt>
      <trkpt lat="49.62913778" lon="9.65975084">
        <ele>178.8462</ele>
        <time>2022-06-01T08:10:45.065Z</time>
      </trkpt>
      <trkpt lat="49.62863528" lon="9.66087167">
        <ele>179</ele>
        <time>2022-06-01T08:11:05.901Z</time>
      </trkpt>
      <trkpt lat="49.62822417" lon="9.66128251">
        <ele>179.0769</ele>
        <time>2022-06-01T08:11:17.445Z</time>
      </trkpt>
      <trkpt lat="49.62759139" lon="9.66156945">
        <ele>179.0769</ele>
        <time>2022-06-01T08:11:32.98Z</time>
      </trkpt>
      <trkpt lat="49.62629028" lon="9.66227528">
        <ele>179.1538</ele>
        <time>2022-06-01T08:12:05.472Z</time>
      </trkpt>
      <trkpt lat="49.62610195" lon="9.6623825">
        <ele>179.5385</ele>
        <time>2022-06-01T08:12:10.201Z</time>
      </trkpt>
      <trkpt lat="49.62593195" lon="9.66245056">
        <ele>180</ele>
        <time>2022-06-01T08:12:14.338Z</time>
      </trkpt>
      <trkpt lat="49.625555" lon="9.66260389">
        <ele>180.3077</ele>
        <time>2022-06-01T08:12:23.52Z</time>
      </trkpt>
      <trkpt lat="49.62515112" lon="9.66273751">
        <ele>180.7692</ele>
        <time>2022-06-01T08:12:33.249Z</time>
      </trkpt>
      <trkpt lat="49.62496612" lon="9.661845">
        <ele>181.0769</ele>
        <time>2022-06-01T08:12:47.583Z</time>
      </trkpt>
      <trkpt lat="49.62481862" lon="9.66191917">
        <ele>181.5385</ele>
        <time>2022-06-01T08:12:51.237Z</time>
      </trkpt>
      <trkpt lat="49.62451639" lon="9.66209667">
        <ele>182</ele>
        <time>2022-06-01T08:12:58.855Z</time>
      </trkpt>
      <trkpt lat="49.62423223" lon="9.66224445">
        <ele>182.5385</ele>
        <time>2022-06-01T08:13:05.918Z</time>
      </trkpt>
      <trkpt lat="49.62367389" lon="9.66249584">
        <ele>182.9231</ele>
        <time>2022-06-01T08:13:19.618Z</time>
      </trkpt>
      <trkpt lat="49.62352473" lon="9.66210834">
        <ele>183.6154</ele>
        <time>2022-06-01T08:13:26.503Z</time>
      </trkpt>
      <trkpt lat="49.62331917" lon="9.66222417">
        <ele>184.3077</ele>
        <time>2022-06-01T08:13:31.658Z</time>
      </trkpt>
      <trkpt lat="49.62309862" lon="9.66229639">
        <ele>185.3077</ele>
        <time>2022-06-01T08:13:36.968Z</time>
      </trkpt>
      <trkpt lat="49.62317084" lon="9.66225556">
        <ele>186.2308</ele>
        <time>2022-06-01T08:13:38.78Z</time>
      </trkpt>
      <trkpt lat="49.62312945" lon="9.66190167">
        <ele>186.8462</ele>
        <time>2022-06-01T08:13:44.274Z</time>
      </trkpt>
      <trkpt lat="49.62296612" lon="9.66125889">
        <ele>187.3077</ele>
        <time>2022-06-01T08:13:54.835Z</time>
      </trkpt>
      <trkpt lat="49.62274834" lon="9.66057167">
        <ele>187.8462</ele>
        <time>2022-06-01T08:14:06.535Z</time>
      </trkpt>
      <trkpt lat="49.62270889" lon="9.66050195">
        <ele>188.1538</ele>
        <time>2022-06-01T08:14:07.949Z</time>
      </trkpt>
      <trkpt lat="49.62227278" lon="9.66054223">
        <ele>188.4615</ele>
        <time>2022-06-01T08:14:18.239Z</time>
      </trkpt>
      <trkpt lat="49.62195695" lon="9.660615">
        <ele>188.7692</ele>
        <time>2022-06-01T08:14:25.76Z</time>
      </trkpt>
      <trkpt lat="49.62172167" lon="9.66069139">
        <ele>189.0769</ele>
        <time>2022-06-01T08:14:31.423Z</time>
      </trkpt>
      <trkpt lat="49.62148223" lon="9.66097806">
        <ele>189.3077</ele>
        <time>2022-06-01T08:14:38.564Z</time>
      </trkpt>
      <trkpt lat="49.62161028" lon="9.66111723">
        <ele>189.4615</ele>
        <time>2022-06-01T08:14:42.254Z</time>
      </trkpt>
      <trkpt lat="49.62166889" lon="9.66128584">
        <ele>189.2308</ele>
        <time>2022-06-01T08:14:45.177Z</time>
      </trkpt>
      <trkpt lat="49.62172056" lon="9.66157917">
        <ele>189.0769</ele>
        <time>2022-06-01T08:14:49.821Z</time>
      </trkpt>
      <trkpt lat="49.62176306" lon="9.66157167">
        <ele>188.6154</ele>
        <time>2022-06-01T08:14:50.829Z</time>
      </trkpt>
      <trkpt lat="49.62155945" lon="9.66169167">
        <ele>188.0769</ele>
        <time>2022-06-01T08:14:55.963Z</time>
      </trkpt>
      <trkpt lat="49.62135056" lon="9.66180834">
        <ele>187.5385</ele>
        <time>2022-06-01T08:15:01.196Z</time>
      </trkpt>
      <trkpt lat="49.62102667" lon="9.66196556">
        <ele>187.0769</ele>
        <time>2022-06-01T08:15:09.194Z</time>
      </trkpt>
      <trkpt lat="49.62084417" lon="9.66214417">
        <ele>186.5385</ele>
        <time>2022-06-01T08:15:14.286Z</time>
      </trkpt>
      <trkpt lat="49.62071917" lon="9.66230167">
        <ele>185.9231</ele>
        <time>2022-06-01T08:15:18.089Z</time>
      </trkpt>
      <trkpt lat="49.62075695" lon="9.66243306">
        <ele>185.4615</ele>
        <time>2022-06-01T08:15:20.285Z</time>
      </trkpt>
      <trkpt lat="49.620925" lon="9.66331417">
        <ele>184.9231</ele>
        <time>2022-06-01T08:15:34.336Z</time>
      </trkpt>
      <trkpt lat="49.62109723" lon="9.66385612">
        <ele>184.4615</ele>
        <time>2022-06-01T08:15:43.568Z</time>
      </trkpt>
      <trkpt lat="49.62150917" lon="9.66447834">
        <ele>183.9231</ele>
        <time>2022-06-01T08:15:57.162Z</time>
      </trkpt>
      <trkpt lat="49.62179223" lon="9.66489834">
        <ele>183.5385</ele>
        <time>2022-06-01T08:16:06.422Z</time>
      </trkpt>
      <trkpt lat="49.62232889" lon="9.66564584">
        <ele>183.2308</ele>
        <time>2022-06-01T08:16:23.469Z</time>
      </trkpt>
      <trkpt lat="49.6224675" lon="9.66588667">
        <ele>183.0769</ele>
        <time>2022-06-01T08:16:28.388Z</time>
      </trkpt>
      <trkpt lat="49.6223775" lon="9.66589306">
        <ele>182.9231</ele>
        <time>2022-06-01T08:16:30.51Z</time>
      </trkpt>
      <trkpt lat="49.62198278" lon="9.66571806">
        <ele>182.6154</ele>
        <time>2022-06-01T08:16:40.184Z</time>
      </trkpt>
      <trkpt lat="49.62143806" lon="9.66554889">
        <ele>182.5385</ele>
        <time>2022-06-01T08:16:53.272Z</time>
      </trkpt>
      <trkpt lat="49.62106084" lon="9.66558195">
        <ele>182.3846</ele>
        <time>2022-06-01T08:17:02.171Z</time>
      </trkpt>
      <trkpt lat="49.62063612" lon="9.66563806">
        <ele>182.1538</ele>
        <time>2022-06-01T08:17:12.211Z</time>
      </trkpt>
      <trkpt lat="49.62041556" lon="9.66483362">
        <ele>182.1538</ele>
        <time>2022-06-01T08:17:25.572Z</time>
      </trkpt>
      <trkpt lat="49.62011528" lon="9.66392">
        <ele>182.1538</ele>
        <time>2022-06-01T08:17:41.239Z</time>
      </trkpt>
      <trkpt lat="49.61989751" lon="9.66346223">
        <ele>182.0769</ele>
        <time>2022-06-01T08:17:49.921Z</time>
      </trkpt>
      <trkpt lat="49.61969445" lon="9.66307389">
        <ele>181.9231</ele>
        <time>2022-06-01T08:17:57.542Z</time>
      </trkpt>
      <trkpt lat="49.61929417" lon="9.66341639">
        <ele>181.7692</ele>
        <time>2022-06-01T08:18:08.325Z</time>
      </trkpt>
      <trkpt lat="49.61809195" lon="9.66433223">
        <ele>181.6923</ele>
        <time>2022-06-01T08:18:39.919Z</time>
      </trkpt>
      <trkpt lat="49.61827417" lon="9.66592667">
        <ele>181.6154</ele>
        <time>2022-06-01T08:19:04.693Z</time>
      </trkpt>
      <trkpt lat="49.61791889" lon="9.66601389">
        <ele>181.3846</ele>
        <time>2022-06-01T08:19:13.166Z</time>
      </trkpt>
      <trkpt lat="49.61775834" lon="9.66608612">
        <ele>181.0769</ele>
        <time>2022-06-01T08:19:17.105Z</time>
      </trkpt>
      <trkpt lat="49.61748362" lon="9.66619334">
        <ele>180.9231</ele>
        <time>2022-06-01T08:19:23.78Z</time>
      </trkpt>
      <trkpt lat="49.61718445" lon="9.66631889">
        <ele>180.6154</ele>
        <time>2022-06-01T08:19:31.083Z</time>
      </trkpt>
      <trkpt lat="49.61708417" lon="9.66667639">
        <ele>180.3846</ele>
        <time>2022-06-01T08:19:37.035Z</time>
      </trkpt>
      <trkpt lat="49.61689695" lon="9.66708223">
        <ele>180.4615</ele>
        <time>2022-06-01T08:19:44.645Z</time>
      </trkpt>
      <trkpt lat="49.61659723" lon="9.6674475">
        <ele>180.5385</ele>
        <time>2022-06-01T08:19:53.644Z</time>
      </trkpt>
      <trkpt lat="49.61548195" lon="9.66875223">
        <ele>180.6154</ele>
        <time>2022-06-01T08:20:26.639Z</time>
      </trkpt>
      <trkpt lat="49.61431917" lon="9.67093973">
        <ele>180.8462</ele>
        <time>2022-06-01T08:21:09.891Z</time>
      </trkpt>
      <trkpt lat="49.61375195" lon="9.67205223">
        <ele>181.0769</ele>
        <time>2022-06-01T08:21:31.532Z</time>
      </trkpt>
      <trkpt lat="49.61299334" lon="9.67300417">
        <ele>181.4615</ele>
        <time>2022-06-01T08:21:54.586Z</time>
      </trkpt>
      <trkpt lat="49.61250223" lon="9.67364889">
        <ele>181.6923</ele>
        <time>2022-06-01T08:22:09.79Z</time>
      </trkpt>
      <trkpt lat="49.61246473" lon="9.67381112">
        <ele>181.8462</ele>
        <time>2022-06-01T08:22:12.422Z</time>
      </trkpt>
      <trkpt lat="49.61181667" lon="9.67487445">
        <ele>182.0769</ele>
        <time>2022-06-01T08:22:34.734Z</time>
      </trkpt>
      <trkpt lat="49.61141639" lon="9.67545167">
        <ele>182.4615</ele>
        <time>2022-06-01T08:22:47.654Z</time>
      </trkpt>
      <trkpt lat="49.61116556" lon="9.67595584">
        <ele>182.7692</ele>
        <time>2022-06-01T08:22:57.372Z</time>
      </trkpt>
      <trkpt lat="49.6110075" lon="9.67620834">
        <ele>183</ele>
        <time>2022-06-01T08:23:02.734Z</time>
      </trkpt>
      <trkpt lat="49.61070723" lon="9.67642973">
        <ele>183.3846</ele>
        <time>2022-06-01T08:23:10.574Z</time>
      </trkpt>
      <trkpt lat="49.61038195" lon="9.67655223">
        <ele>183.6154</ele>
        <time>2022-06-01T08:23:18.461Z</time>
      </trkpt>
      <trkpt lat="49.61010195" lon="9.67653223">
        <ele>183.7692</ele>
        <time>2022-06-01T08:23:25.063Z</time>
      </trkpt>
      <trkpt lat="49.60962751" lon="9.676625">
        <ele>183.7692</ele>
        <time>2022-06-01T08:23:36.327Z</time>
      </trkpt>
      <trkpt lat="49.6095275" lon="9.67673223">
        <ele>183.7692</ele>
        <time>2022-06-01T08:23:39.197Z</time>
      </trkpt>
      <trkpt lat="49.60945278" lon="9.67680334">
        <ele>183.9231</ele>
        <time>2022-06-01T08:23:41.265Z</time>
      </trkpt>
      <trkpt lat="49.60939195" lon="9.67679223">
        <ele>184</ele>
        <time>2022-06-01T08:23:42.708Z</time>
      </trkpt>
      <trkpt lat="49.60873084" lon="9.67689612">
        <ele>184.1538</ele>
        <time>2022-06-01T08:23:58.36Z</time>
      </trkpt>
      <trkpt lat="49.60841195" lon="9.67697223">
        <ele>184.3846</ele>
        <time>2022-06-01T08:24:05.96Z</time>
      </trkpt>
      <trkpt lat="49.60774112" lon="9.67698223">
        <ele>184.3077</ele>
        <time>2022-06-01T08:24:21.761Z</time>
      </trkpt>
      <trkpt lat="49.60715056" lon="9.67708223">
        <ele>184.3077</ele>
        <time>2022-06-01T08:24:35.754Z</time>
      </trkpt>
      <trkpt lat="49.60638834" lon="9.67712056">
        <ele>185.5385</ele>
        <time>2022-06-01T08:24:53.716Z</time>
      </trkpt>
      <trkpt lat="49.60626751" lon="9.67714056">
        <ele>186.0769</ele>
        <time>2022-06-01T08:24:56.578Z</time>
      </trkpt>
      <trkpt lat="49.60573195" lon="9.67733223">
        <ele>186.2308</ele>
        <time>2022-06-01T08:25:09.528Z</time>
      </trkpt>
      <trkpt lat="49.60535195" lon="9.67757223">
        <ele>186.3846</ele>
        <time>2022-06-01T08:25:19.201Z</time>
      </trkpt>
      <trkpt lat="49.60405195" lon="9.67884223">
        <ele>186.4615</ele>
        <time>2022-06-01T08:25:55.469Z</time>
      </trkpt>
      <trkpt lat="49.60123556" lon="9.68129834">
        <ele>186.6154</ele>
        <time>2022-06-01T08:27:11.716Z</time>
      </trkpt>
      <trkpt lat="49.60093639" lon="9.68159">
        <ele>186.6923</ele>
        <time>2022-06-01T08:27:20.054Z</time>
      </trkpt>
      <trkpt lat="49.60048389" lon="9.68222445">
        <ele>186.6923</ele>
        <time>2022-06-01T08:27:34.473Z</time>
      </trkpt>
      <trkpt lat="49.60016362" lon="9.68237612">
        <ele>186.5385</ele>
        <time>2022-06-01T08:27:42.365Z</time>
      </trkpt>
      <trkpt lat="49.59953195" lon="9.68274195">
        <ele>186.3846</ele>
        <time>2022-06-01T08:27:58.259Z</time>
      </trkpt>
      <trkpt lat="49.59918667" lon="9.68317639">
        <ele>186.1538</ele>
        <time>2022-06-01T08:28:08.764Z</time>
      </trkpt>
      <trkpt lat="49.59897917" lon="9.683485">
        <ele>186.1538</ele>
        <time>2022-06-01T08:28:15.557Z</time>
      </trkpt>
      <trkpt lat="49.59851556" lon="9.68392056">
        <ele>186.0769</ele>
        <time>2022-06-01T08:28:28.351Z</time>
      </trkpt>
      <trkpt lat="49.59756251" lon="9.68492945">
        <ele>184.9231</ele>
        <time>2022-06-01T08:28:55.598Z</time>
      </trkpt>
      <trkpt lat="49.59695251" lon="9.68558362">
        <ele>184.4615</ele>
        <time>2022-06-01T08:29:13.111Z</time>
      </trkpt>
      <trkpt lat="49.59686528" lon="9.68588501">
        <ele>184.2308</ele>
        <time>2022-06-01T08:29:18.156Z</time>
      </trkpt>
      <trkpt lat="49.59686639" lon="9.68625973">
        <ele>184</ele>
        <time>2022-06-01T08:29:23.885Z</time>
      </trkpt>
      <trkpt lat="49.59686917" lon="9.68616">
        <ele>183.8462</ele>
        <time>2022-06-01T08:29:25.411Z</time>
      </trkpt>
      <trkpt lat="49.59649612" lon="9.68622834">
        <ele>183.7692</ele>
        <time>2022-06-01T08:29:34.259Z</time>
      </trkpt>
      <trkpt lat="49.59590973" lon="9.68647917">
        <ele>183.6923</ele>
        <time>2022-06-01T08:29:48.593Z</time>
      </trkpt>
      <trkpt lat="49.59524195" lon="9.68687612">
        <ele>183.6154</ele>
        <time>2022-06-01T08:30:05.451Z</time>
      </trkpt>
      <trkpt lat="49.59525917" lon="9.68688473">
        <ele>183.7692</ele>
        <time>2022-06-01T08:30:05.877Z</time>
      </trkpt>
      <trkpt lat="49.59432362" lon="9.687655">
        <ele>183.9231</ele>
        <time>2022-06-01T08:30:30.869Z</time>
      </trkpt>
      <trkpt lat="49.59359417" lon="9.68817723">
        <ele>184.1538</ele>
        <time>2022-06-01T08:30:49.819Z</time>
      </trkpt>
      <trkpt lat="49.59302917" lon="9.68856056">
        <ele>184.3846</ele>
        <time>2022-06-01T08:31:04.36Z</time>
      </trkpt>
      <trkpt lat="49.59271195" lon="9.68889195">
        <ele>184.4615</ele>
        <time>2022-06-01T08:31:13.387Z</time>
      </trkpt>
      <trkpt lat="49.59232389" lon="9.689305">
        <ele>184.4615</ele>
        <time>2022-06-01T08:31:24.501Z</time>
      </trkpt>
      <trkpt lat="49.59212889" lon="9.68955695">
        <ele>184.3846</ele>
        <time>2022-06-01T08:31:30.495Z</time>
      </trkpt>
      <trkpt lat="49.59205028" lon="9.68970278">
        <ele>184.3077</ele>
        <time>2022-06-01T08:31:33.393Z</time>
      </trkpt>
      <trkpt lat="49.59206445" lon="9.68988501">
        <ele>184.3077</ele>
        <time>2022-06-01T08:31:36.199Z</time>
      </trkpt>
      <trkpt lat="49.59221501" lon="9.69023917">
        <ele>184.4615</ele>
        <time>2022-06-01T08:31:42.672Z</time>
      </trkpt>
      <trkpt lat="49.59238945" lon="9.69068139">
        <ele>184.4615</ele>
        <time>2022-06-01T08:31:50.592Z</time>
      </trkpt>
      <trkpt lat="49.59241889" lon="9.69088528">
        <ele>184.6154</ele>
        <time>2022-06-01T08:31:53.785Z</time>
      </trkpt>
      <trkpt lat="49.59222" lon="9.69122139">
        <ele>184.6923</ele>
        <time>2022-06-01T08:32:00.738Z</time>
      </trkpt>
      <trkpt lat="49.59061473" lon="9.69291639">
        <ele>184.7692</ele>
        <time>2022-06-01T08:32:46.596Z</time>
      </trkpt>
      <trkpt lat="49.58450195" lon="9.69780167">
        <ele>184.8462</ele>
        <time>2022-06-01T08:35:28.842Z</time>
      </trkpt>
      <trkpt lat="49.58381195" lon="9.69831167">
        <ele>184.8462</ele>
        <time>2022-06-01T08:35:46.872Z</time>
      </trkpt>
      <trkpt lat="49.58233195" lon="9.69914167">
        <ele>185.2308</ele>
        <time>2022-06-01T08:36:23.975Z</time>
      </trkpt>
      <trkpt lat="49.58182195" lon="9.69955167">
        <ele>186</ele>
        <time>2022-06-01T08:36:37.529Z</time>
      </trkpt>
      <trkpt lat="49.58066195" lon="9.70068167">
        <ele>186.8462</ele>
        <time>2022-06-01T08:37:09.869Z</time>
      </trkpt>
      <trkpt lat="49.57957195" lon="9.70189167">
        <ele>187.4615</ele>
        <time>2022-06-01T08:37:41.53Z</time>
      </trkpt>
      <trkpt lat="49.57918195" lon="9.70216167">
        <ele>188.0769</ele>
        <time>2022-06-01T08:37:51.601Z</time>
      </trkpt>
      <trkpt lat="49.57900195" lon="9.70218167">
        <ele>188.6154</ele>
        <time>2022-06-01T08:37:55.851Z</time>
      </trkpt>
      <trkpt lat="49.57872417" lon="9.70054945">
        <ele>189.1538</ele>
        <time>2022-06-01T08:38:21.69Z</time>
      </trkpt>
      <trkpt lat="49.57833195" lon="9.69926167">
        <ele>189.8462</ele>
        <time>2022-06-01T08:38:43.469Z</time>
      </trkpt>
      <trkpt lat="49.57820195" lon="9.69929167">
        <ele>190.6154</ele>
        <time>2022-06-01T08:38:46.565Z</time>
      </trkpt>
      <trkpt lat="49.57555167" lon="9.70120417">
        <ele>191.4615</ele>
        <time>2022-06-01T08:39:55.517Z</time>
      </trkpt>
      <trkpt lat="49.57373751" lon="9.70258473">
        <ele>192.2308</ele>
        <time>2022-06-01T08:40:43.191Z</time>
      </trkpt>
      <trkpt lat="49.57328195" lon="9.70290167">
        <ele>193</ele>
        <time>2022-06-01T08:40:54.965Z</time>
      </trkpt>
      <trkpt lat="49.57239056" lon="9.70266695">
        <ele>193.7692</ele>
        <time>2022-06-01T08:41:16.264Z</time>
      </trkpt>
      <trkpt lat="49.57199667" lon="9.70260417">
        <ele>194.1538</ele>
        <time>2022-06-01T08:41:25.591Z</time>
      </trkpt>
      <trkpt lat="49.57172389" lon="9.70258917">
        <ele>194.3846</ele>
        <time>2022-06-01T08:41:32.02Z</time>
      </trkpt>
      <trkpt lat="49.57164695" lon="9.70262806">
        <ele>194.4615</ele>
        <time>2022-06-01T08:41:33.927Z</time>
      </trkpt>
      <trkpt lat="49.57111" lon="9.70289278">
        <ele>194.8462</ele>
        <time>2022-06-01T08:41:47.206Z</time>
      </trkpt>
      <trkpt lat="49.57081028" lon="9.70287723">
        <ele>195.2308</ele>
        <time>2022-06-01T08:41:54.269Z</time>
      </trkpt>
      <trkpt lat="49.57044389" lon="9.70278056">
        <ele>195.6154</ele>
        <time>2022-06-01T08:42:03.024Z</time>
      </trkpt>
      <trkpt lat="49.57029251" lon="9.70271917">
        <ele>195.8462</ele>
        <time>2022-06-01T08:42:06.711Z</time>
      </trkpt>
      <trkpt lat="49.56991112" lon="9.70296612">
        <ele>196.0769</ele>
        <time>2022-06-01T08:42:16.456Z</time>
      </trkpt>
      <trkpt lat="49.56998278" lon="9.70335667">
        <ele>196.3846</ele>
        <time>2022-06-01T08:42:22.664Z</time>
      </trkpt>
      <trkpt lat="49.56985723" lon="9.70344084">
        <ele>196.3846</ele>
        <time>2022-06-01T08:42:25.889Z</time>
      </trkpt>
      <trkpt lat="49.56995" lon="9.70334084">
        <ele>196.4615</ele>
        <time>2022-06-01T08:42:28.556Z</time>
      </trkpt>
      <trkpt lat="49.56954195" lon="9.70358139">
        <ele>196.8462</ele>
        <time>2022-06-01T08:42:38.847Z</time>
      </trkpt>
      <trkpt lat="49.56894445" lon="9.70393723">
        <ele>197.2308</ele>
        <time>2022-06-01T08:42:53.936Z</time>
      </trkpt>
      <trkpt lat="49.56880028" lon="9.70401473">
        <ele>197.4615</ele>
        <time>2022-06-01T08:42:57.533Z</time>
      </trkpt>
      <trkpt lat="49.56804001" lon="9.70457334">
        <ele>197.5385</ele>
        <time>2022-06-01T08:43:17.379Z</time>
      </trkpt>
      <trkpt lat="49.56730362" lon="9.70512695">
        <ele>197.6154</ele>
        <time>2022-06-01T08:43:36.685Z</time>
      </trkpt>
      <trkpt lat="49.56552278" lon="9.70666084">
        <ele>197.6923</ele>
        <time>2022-06-01T08:44:24.762Z</time>
      </trkpt>
      <trkpt lat="49.56455528" lon="9.70757334">
        <ele>197.6154</ele>
        <time>2022-06-01T08:44:51.495Z</time>
      </trkpt>
      <trkpt lat="49.56455" lon="9.70751195">
        <ele>197.4615</ele>
        <time>2022-06-01T08:44:52.442Z</time>
      </trkpt>
      <trkpt lat="49.56493723" lon="9.70841389">
        <ele>197.2308</ele>
        <time>2022-06-01T08:45:08.998Z</time>
      </trkpt>
      <trkpt lat="49.56517167" lon="9.70900278">
        <ele>197.5385</ele>
        <time>2022-06-01T08:45:19.575Z</time>
      </trkpt>
      <trkpt lat="49.56493112" lon="9.70942">
        <ele>197.0769</ele>
        <time>2022-06-01T08:45:28.116Z</time>
      </trkpt>
      <trkpt lat="49.56426028" lon="9.71014223">
        <ele>196.8462</ele>
        <time>2022-06-01T08:45:47.405Z</time>
      </trkpt>
      <trkpt lat="49.56357806" lon="9.71080917">
        <ele>196.6154</ele>
        <time>2022-06-01T08:46:06.446Z</time>
      </trkpt>
      <trkpt lat="49.56283584" lon="9.71153028">
        <ele>196</ele>
        <time>2022-06-01T08:46:27.125Z</time>
      </trkpt>
      <trkpt lat="49.56185362" lon="9.71257695">
        <ele>195.6154</ele>
        <time>2022-06-01T08:46:55.273Z</time>
      </trkpt>
      <trkpt lat="49.56112167" lon="9.71109528">
        <ele>195.3077</ele>
        <time>2022-06-01T08:47:23.777Z</time>
      </trkpt>
      <trkpt lat="49.56184612" lon="9.71261278">
        <ele>195.0769</ele>
        <time>2022-06-01T08:47:52.615Z</time>
      </trkpt>
      <trkpt lat="49.56168528" lon="9.71283056">
        <ele>195</ele>
        <time>2022-06-01T08:47:57.66Z</time>
      </trkpt>
      <trkpt lat="49.56152889" lon="9.71312112">
        <ele>194.9231</ele>
        <time>2022-06-01T08:48:03.433Z</time>
      </trkpt>
      <trkpt lat="49.56097834" lon="9.71362112">
        <ele>194.8462</ele>
        <time>2022-06-01T08:48:18.493Z</time>
      </trkpt>
      <trkpt lat="49.55996667" lon="9.71452584">
        <ele>195.0769</ele>
        <time>2022-06-01T08:48:46.059Z</time>
      </trkpt>
      <trkpt lat="49.55888973" lon="9.71556528">
        <ele>195.2308</ele>
        <time>2022-06-01T08:49:16.009Z</time>
      </trkpt>
      <trkpt lat="49.55847889" lon="9.71594112">
        <ele>194.1538</ele>
        <time>2022-06-01T08:49:27.265Z</time>
      </trkpt>
      <trkpt lat="49.55838167" lon="9.71615723">
        <ele>193.6923</ele>
        <time>2022-06-01T08:49:31.287Z</time>
      </trkpt>
      <trkpt lat="49.5571" lon="9.7169575">
        <ele>193.6923</ele>
        <time>2022-06-01T08:50:03.869Z</time>
      </trkpt>
      <trkpt lat="49.55584139" lon="9.71768251">
        <ele>193.6923</ele>
        <time>2022-06-01T08:50:35.526Z</time>
      </trkpt>
      <trkpt lat="49.55552917" lon="9.71758473">
        <ele>193.3077</ele>
        <time>2022-06-01T08:50:43.03Z</time>
      </trkpt>
      <trkpt lat="49.55527251" lon="9.71775917">
        <ele>192.9231</ele>
        <time>2022-06-01T08:50:49.638Z</time>
      </trkpt>
      <trkpt lat="49.55535417" lon="9.71861195">
        <ele>192.7692</ele>
        <time>2022-06-01T08:51:02.845Z</time>
      </trkpt>
      <trkpt lat="49.55463195" lon="9.71870139">
        <ele>192.7692</ele>
        <time>2022-06-01T08:51:19.91Z</time>
      </trkpt>
      <trkpt lat="49.55371028" lon="9.71927223">
        <ele>192.8462</ele>
        <time>2022-06-01T08:51:43.314Z</time>
      </trkpt>
      <trkpt lat="49.55203834" lon="9.72047778">
        <ele>192.9231</ele>
        <time>2022-06-01T08:52:26.81Z</time>
      </trkpt>
      <trkpt lat="49.54985251" lon="9.72201973">
        <ele>193.0769</ele>
        <time>2022-06-01T08:53:23.455Z</time>
      </trkpt>
      <trkpt lat="49.54913195" lon="9.72272112">
        <ele>192.9231</ele>
        <time>2022-06-01T08:53:43.543Z</time>
      </trkpt>
      <trkpt lat="49.54849751" lon="9.72340834">
        <ele>192.9231</ele>
        <time>2022-06-01T08:54:01.824Z</time>
      </trkpt>
      <trkpt lat="49.54596195" lon="9.72520112">
        <ele>193.7692</ele>
        <time>2022-06-01T08:55:07.559Z</time>
      </trkpt>
      <trkpt lat="49.54580195" lon="9.72532112">
        <ele>194.6923</ele>
        <time>2022-06-01T08:55:11.751Z</time>
      </trkpt>
      <trkpt lat="49.54558084" lon="9.72547862">
        <ele>194.6923</ele>
        <time>2022-06-01T08:55:17.489Z</time>
      </trkpt>
      <trkpt lat="49.54525195" lon="9.72571112">
        <ele>194.7692</ele>
        <time>2022-06-01T08:55:26.013Z</time>
      </trkpt>
      <trkpt lat="49.54395195" lon="9.72662112">
        <ele>195</ele>
        <time>2022-06-01T08:55:59.658Z</time>
      </trkpt>
      <trkpt lat="49.54313195" lon="9.72768112">
        <ele>194.9231</ele>
        <time>2022-06-01T08:56:24.895Z</time>
      </trkpt>
      <trkpt lat="49.54393195" lon="9.72937889">
        <ele>195</ele>
        <time>2022-06-01T08:56:57.021Z</time>
      </trkpt>
      <trkpt lat="49.54366001" lon="9.72964834">
        <ele>195.2308</ele>
        <time>2022-06-01T08:57:04.639Z</time>
      </trkpt>
      <trkpt lat="49.54249139" lon="9.7304575">
        <ele>195.2308</ele>
        <time>2022-06-01T08:57:34.828Z</time>
      </trkpt>
      <trkpt lat="49.54118195" lon="9.73183084">
        <ele>195.1538</ele>
        <time>2022-06-01T08:58:12.167Z</time>
      </trkpt>
      <trkpt lat="49.54006195" lon="9.73177084">
        <ele>195.0769</ele>
        <time>2022-06-01T08:58:38.562Z</time>
      </trkpt>
      <trkpt lat="49.53963195" lon="9.73195112">
        <ele>195</ele>
        <time>2022-06-01T08:58:49.059Z</time>
      </trkpt>
      <trkpt lat="49.53841195" lon="9.73256084">
        <ele>195.0769</ele>
        <time>2022-06-01T08:59:19.275Z</time>
      </trkpt>
      <trkpt lat="49.53702334" lon="9.73340306">
        <ele>195.3077</ele>
        <time>2022-06-01T08:59:54.436Z</time>
      </trkpt>
      <trkpt lat="49.53644167" lon="9.73365806">
        <ele>195.3077</ele>
        <time>2022-06-01T09:00:08.681Z</time>
      </trkpt>
      <trkpt lat="49.53607195" lon="9.73399084">
        <ele>195.7692</ele>
        <time>2022-06-01T09:00:18.769Z</time>
      </trkpt>
      <trkpt lat="49.53448195" lon="9.73389084">
        <ele>196</ele>
        <time>2022-06-01T09:00:56.249Z</time>
      </trkpt>
      <trkpt lat="49.53305195" lon="9.73416084">
        <ele>196.5385</ele>
        <time>2022-06-01T09:01:30.182Z</time>
      </trkpt>
      <trkpt lat="49.53149195" lon="9.73408084">
        <ele>196.9231</ele>
        <time>2022-06-01T09:02:06.944Z</time>
      </trkpt>
      <trkpt lat="49.52954195" lon="9.73446084">
        <ele>197.0769</ele>
        <time>2022-06-01T09:02:53.238Z</time>
      </trkpt>
      <trkpt lat="49.52909195" lon="9.73445084">
        <ele>196.8462</ele>
        <time>2022-06-01T09:03:03.838Z</time>
      </trkpt>
      <trkpt lat="49.52817195" lon="9.73464084">
        <ele>196.6154</ele>
        <time>2022-06-01T09:03:25.701Z</time>
      </trkpt>
      <trkpt lat="49.52732195" lon="9.73497084">
        <ele>196.6923</ele>
        <time>2022-06-01T09:03:46.348Z</time>
      </trkpt>
      <trkpt lat="49.52720251" lon="9.7350775">
        <ele>197.1538</ele>
        <time>2022-06-01T09:03:49.601Z</time>
      </trkpt>
      <trkpt lat="49.52730973" lon="9.73564306">
        <ele>197.3077</ele>
        <time>2022-06-01T09:03:58.632Z</time>
      </trkpt>
      <trkpt lat="49.52698195" lon="9.73675084">
        <ele>197.3077</ele>
        <time>2022-06-01T09:04:17.288Z</time>
      </trkpt>
      <trkpt lat="49.52683723" lon="9.73711945">
        <ele>196.9231</ele>
        <time>2022-06-01T09:04:23.881Z</time>
      </trkpt>
      <trkpt lat="49.52675195" lon="9.73779084">
        <ele>196.6154</ele>
        <time>2022-06-01T09:04:34.368Z</time>
      </trkpt>
      <trkpt lat="49.52675195" lon="9.73993084">
        <ele>196.6154</ele>
        <time>2022-06-01T09:05:07.177Z</time>
      </trkpt>
      <trkpt lat="49.52678362" lon="9.74112362">
        <ele>196.4615</ele>
        <time>2022-06-01T09:05:25.479Z</time>
      </trkpt>
      <trkpt lat="49.52574028" lon="9.74177834">
        <ele>196.4615</ele>
        <time>2022-06-01T09:05:52.023Z</time>
      </trkpt>
      <trkpt lat="49.52579251" lon="9.74175417">
        <ele>196.6154</ele>
        <time>2022-06-01T09:05:53.308Z</time>
      </trkpt>
      <trkpt lat="49.52542723" lon="9.74193667">
        <ele>196.4615</ele>
        <time>2022-06-01T09:06:02.354Z</time>
      </trkpt>
      <trkpt lat="49.52477195" lon="9.74233084">
        <ele>196.3077</ele>
        <time>2022-06-01T09:06:18.925Z</time>
      </trkpt>
      <trkpt lat="49.52502778" lon="9.74459612">
        <ele>196.4615</ele>
        <time>2022-06-01T09:06:54.174Z</time>
      </trkpt>
      <trkpt lat="49.52376139" lon="9.74513973">
        <ele>196.3077</ele>
        <time>2022-06-01T09:07:25.143Z</time>
      </trkpt>
      <trkpt lat="49.52283195" lon="9.74547056">
        <ele>196</ele>
        <time>2022-06-01T09:07:47.612Z</time>
      </trkpt>
      <trkpt lat="49.52261362" lon="9.74543028">
        <ele>196</ele>
        <time>2022-06-01T09:07:52.791Z</time>
      </trkpt>
      <trkpt lat="49.52246195" lon="9.74491056">
        <ele>196.0769</ele>
        <time>2022-06-01T09:08:01.524Z</time>
      </trkpt>
      <trkpt lat="49.52226195" lon="9.74461056">
        <ele>196.1538</ele>
        <time>2022-06-01T09:08:08.103Z</time>
      </trkpt>
      <trkpt lat="49.52146195" lon="9.74471056">
        <ele>196.3846</ele>
        <time>2022-06-01T09:08:27.007Z</time>
      </trkpt>
      <trkpt lat="49.52042195" lon="9.74533056">
        <ele>196.3846</ele>
        <time>2022-06-01T09:08:53.282Z</time>
      </trkpt>
      <trkpt lat="49.51993195" lon="9.74552056">
        <ele>196.6154</ele>
        <time>2022-06-01T09:09:05.184Z</time>
      </trkpt>
      <trkpt lat="49.51947195" lon="9.74565056">
        <ele>196.8462</ele>
        <time>2022-06-01T09:09:16.199Z</time>
      </trkpt>
      <trkpt lat="49.51740195" lon="9.74595056">
        <ele>197.3077</ele>
        <time>2022-06-01T09:10:05.168Z</time>
      </trkpt>
      <trkpt lat="49.51611195" lon="9.74629056">
        <ele>198</ele>
        <time>2022-06-01T09:10:35.993Z</time>
      </trkpt>
      <trkpt lat="49.51558195" lon="9.74664056">
        <ele>198.6154</ele>
        <time>2022-06-01T09:10:49.578Z</time>
      </trkpt>
      <trkpt lat="49.51539195" lon="9.74744056">
        <ele>199</ele>
        <time>2022-06-01T09:11:02.636Z</time>
      </trkpt>
      <trkpt lat="49.51540195" lon="9.74791056">
        <ele>199.2308</ele>
        <time>2022-06-01T09:11:09.847Z</time>
      </trkpt>
      <trkpt lat="49.51512473" lon="9.74814806">
        <ele>199.3846</ele>
        <time>2022-06-01T09:11:17.321Z</time>
      </trkpt>
      <trkpt lat="49.51485112" lon="9.74853195">
        <ele>199.5385</ele>
        <time>2022-06-01T09:11:26.044Z</time>
      </trkpt>
      <trkpt lat="49.51485195" lon="9.74857056">
        <ele>199.5385</ele>
        <time>2022-06-01T09:11:26.636Z</time>
      </trkpt>
      <trkpt lat="49.51462195" lon="9.74825056">
        <ele>199.6154</ele>
        <time>2022-06-01T09:11:33.941Z</time>
      </trkpt>
      <trkpt lat="49.51447195" lon="9.74767056">
        <ele>199.5385</ele>
        <time>2022-06-01T09:11:43.511Z</time>
      </trkpt>
      <trkpt lat="49.51434112" lon="9.74693917">
        <ele>199.4615</ele>
        <time>2022-06-01T09:11:55.142Z</time>
      </trkpt>
      <trkpt lat="49.51443112" lon="9.74709417">
        <ele>199.3846</ele>
        <time>2022-06-01T09:11:58.324Z</time>
      </trkpt>
      <trkpt lat="49.51411528" lon="9.74708917">
        <ele>199.1538</ele>
        <time>2022-06-01T09:12:05.763Z</time>
      </trkpt>
      <trkpt lat="49.51278778" lon="9.74736001">
        <ele>198.7692</ele>
        <time>2022-06-01T09:12:37.303Z</time>
      </trkpt>
      <trkpt lat="49.51177445" lon="9.74782917">
        <ele>198.3846</ele>
        <time>2022-06-01T09:13:02.23Z</time>
      </trkpt>
      <trkpt lat="49.51101639" lon="9.74791473">
        <ele>198.1538</ele>
        <time>2022-06-01T09:13:20.132Z</time>
      </trkpt>
      <trkpt lat="49.51019584" lon="9.74790223">
        <ele>198</ele>
        <time>2022-06-01T09:13:39.459Z</time>
      </trkpt>
      <trkpt lat="49.50918112" lon="9.74856556">
        <ele>198.3077</ele>
        <time>2022-06-01T09:14:05.433Z</time>
      </trkpt>
      <trkpt lat="49.50848167" lon="9.74933028">
        <ele>198.8462</ele>
        <time>2022-06-01T09:14:25.655Z</time>
      </trkpt>
      <trkpt lat="49.50538167" lon="9.75034945">
        <ele>199.0769</ele>
        <time>2022-06-01T09:15:40.322Z</time>
      </trkpt>
      <trkpt lat="49.50525278" lon="9.75073528">
        <ele>199.2308</ele>
        <time>2022-06-01T09:15:46.966Z</time>
      </trkpt>
      <trkpt lat="49.50493389" lon="9.75121528">
        <ele>199.3846</ele>
        <time>2022-06-01T09:15:57.483Z</time>
      </trkpt>
      <trkpt lat="49.50429945" lon="9.75169028">
        <ele>199.6154</ele>
        <time>2022-06-01T09:16:14.107Z</time>
      </trkpt>
      <trkpt lat="49.50297056" lon="9.75215473">
        <ele>199.8462</ele>
        <time>2022-06-01T09:16:46.206Z</time>
      </trkpt>
      <trkpt lat="49.50246556" lon="9.75214695">
        <ele>200.1538</ele>
        <time>2022-06-01T09:16:58.101Z</time>
      </trkpt>
      <trkpt lat="49.50171001" lon="9.75184445">
        <ele>200.7692</ele>
        <time>2022-06-01T09:17:16.489Z</time>
      </trkpt>
      <trkpt lat="49.50132056" lon="9.75348639">
        <ele>201.6154</ele>
        <time>2022-06-01T09:17:43.293Z</time>
      </trkpt>
      <trkpt lat="49.50125112" lon="9.75445501">
        <ele>202.5385</ele>
        <time>2022-06-01T09:17:58.24Z</time>
      </trkpt>
      <trkpt lat="49.50143862" lon="9.75474862">
        <ele>203.6154</ele>
        <time>2022-06-01T09:18:04.543Z</time>
      </trkpt>
      <trkpt lat="49.50174973" lon="9.75543195">
        <ele>205.2308</ele>
        <time>2022-06-01T09:18:17.332Z</time>
      </trkpt>
      <trkpt lat="49.50206167" lon="9.75601834">
        <ele>206.1538</ele>
        <time>2022-06-01T09:18:28.946Z</time>
      </trkpt>
      <trkpt lat="49.50218278" lon="9.75679584">
        <ele>206.5385</ele>
        <time>2022-06-01T09:18:41.208Z</time>
      </trkpt>
      <trkpt lat="49.50226028" lon="9.75722528">
        <ele>207.4615</ele>
        <time>2022-06-01T09:18:48.043Z</time>
      </trkpt>
      <trkpt lat="49.50250667" lon="9.75807528">
        <ele>208.4615</ele>
        <time>2022-06-01T09:19:02.314Z</time>
      </trkpt>
      <trkpt lat="49.50266584" lon="9.75852862">
        <ele>209.3077</ele>
        <time>2022-06-01T09:19:10.214Z</time>
      </trkpt>
      <trkpt lat="49.50255" lon="9.7588475">
        <ele>210.3077</ele>
        <time>2022-06-01T09:19:15.809Z</time>
      </trkpt>
      <trkpt lat="49.50228667" lon="9.75846445">
        <ele>211</ele>
        <time>2022-06-01T09:19:24.347Z</time>
      </trkpt>
      <trkpt lat="49.50133612" lon="9.75940973">
        <ele>211.7692</ele>
        <time>2022-06-01T09:19:51.02Z</time>
      </trkpt>
      <trkpt lat="49.50141" lon="9.75936473">
        <ele>212.4615</ele>
        <time>2022-06-01T09:19:52.892Z</time>
      </trkpt>
      <trkpt lat="49.5002175" lon="9.76106639">
        <ele>212.8462</ele>
        <time>2022-06-01T09:20:31.235Z</time>
      </trkpt>
      <trkpt lat="49.49970056" lon="9.76207362">
        <ele>213.0769</ele>
        <time>2022-06-01T09:20:50.906Z</time>
      </trkpt>
      <trkpt lat="49.49936723" lon="9.764285">
        <ele>213.3077</ele>
        <time>2022-06-01T09:21:25.724Z</time>
      </trkpt>
      <trkpt lat="49.49912306" lon="9.76580195">
        <ele>212.9231</ele>
        <time>2022-06-01T09:21:49.694Z</time>
      </trkpt>
      <trkpt lat="49.49905167" lon="9.76625751">
        <ele>212.7692</ele>
        <time>2022-06-01T09:21:56.882Z</time>
      </trkpt>
      <trkpt lat="49.49884723" lon="9.76739001">
        <ele>212.3846</ele>
        <time>2022-06-01T09:22:14.909Z</time>
      </trkpt>
      <trkpt lat="49.49832334" lon="9.76960001">
        <ele>211.8462</ele>
        <time>2022-06-01T09:22:50.986Z</time>
      </trkpt>
      <trkpt lat="49.49784639" lon="9.77156028">
        <ele>211.4615</ele>
        <time>2022-06-01T09:23:23.086Z</time>
      </trkpt>
      <trkpt lat="49.49751195" lon="9.77303667">
        <ele>211.1538</ele>
        <time>2022-06-01T09:23:47.065Z</time>
      </trkpt>
      <trkpt lat="49.497105" lon="9.77478306">
        <ele>210.7692</ele>
        <time>2022-06-01T09:24:15.518Z</time>
      </trkpt>
      <trkpt lat="49.49694306" lon="9.77565584">
        <ele>210.3846</ele>
        <time>2022-06-01T09:24:29.439Z</time>
      </trkpt>
      <trkpt lat="49.49640834" lon="9.77534806">
        <ele>209.8462</ele>
        <time>2022-06-01T09:24:42.887Z</time>
      </trkpt>
      <trkpt lat="49.49645945" lon="9.77536973">
        <ele>209.1538</ele>
        <time>2022-06-01T09:24:44.136Z</time>
      </trkpt>
      <trkpt lat="49.49605862" lon="9.77503862">
        <ele>208.5385</ele>
        <time>2022-06-01T09:24:54.853Z</time>
      </trkpt>
      <trkpt lat="49.49570501" lon="9.77473056">
        <ele>208.0769</ele>
        <time>2022-06-01T09:25:04.425Z</time>
      </trkpt>
      <trkpt lat="49.49540195" lon="9.77436139">
        <ele>207.3846</ele>
        <time>2022-06-01T09:25:13.532Z</time>
      </trkpt>
      <trkpt lat="49.49546473" lon="9.77408528">
        <ele>206.7692</ele>
        <time>2022-06-01T09:25:18.013Z</time>
      </trkpt>
      <trkpt lat="49.49533028" lon="9.773945">
        <ele>206.3846</ele>
        <time>2022-06-01T09:25:21.84Z</time>
      </trkpt>
      <trkpt lat="49.49521056" lon="9.77398084">
        <ele>206.4615</ele>
        <time>2022-06-01T09:25:24.713Z</time>
      </trkpt>
      <trkpt lat="49.49514223" lon="9.77412389">
        <ele>206.3846</ele>
        <time>2022-06-01T09:25:27.432Z</time>
      </trkpt>
      <trkpt lat="49.49504612" lon="9.77428112">
        <ele>206.3077</ele>
        <time>2022-06-01T09:25:30.737Z</time>
      </trkpt>
      <trkpt lat="49.49498556" lon="9.77437">
        <ele>206.2308</ele>
        <time>2022-06-01T09:25:32.709Z</time>
      </trkpt>
      <trkpt lat="49.49456612" lon="9.77435695">
        <ele>206</ele>
        <time>2022-06-01T09:25:42.59Z</time>
      </trkpt>
      <trkpt lat="49.49456973" lon="9.7743375">
        <ele>206.0057</ele>
        <time>2022-06-01T09:25:42.9Z</time>
      </trkpt>
      <trkpt lat="49.4945775" lon="9.77299362">
        <ele>206.3846</ele>
        <time>2022-06-01T09:26:03.518Z</time>
      </trkpt>
      <trkpt lat="49.49458751" lon="9.77148473">
        <ele>206.5385</ele>
        <time>2022-06-01T09:26:26.667Z</time>
      </trkpt>
      <trkpt lat="49.49459278" lon="9.77072334">
        <ele>206.6154</ele>
        <time>2022-06-01T09:26:38.348Z</time>
      </trkpt>
      <trkpt lat="49.49442" lon="9.77076695">
        <ele>206.6154</ele>
        <time>2022-06-01T09:26:42.472Z</time>
      </trkpt>
      <trkpt lat="49.49427667" lon="9.77065667">
        <ele>206.7692</ele>
        <time>2022-06-01T09:26:46.247Z</time>
      </trkpt>
      <trkpt lat="49.49426528" lon="9.77015723">
        <ele>207.2308</ele>
        <time>2022-06-01T09:26:53.914Z</time>
      </trkpt>
      <trkpt lat="49.49414473" lon="9.76986417">
        <ele>207.6923</ele>
        <time>2022-06-01T09:26:59.226Z</time>
      </trkpt>
      <trkpt lat="49.49413806" lon="9.76939806">
        <ele>208.0769</ele>
        <time>2022-06-01T09:27:06.378Z</time>
      </trkpt>
      <trkpt lat="49.49407278" lon="9.7692625">
        <ele>208.4615</ele>
        <time>2022-06-01T09:27:08.962Z</time>
      </trkpt>
      <trkpt lat="49.49384945" lon="9.76916417">
        <ele>208.6923</ele>
        <time>2022-06-01T09:27:14.433Z</time>
      </trkpt>
      <trkpt lat="49.49355223" lon="9.76911112">
        <ele>209</ele>
        <time>2022-06-01T09:27:21.48Z</time>
      </trkpt>
      <trkpt lat="49.49322806" lon="9.76912195">
        <ele>209.3077</ele>
        <time>2022-06-01T09:27:29.117Z</time>
      </trkpt>
      <trkpt lat="49.49307917" lon="9.76916528">
        <ele>209.5385</ele>
        <time>2022-06-01T09:27:32.686Z</time>
      </trkpt>
      <trkpt lat="49.49305778" lon="9.76900556">
        <ele>209.8462</ele>
        <time>2022-06-01T09:27:35.184Z</time>
      </trkpt>
      <trkpt lat="49.49301723" lon="9.76882639">
        <ele>210.0769</ele>
        <time>2022-06-01T09:27:38.09Z</time>
      </trkpt>
      <trkpt lat="49.4929175" lon="9.76884389">
        <ele>210.3846</ele>
        <time>2022-06-01T09:27:40.454Z</time>
      </trkpt>
      <trkpt lat="49.49275945" lon="9.76885417">
        <ele>210.7692</ele>
        <time>2022-06-01T09:27:44.18Z</time>
      </trkpt>
      <trkpt lat="49.49254778" lon="9.76882528">
        <ele>211</ele>
        <time>2022-06-01T09:27:49.185Z</time>
      </trkpt>
      <trkpt lat="49.49234889" lon="9.76875834">
        <ele>210.9231</ele>
        <time>2022-06-01T09:27:53.98Z</time>
      </trkpt>
      <trkpt lat="49.49234195" lon="9.76870889">
        <ele>210.8462</ele>
        <time>2022-06-01T09:27:54.755Z</time>
      </trkpt>
      <trkpt lat="49.49223973" lon="9.76915889">
        <ele>210.7692</ele>
        <time>2022-06-01T09:28:02.067Z</time>
      </trkpt>
      <trkpt lat="49.49224639" lon="9.76906862">
        <ele>210.9231</ele>
        <time>2022-06-01T09:28:03.459Z</time>
      </trkpt>
      <trkpt lat="49.49210334" lon="9.76968501">
        <ele>211.2308</ele>
        <time>2022-06-01T09:28:13.498Z</time>
      </trkpt>
      <trkpt lat="49.49212778" lon="9.76956195">
        <ele>211.5385</ele>
        <time>2022-06-01T09:28:15.469Z</time>
      </trkpt>
      <trkpt lat="49.49194334" lon="9.77043139">
        <ele>211.7692</ele>
        <time>2022-06-01T09:28:29.497Z</time>
      </trkpt>
      <trkpt lat="49.49196889" lon="9.77039195">
        <ele>212</ele>
        <time>2022-06-01T09:28:30.35Z</time>
      </trkpt>
      <trkpt lat="49.49154223" lon="9.77015862">
        <ele>212.3077</ele>
        <time>2022-06-01T09:28:41.016Z</time>
      </trkpt>
      <trkpt lat="49.49088667" lon="9.7699675">
        <ele>212.5385</ele>
        <time>2022-06-01T09:28:56.731Z</time>
      </trkpt>
      <trkpt lat="49.49107667" lon="9.77068278">
        <ele>212.6923</ele>
        <time>2022-06-01T09:29:08.582Z</time>
      </trkpt>
      <trkpt lat="49.49115778" lon="9.77105167">
        <ele>212.7692</ele>
        <time>2022-06-01T09:29:14.548Z</time>
      </trkpt>
      <trkpt lat="49.49117473" lon="9.77200306">
        <ele>212.9231</ele>
        <time>2022-06-01T09:29:29.15Z</time>
      </trkpt>
      <trkpt lat="49.49109056" lon="9.77278612">
        <ele>213.0769</ele>
        <time>2022-06-01T09:29:41.326Z</time>
      </trkpt>
      <trkpt lat="49.49114251" lon="9.77273612">
        <ele>213.2308</ele>
        <time>2022-06-01T09:29:42.77Z</time>
      </trkpt>
      <trkpt lat="49.49108223" lon="9.77291723">
        <ele>213.3077</ele>
        <time>2022-06-01T09:29:45.887Z</time>
      </trkpt>
      <trkpt lat="49.49099973" lon="9.77316945">
        <ele>213.6154</ele>
        <time>2022-06-01T09:29:50.212Z</time>
      </trkpt>
      <trkpt lat="49.49102" lon="9.77314">
        <ele>214</ele>
        <time>2022-06-01T09:29:50.869Z</time>
      </trkpt>
      <trkpt lat="49.49095084" lon="9.77334528">
        <ele>214.4615</ele>
        <time>2022-06-01T09:29:54.411Z</time>
      </trkpt>
      <trkpt lat="49.49092278" lon="9.77338473">
        <ele>215</ele>
        <time>2022-06-01T09:29:55.307Z</time>
      </trkpt>
      <trkpt lat="49.49089251" lon="9.77361195">
        <ele>215.2308</ele>
        <time>2022-06-01T09:29:58.86Z</time>
      </trkpt>
      <trkpt lat="49.49096723" lon="9.77524667">
        <ele>215.0769</ele>
        <time>2022-06-01T09:30:24.002Z</time>
      </trkpt>
      <trkpt lat="49.49064" lon="9.77576389">
        <ele>214.9231</ele>
        <time>2022-06-01T09:30:35.064Z</time>
      </trkpt>
      <trkpt lat="49.49013084" lon="9.77648612">
        <ele>214.8462</ele>
        <time>2022-06-01T09:30:51.392Z</time>
      </trkpt>
      <trkpt lat="49.49018445" lon="9.77640612">
        <ele>214.6154</ele>
        <time>2022-06-01T09:30:53.152Z</time>
      </trkpt>
      <trkpt lat="49.49016889" lon="9.77658112">
        <ele>214.3077</ele>
        <time>2022-06-01T09:30:55.858Z</time>
      </trkpt>
      <trkpt lat="49.49019584" lon="9.77674028">
        <ele>213.6923</ele>
        <time>2022-06-01T09:30:58.378Z</time>
      </trkpt>
      <trkpt lat="49.49055084" lon="9.7775325">
        <ele>213.2308</ele>
        <time>2022-06-01T09:31:13.131Z</time>
      </trkpt>
      <trkpt lat="49.49076306" lon="9.77812028">
        <ele>212.9231</ele>
        <time>2022-06-01T09:31:23.441Z</time>
      </trkpt>
      <trkpt lat="49.49086612" lon="9.77850973">
        <ele>212.2308</ele>
        <time>2022-06-01T09:31:29.882Z</time>
      </trkpt>
      <trkpt lat="49.49095334" lon="9.77905195">
        <ele>211.3846</ele>
        <time>2022-06-01T09:31:38.451Z</time>
      </trkpt>
      <trkpt lat="49.49111973" lon="9.77984695">
        <ele>210.4615</ele>
        <time>2022-06-01T09:31:51.262Z</time>
      </trkpt>
      <trkpt lat="49.49138973" lon="9.78073695">
        <ele>209.4615</ele>
        <time>2022-06-01T09:32:06.325Z</time>
      </trkpt>
      <trkpt lat="49.49155556" lon="9.78117917">
        <ele>208.6154</ele>
        <time>2022-06-01T09:32:14.153Z</time>
      </trkpt>
      <trkpt lat="49.49159473" lon="9.78138306">
        <ele>208.1538</ele>
        <time>2022-06-01T09:32:17.41Z</time>
      </trkpt>
      <trkpt lat="49.49167945" lon="9.78156334">
        <ele>207.7692</ele>
        <time>2022-06-01T09:32:20.817Z</time>
      </trkpt>
      <trkpt lat="49.49178278" lon="9.78156917">
        <ele>207.3846</ele>
        <time>2022-06-01T09:32:23.252Z</time>
      </trkpt>
      <trkpt lat="49.491775" lon="9.78152028">
        <ele>207.2308</ele>
        <time>2022-06-01T09:32:24.023Z</time>
      </trkpt>
      <trkpt lat="49.49178584" lon="9.78218889">
        <ele>207.0769</ele>
        <time>2022-06-01T09:32:34.284Z</time>
      </trkpt>
      <trkpt lat="49.49178362" lon="9.78245195">
        <ele>207.3077</ele>
        <time>2022-06-01T09:32:38.314Z</time>
      </trkpt>
      <trkpt lat="49.49179334" lon="9.78256167">
        <ele>207.4615</ele>
        <time>2022-06-01T09:32:40.01Z</time>
      </trkpt>
      <trkpt lat="49.49178167" lon="9.782525">
        <ele>207.6923</ele>
        <time>2022-06-01T09:32:40.635Z</time>
      </trkpt>
      <trkpt lat="49.49191862" lon="9.78277945">
        <ele>208</ele>
        <time>2022-06-01T09:32:45.695Z</time>
      </trkpt>
      <trkpt lat="49.49202195" lon="9.78299">
        <ele>208.3077</ele>
        <time>2022-06-01T09:32:49.736Z</time>
      </trkpt>
      <trkpt lat="49.49201889" lon="9.78341778">
        <ele>208.3846</ele>
        <time>2022-06-01T09:32:56.299Z</time>
      </trkpt>
      <trkpt lat="49.49202556" lon="9.78371778">
        <ele>208.5385</ele>
        <time>2022-06-01T09:33:00.898Z</time>
      </trkpt>
      <trkpt lat="49.49208667" lon="9.78403417">
        <ele>208.6923</ele>
        <time>2022-06-01T09:33:05.954Z</time>
      </trkpt>
      <trkpt lat="49.49219056" lon="9.78436278">
        <ele>208.8462</ele>
        <time>2022-06-01T09:33:11.551Z</time>
      </trkpt>
      <trkpt lat="49.49212195" lon="9.78548">
        <ele>208.9231</ele>
        <time>2022-06-01T09:33:28.767Z</time>
      </trkpt>
      <trkpt lat="49.49182195" lon="9.78624">
        <ele>209</ele>
        <time>2022-06-01T09:33:42.401Z</time>
      </trkpt>
      <trkpt lat="49.49269195" lon="9.78730001">
        <ele>209</ele>
        <time>2022-06-01T09:34:08.561Z</time>
      </trkpt>
      <trkpt lat="49.49275806" lon="9.78739473">
        <ele>208.9231</ele>
        <time>2022-06-01T09:34:10.689Z</time>
      </trkpt>
      <trkpt lat="49.49278473" lon="9.78768639">
        <ele>208.9231</ele>
        <time>2022-06-01T09:34:15.201Z</time>
      </trkpt>
      <trkpt lat="49.49309723" lon="9.79063112">
        <ele>208.9231</ele>
        <time>2022-06-01T09:35:00.974Z</time>
      </trkpt>
      <trkpt lat="49.49331362" lon="9.79107445">
        <ele>208.6154</ele>
        <time>2022-06-01T09:35:09.473Z</time>
      </trkpt>
      <trkpt lat="49.49338195" lon="9.79158">
        <ele>208.3846</ele>
        <time>2022-06-01T09:35:17.394Z</time>
      </trkpt>
      <trkpt lat="49.49341112" lon="9.79281278">
        <ele>208.3077</ele>
        <time>2022-06-01T09:35:36.319Z</time>
      </trkpt>
      <trkpt lat="49.49347612" lon="9.79330778">
        <ele>208.5385</ele>
        <time>2022-06-01T09:35:44.066Z</time>
      </trkpt>
      <trkpt lat="49.49354556" lon="9.79403889">
        <ele>208.6923</ele>
        <time>2022-06-01T09:35:55.401Z</time>
      </trkpt>
      <trkpt lat="49.49360556" lon="9.79558112">
        <ele>208.6923</ele>
        <time>2022-06-01T09:36:19.103Z</time>
      </trkpt>
      <trkpt lat="49.49389195" lon="9.7982">
        <ele>208.7692</ele>
        <time>2022-06-01T09:36:59.843Z</time>
      </trkpt>
      <trkpt lat="49.49432001" lon="9.79911195">
        <ele>208.7692</ele>
        <time>2022-06-01T09:37:17.088Z</time>
      </trkpt>
      <trkpt lat="49.49494195" lon="9.80071001">
        <ele>208.9231</ele>
        <time>2022-06-01T09:37:45.647Z</time>
      </trkpt>
      <trkpt lat="49.49508167" lon="9.80128001">
        <ele>209.3077</ele>
        <time>2022-06-01T09:37:54.99Z</time>
      </trkpt>
      <trkpt lat="49.49527195" lon="9.80289">
        <ele>209.5385</ele>
        <time>2022-06-01T09:38:20.092Z</time>
      </trkpt>
      <trkpt lat="49.49533167" lon="9.80470001">
        <ele>209.6154</ele>
        <time>2022-06-01T09:38:47.895Z</time>
      </trkpt>
      <trkpt lat="49.49528167" lon="9.80578001">
        <ele>209.6154</ele>
        <time>2022-06-01T09:39:04.505Z</time>
      </trkpt>
      <trkpt lat="49.49495167" lon="9.8081">
        <ele>210.0769</ele>
        <time>2022-06-01T09:39:40.935Z</time>
      </trkpt>
      <trkpt lat="49.49441167" lon="9.81019473">
        <ele>210.3846</ele>
        <time>2022-06-01T09:40:15.496Z</time>
      </trkpt>
      <trkpt lat="49.49421723" lon="9.81075917">
        <ele>210.3077</ele>
        <time>2022-06-01T09:40:25.292Z</time>
      </trkpt>
      <trkpt lat="49.49373167" lon="9.81176">
        <ele>210.1538</ele>
        <time>2022-06-01T09:40:44.437Z</time>
      </trkpt>
      <trkpt lat="49.49312862" lon="9.81295834">
        <ele>210</ele>
        <time>2022-06-01T09:41:07.669Z</time>
      </trkpt>
      <trkpt lat="49.49284084" lon="9.81326723">
        <ele>210</ele>
        <time>2022-06-01T09:41:15.935Z</time>
      </trkpt>
      <trkpt lat="49.49211167" lon="9.81349">
        <ele>209.9231</ele>
        <time>2022-06-01T09:41:33.444Z</time>
      </trkpt>
      <trkpt lat="49.49198167" lon="9.81332">
        <ele>209.9231</ele>
        <time>2022-06-01T09:41:37.464Z</time>
      </trkpt>
      <trkpt lat="49.49151167" lon="9.81204">
        <ele>209.7692</ele>
        <time>2022-06-01T09:42:00.007Z</time>
      </trkpt>
      <trkpt lat="49.49142167" lon="9.81204">
        <ele>209.4615</ele>
        <time>2022-06-01T09:42:02.127Z</time>
      </trkpt>
      <trkpt lat="49.49130167" lon="9.81255">
        <ele>209.3846</ele>
        <time>2022-06-01T09:42:10.446Z</time>
      </trkpt>
      <trkpt lat="49.49106167" lon="9.81293">
        <ele>209.3846</ele>
        <time>2022-06-01T09:42:18.56Z</time>
      </trkpt>
      <trkpt lat="49.49046723" lon="9.81335584">
        <ele>209.6154</ele>
        <time>2022-06-01T09:42:34.01Z</time>
      </trkpt>
      <trkpt lat="49.49023139" lon="9.81347167">
        <ele>209.7692</ele>
        <time>2022-06-01T09:42:39.841Z</time>
      </trkpt>
      <trkpt lat="49.49007862" lon="9.81336723">
        <ele>210.2308</ele>
        <time>2022-06-01T09:42:43.779Z</time>
      </trkpt>
      <trkpt lat="49.48976112" lon="9.81311056">
        <ele>210.6154</ele>
        <time>2022-06-01T09:42:52.228Z</time>
      </trkpt>
      <trkpt lat="49.48959167" lon="9.81302806">
        <ele>211.3077</ele>
        <time>2022-06-01T09:42:56.414Z</time>
      </trkpt>
      <trkpt lat="49.48943389" lon="9.81302556">
        <ele>212.3077</ele>
        <time>2022-06-01T09:43:00.13Z</time>
      </trkpt>
      <trkpt lat="49.48798167" lon="9.81415973">
        <ele>212.9231</ele>
        <time>2022-06-01T09:43:38.505Z</time>
      </trkpt>
      <trkpt lat="49.48706167" lon="9.81439973">
        <ele>213.1538</ele>
        <time>2022-06-01T09:44:00.483Z</time>
      </trkpt>
      <trkpt lat="49.48596167" lon="9.81442973">
        <ele>213.5385</ele>
        <time>2022-06-01T09:44:26.395Z</time>
      </trkpt>
      <trkpt lat="49.48470167" lon="9.81495973">
        <ele>214</ele>
        <time>2022-06-01T09:44:57.165Z</time>
      </trkpt>
      <trkpt lat="49.48346195" lon="9.81495973">
        <ele>215.0769</ele>
        <time>2022-06-01T09:45:26.363Z</time>
      </trkpt>
      <trkpt lat="49.48288195" lon="9.81485973">
        <ele>215.9231</ele>
        <time>2022-06-01T09:45:40.109Z</time>
      </trkpt>
      <trkpt lat="49.48168195" lon="9.81589973">
        <ele>216.4615</ele>
        <time>2022-06-01T09:46:12.566Z</time>
      </trkpt>
      <trkpt lat="49.48059167" lon="9.81706973">
        <ele>217.1538</ele>
        <time>2022-06-01T09:46:43.899Z</time>
      </trkpt>
      <trkpt lat="49.48009167" lon="9.81778973">
        <ele>217.7692</ele>
        <time>2022-06-01T09:47:00.047Z</time>
      </trkpt>
      <trkpt lat="49.47897167" lon="9.82012973">
        <ele>218.0769</ele>
        <time>2022-06-01T09:47:44.604Z</time>
      </trkpt>
      <trkpt lat="49.47798167" lon="9.82196973">
        <ele>218.4615</ele>
        <time>2022-06-01T09:48:21.224Z</time>
      </trkpt>
      <trkpt lat="49.47733834" lon="9.82306417">
        <ele>218.3846</ele>
        <time>2022-06-01T09:48:43.844Z</time>
      </trkpt>
      <trkpt lat="49.47672167" lon="9.82486973">
        <ele>218.0769</ele>
        <time>2022-06-01T09:49:15.129Z</time>
      </trkpt>
      <trkpt lat="49.47539334" lon="9.82961612">
        <ele>218</ele>
        <time>2022-06-01T09:50:34.406Z</time>
      </trkpt>
      <trkpt lat="49.47482667" lon="9.83079584">
        <ele>218.2308</ele>
        <time>2022-06-01T09:50:56.899Z</time>
      </trkpt>
      <trkpt lat="49.47446528" lon="9.83135445">
        <ele>218.3846</ele>
        <time>2022-06-01T09:51:08.98Z</time>
      </trkpt>
      <trkpt lat="49.47422973" lon="9.83172001">
        <ele>218.5385</ele>
        <time>2022-06-01T09:51:16.864Z</time>
      </trkpt>
      <trkpt lat="49.47394417" lon="9.83252278">
        <ele>218</ele>
        <time>2022-06-01T09:51:30.901Z</time>
      </trkpt>
      <trkpt lat="49.47451167" lon="9.83292973">
        <ele>217.6154</ele>
        <time>2022-06-01T09:51:45.654Z</time>
      </trkpt>
      <trkpt lat="49.47500167" lon="9.83349973">
        <ele>217.3077</ele>
        <time>2022-06-01T09:52:00.135Z</time>
      </trkpt>
      <trkpt lat="49.47543167" lon="9.83374973">
        <ele>216.5385</ele>
        <time>2022-06-01T09:52:10.963Z</time>
      </trkpt>
      <trkpt lat="49.47607167" lon="9.83392945">
        <ele>215.7692</ele>
        <time>2022-06-01T09:52:26.286Z</time>
      </trkpt>
      <trkpt lat="49.47691028" lon="9.83441306">
        <ele>215.0769</ele>
        <time>2022-06-01T09:52:47.386Z</time>
      </trkpt>
      <trkpt lat="49.47675862" lon="9.83469695">
        <ele>214.6154</ele>
        <time>2022-06-01T09:52:53.015Z</time>
      </trkpt>
      <trkpt lat="49.47670473" lon="9.83495334">
        <ele>214.3077</ele>
        <time>2022-06-01T09:52:57.144Z</time>
      </trkpt>
      <trkpt lat="49.47670806" lon="9.83589778">
        <ele>214</ele>
        <time>2022-06-01T09:53:11.638Z</time>
      </trkpt>
      <trkpt lat="49.47658751" lon="9.83636612">
        <ele>213.8462</ele>
        <time>2022-06-01T09:53:19.366Z</time>
      </trkpt>
      <trkpt lat="49.47555473" lon="9.83905139">
        <ele>213.7692</ele>
        <time>2022-06-01T09:54:07.22Z</time>
      </trkpt>
      <trkpt lat="49.47528973" lon="9.84012639">
        <ele>213.8462</ele>
        <time>2022-06-01T09:54:24.859Z</time>
      </trkpt>
      <trkpt lat="49.47513778" lon="9.84043362">
        <ele>213.7692</ele>
        <time>2022-06-01T09:54:30.773Z</time>
      </trkpt>
      <trkpt lat="49.47471417" lon="9.84132639">
        <ele>213.6923</ele>
        <time>2022-06-01T09:54:47.722Z</time>
      </trkpt>
      <trkpt lat="49.47463723" lon="9.84162862">
        <ele>213.8462</ele>
        <time>2022-06-01T09:54:52.696Z</time>
      </trkpt>
      <trkpt lat="49.47452167" lon="9.84200945">
        <ele>214.4615</ele>
        <time>2022-06-01T09:54:59.136Z</time>
      </trkpt>
      <trkpt lat="49.47416945" lon="9.84490028">
        <ele>215.1538</ele>
        <time>2022-06-01T09:55:44.272Z</time>
      </trkpt>
      <trkpt lat="49.47383167" lon="9.84806945">
        <ele>215.8462</ele>
        <time>2022-06-01T09:56:33.557Z</time>
      </trkpt>
      <trkpt lat="49.47377167" lon="9.85081945">
        <ele>216.6154</ele>
        <time>2022-06-01T09:57:15.787Z</time>
      </trkpt>
      <trkpt lat="49.47389167" lon="9.85269945">
        <ele>217.3846</ele>
        <time>2022-06-01T09:57:44.779Z</time>
      </trkpt>
      <trkpt lat="49.47397167" lon="9.85624945">
        <ele>218.3077</ele>
        <time>2022-06-01T09:58:39.296Z</time>
      </trkpt>
      <trkpt lat="49.47438167" lon="9.86245945">
        <ele>219.2308</ele>
        <time>2022-06-01T10:00:15.092Z</time>
      </trkpt>
      <trkpt lat="49.47435167" lon="9.86371945">
        <ele>219.9231</ele>
        <time>2022-06-01T10:00:34.443Z</time>
      </trkpt>
      <trkpt lat="49.47409139" lon="9.86705945">
        <ele>220.7692</ele>
        <time>2022-06-01T10:01:26.069Z</time>
      </trkpt>
      <trkpt lat="49.47368028" lon="9.86893001">
        <ele>221.7692</ele>
        <time>2022-06-01T10:01:56.367Z</time>
      </trkpt>
      <trkpt lat="49.47298139" lon="9.87278945">
        <ele>222.9231</ele>
        <time>2022-06-01T10:02:57.846Z</time>
      </trkpt>
      <trkpt lat="49.47273139" lon="9.87361945">
        <ele>224.3077</ele>
        <time>2022-06-01T10:03:11.88Z</time>
      </trkpt>
      <trkpt lat="49.47275139" lon="9.87357917">
        <ele>224.3404</ele>
        <time>2022-06-01T10:03:12.657Z</time>
      </trkpt>
      <trkpt lat="49.47073139" lon="9.87296028">
        <ele>226.3846</ele>
        <time>2022-06-01T10:04:01.172Z</time>
      </trkpt>
      <trkpt lat="49.47007112" lon="9.87260167">
        <ele>226.4615</ele>
        <time>2022-06-01T10:04:17.666Z</time>
      </trkpt>
      <trkpt lat="49.46945084" lon="9.87246056">
        <ele>226.3077</ele>
        <time>2022-06-01T10:04:32.434Z</time>
      </trkpt>
      <trkpt lat="49.46930667" lon="9.87233612">
        <ele>226</ele>
        <time>2022-06-01T10:04:36.329Z</time>
      </trkpt>
      <trkpt lat="49.46854889" lon="9.87178306">
        <ele>225.7692</ele>
        <time>2022-06-01T10:04:56.092Z</time>
      </trkpt>
      <trkpt lat="49.46841584" lon="9.87206251">
        <ele>225.3846</ele>
        <time>2022-06-01T10:05:01.399Z</time>
      </trkpt>
      <trkpt lat="49.46860167" lon="9.87490945">
        <ele>225</ele>
        <time>2022-06-01T10:05:45.316Z</time>
      </trkpt>
      <trkpt lat="49.46858167" lon="9.87837917">
        <ele>225.3077</ele>
        <time>2022-06-01T10:06:38.576Z</time>
      </trkpt>
      <trkpt lat="49.46778139" lon="9.88061945">
        <ele>225.3846</ele>
        <time>2022-06-01T10:07:17.79Z</time>
      </trkpt>
      <trkpt lat="49.46755139" lon="9.88116167">
        <ele>224.9231</ele>
        <time>2022-06-01T10:07:27.72Z</time>
      </trkpt>
      <trkpt lat="49.46710445" lon="9.88192306">
        <ele>224.6923</ele>
        <time>2022-06-01T10:07:43.449Z</time>
      </trkpt>
      <trkpt lat="49.46693334" lon="9.88229917">
        <ele>224.3846</ele>
        <time>2022-06-01T10:07:50.483Z</time>
      </trkpt>
      <trkpt lat="49.46682056" lon="9.88269473">
        <ele>224.0769</ele>
        <time>2022-06-01T10:07:57.102Z</time>
      </trkpt>
      <trkpt lat="49.46652139" lon="9.88449917">
        <ele>224.0769</ele>
        <time>2022-06-01T10:08:25.682Z</time>
      </trkpt>
      <trkpt lat="49.46655139" lon="9.88630917">
        <ele>224.6923</ele>
        <time>2022-06-01T10:08:53.474Z</time>
      </trkpt>
      <trkpt lat="49.46695139" lon="9.88832917">
        <ele>224.9231</ele>
        <time>2022-06-01T10:09:25.88Z</time>
      </trkpt>
      <trkpt lat="49.46737139" lon="9.88996917">
        <ele>225.1538</ele>
        <time>2022-06-01T10:09:52.927Z</time>
      </trkpt>
      <trkpt lat="49.46755139" lon="9.89129917">
        <ele>225.4615</ele>
        <time>2022-06-01T10:10:13.778Z</time>
      </trkpt>
      <trkpt lat="49.46770139" lon="9.89186917">
        <ele>225.7692</ele>
        <time>2022-06-01T10:10:23.214Z</time>
      </trkpt>
      <trkpt lat="49.46836139" lon="9.89297917">
        <ele>226.0769</ele>
        <time>2022-06-01T10:10:46.277Z</time>
      </trkpt>
      <trkpt lat="49.46868139" lon="9.89315917">
        <ele>226.2308</ele>
        <time>2022-06-01T10:10:54.303Z</time>
      </trkpt>
      <trkpt lat="49.46944139" lon="9.89326917">
        <ele>226.4615</ele>
        <time>2022-06-01T10:11:12.282Z</time>
      </trkpt>
      <trkpt lat="49.47087139" lon="9.89387917">
        <ele>226.9231</ele>
        <time>2022-06-01T10:11:47.239Z</time>
      </trkpt>
      <trkpt lat="49.47116612" lon="9.89298223">
        <ele>227.1538</ele>
        <time>2022-06-01T10:12:02.657Z</time>
      </trkpt>
      <trkpt lat="49.47153528" lon="9.89270334">
        <ele>227.1538</ele>
        <time>2022-06-01T10:12:12.345Z</time>
      </trkpt>
      <trkpt lat="49.47194639" lon="9.89403084">
        <ele>227.1538</ele>
        <time>2022-06-01T10:12:34.904Z</time>
      </trkpt>
      <trkpt lat="49.47246945" lon="9.89527473">
        <ele>227.2308</ele>
        <time>2022-06-01T10:12:57.625Z</time>
      </trkpt>
      <trkpt lat="49.47316639" lon="9.89610167">
        <ele>227.5385</ele>
        <time>2022-06-01T10:13:18.374Z</time>
      </trkpt>
      <trkpt lat="49.47399251" lon="9.89644528">
        <ele>228.5385</ele>
        <time>2022-06-01T10:13:38.531Z</time>
      </trkpt>
      <trkpt lat="49.47435139" lon="9.89642917">
        <ele>229.6923</ele>
        <time>2022-06-01T10:13:46.987Z</time>
      </trkpt>
      <trkpt lat="49.47481139" lon="9.89624945">
        <ele>230.8462</ele>
        <time>2022-06-01T10:13:58.166Z</time>
      </trkpt>
      <trkpt lat="49.47584139" lon="9.89628917">
        <ele>232.0769</ele>
        <time>2022-06-01T10:14:22.432Z</time>
      </trkpt>
      <trkpt lat="49.47635139" lon="9.89639945">
        <ele>233.3077</ele>
        <time>2022-06-01T10:14:34.562Z</time>
      </trkpt>
      <trkpt lat="49.47705612" lon="9.89690167">
        <ele>234.2308</ele>
        <time>2022-06-01T10:14:52.862Z</time>
      </trkpt>
      <trkpt lat="49.47738306" lon="9.89729639">
        <ele>235.0769</ele>
        <time>2022-06-01T10:15:02.654Z</time>
      </trkpt>
      <trkpt lat="49.47759973" lon="9.89759973">
        <ele>235.8462</ele>
        <time>2022-06-01T10:15:09.557Z</time>
      </trkpt>
      <trkpt lat="49.478375" lon="9.89810556">
        <ele>236.5385</ele>
        <time>2022-06-01T10:15:29.398Z</time>
      </trkpt>
      <trkpt lat="49.47963473" lon="9.89877139">
        <ele>237.3077</ele>
        <time>2022-06-01T10:16:00.778Z</time>
      </trkpt>
      <trkpt lat="49.47961528" lon="9.89874278">
        <ele>237.476</ele>
        <time>2022-06-01T10:16:01.412Z</time>
      </trkpt>
      <trkpt lat="49.47957389" lon="9.89901584">
        <ele>238.6154</ele>
        <time>2022-06-01T10:16:05.708Z</time>
      </trkpt>
      <trkpt lat="49.47948001" lon="9.89908584">
        <ele>239.0769</ele>
        <time>2022-06-01T10:16:08.166Z</time>
      </trkpt>
      <trkpt lat="49.47944167" lon="9.89926251">
        <ele>239.3846</ele>
        <time>2022-06-01T10:16:11.02Z</time>
      </trkpt>
      <trkpt lat="49.47951084" lon="9.89939306">
        <ele>239.4615</ele>
        <time>2022-06-01T10:16:13.6Z</time>
      </trkpt>
      <trkpt lat="49.47965084" lon="9.89939584">
        <ele>239.3077</ele>
        <time>2022-06-01T10:16:16.898Z</time>
      </trkpt>
      <trkpt lat="49.47977584" lon="9.89959223">
        <ele>239.0769</ele>
        <time>2022-06-01T10:16:21.108Z</time>
      </trkpt>
      <trkpt lat="49.47997028" lon="9.8994425">
        <ele>238.6923</ele>
        <time>2022-06-01T10:16:26.23Z</time>
      </trkpt>
      <trkpt lat="49.47993834" lon="9.89927834">
        <ele>238.0769</ele>
        <time>2022-06-01T10:16:28.856Z</time>
      </trkpt>
      <trkpt lat="49.48015195" lon="9.89923112">
        <ele>237.5385</ele>
        <time>2022-06-01T10:16:33.939Z</time>
      </trkpt>
      <trkpt lat="49.48037889" lon="9.89920445">
        <ele>237.0769</ele>
        <time>2022-06-01T10:16:39.3Z</time>
      </trkpt>
      <trkpt lat="49.48042028" lon="9.89902112">
        <ele>236.6154</ele>
        <time>2022-06-01T10:16:42.274Z</time>
      </trkpt>
      <trkpt lat="49.48050806" lon="9.89886945">
        <ele>236.0769</ele>
        <time>2022-06-01T10:16:45.385Z</time>
      </trkpt>
      <trkpt lat="49.48066806" lon="9.89887223">
        <ele>235.3846</ele>
        <time>2022-06-01T10:16:49.154Z</time>
      </trkpt>
      <trkpt lat="49.48095389" lon="9.89893889">
        <ele>234.3846</ele>
        <time>2022-06-01T10:16:55.963Z</time>
      </trkpt>
      <trkpt lat="49.48106056" lon="9.89896139">
        <ele>233.4615</ele>
        <time>2022-06-01T10:16:58.499Z</time>
      </trkpt>
      <trkpt lat="49.48103695" lon="9.89898362">
        <ele>233.3646</ele>
        <time>2022-06-01T10:16:59.151Z</time>
      </trkpt>
      <trkpt lat="49.48106556" lon="9.89828417">
        <ele>231.7692</ele>
        <time>2022-06-01T10:17:09.905Z</time>
      </trkpt>
      <trkpt lat="49.48110167" lon="9.89792889">
        <ele>231.0769</ele>
        <time>2022-06-01T10:17:15.415Z</time>
      </trkpt>
      <trkpt lat="49.48110445" lon="9.89758112">
        <ele>230.3846</ele>
        <time>2022-06-01T10:17:20.745Z</time>
      </trkpt>
      <trkpt lat="49.48140917" lon="9.89761806">
        <ele>229.7692</ele>
        <time>2022-06-01T10:17:27.944Z</time>
      </trkpt>
      <trkpt lat="49.48167528" lon="9.89758695">
        <ele>229.4615</ele>
        <time>2022-06-01T10:17:34.23Z</time>
      </trkpt>
      <trkpt lat="49.48169195" lon="9.89791834">
        <ele>229.3077</ele>
        <time>2022-06-01T10:17:39.323Z</time>
      </trkpt>
      <trkpt lat="49.48180723" lon="9.89820084">
        <ele>229.1538</ele>
        <time>2022-06-01T10:17:44.433Z</time>
      </trkpt>
      <trkpt lat="49.48207334" lon="9.89845473">
        <ele>229</ele>
        <time>2022-06-01T10:17:51.81Z</time>
      </trkpt>
      <trkpt lat="49.48208806" lon="9.89856834">
        <ele>229.0769</ele>
        <time>2022-06-01T10:17:53.585Z</time>
      </trkpt>
      <trkpt lat="49.48227945" lon="9.89858389">
        <ele>229.3077</ele>
        <time>2022-06-01T10:17:58.099Z</time>
      </trkpt>
      <trkpt lat="49.48226639" lon="9.89898278">
        <ele>229.6154</ele>
        <time>2022-06-01T10:18:04.219Z</time>
      </trkpt>
      <trkpt lat="49.48243917" lon="9.89945528">
        <ele>229.7692</ele>
        <time>2022-06-01T10:18:12.533Z</time>
      </trkpt>
      <trkpt lat="49.48242973" lon="9.89957167">
        <ele>229.9231</ele>
        <time>2022-06-01T10:18:14.33Z</time>
      </trkpt>
      <trkpt lat="49.48232778" lon="9.89980973">
        <ele>229.9231</ele>
        <time>2022-06-01T10:18:18.697Z</time>
      </trkpt>
      <trkpt lat="49.48272445" lon="9.90035778">
        <ele>230</ele>
        <time>2022-06-01T10:18:31.267Z</time>
      </trkpt>
      <trkpt lat="49.48273028" lon="9.90032306">
        <ele>230.1538</ele>
        <time>2022-06-01T10:18:31.816Z</time>
      </trkpt>
      <trkpt lat="49.48288112" lon="9.89919945">
        <ele>230.4615</ele>
        <time>2022-06-01T10:18:49.42Z</time>
      </trkpt>
      <trkpt lat="49.48358834" lon="9.89927862">
        <ele>230.6154</ele>
        <time>2022-06-01T10:19:06.121Z</time>
      </trkpt>
      <trkpt lat="49.48356612" lon="9.899235">
        <ele>230.8462</ele>
        <time>2022-06-01T10:19:06.97Z</time>
      </trkpt>
      <trkpt lat="49.48365306" lon="9.89911556">
        <ele>231</ele>
        <time>2022-06-01T10:19:09.716Z</time>
      </trkpt>
      <trkpt lat="49.48409778" lon="9.89910334">
        <ele>231.1538</ele>
        <time>2022-06-01T10:19:20.192Z</time>
      </trkpt>
      <trkpt lat="49.48453723" lon="9.89928806">
        <ele>231.2308</ele>
        <time>2022-06-01T10:19:30.922Z</time>
      </trkpt>
      <trkpt lat="49.48521389" lon="9.89968028">
        <ele>231.3846</ele>
        <time>2022-06-01T10:19:47.954Z</time>
      </trkpt>
      <trkpt lat="49.48642667" lon="9.90060223">
        <ele>231.6154</ele>
        <time>2022-06-01T10:20:19.829Z</time>
      </trkpt>
      <trkpt lat="49.48751112" lon="9.90153139">
        <ele>232</ele>
        <time>2022-06-01T10:20:49.08Z</time>
      </trkpt>
      <trkpt lat="49.48794501" lon="9.9016775">
        <ele>232.3846</ele>
        <time>2022-06-01T10:20:59.541Z</time>
      </trkpt>
      <trkpt lat="49.48824028" lon="9.90178084">
        <ele>232.8462</ele>
        <time>2022-06-01T10:21:06.673Z</time>
      </trkpt>
      <trkpt lat="49.48825473" lon="9.90195167">
        <ele>233.2308</ele>
        <time>2022-06-01T10:21:09.312Z</time>
      </trkpt>
      <trkpt lat="49.48834778" lon="9.90229889">
        <ele>233.5385</ele>
        <time>2022-06-01T10:21:15.066Z</time>
      </trkpt>
      <trkpt lat="49.48845973" lon="9.90220528">
        <ele>233.7692</ele>
        <time>2022-06-01T10:21:18.068Z</time>
      </trkpt>
      <trkpt lat="49.48850056" lon="9.90227">
        <ele>234.0769</ele>
        <time>2022-06-01T10:21:19.449Z</time>
      </trkpt>
      <trkpt lat="49.48857639" lon="9.90228167">
        <ele>234.0769</ele>
        <time>2022-06-01T10:21:21.244Z</time>
      </trkpt>
      <trkpt lat="49.48867389" lon="9.90218806">
        <ele>234.0769</ele>
        <time>2022-06-01T10:21:23.951Z</time>
      </trkpt>
      <trkpt lat="49.48868862" lon="9.90210306">
        <ele>234</ele>
        <time>2022-06-01T10:21:25.299Z</time>
      </trkpt>
      <trkpt lat="49.48868223" lon="9.90202862">
        <ele>233.9231</ele>
        <time>2022-06-01T10:21:26.449Z</time>
      </trkpt>
      <trkpt lat="49.48884056" lon="9.90179195">
        <ele>233.6923</ele>
        <time>2022-06-01T10:21:31.65Z</time>
      </trkpt>
      <trkpt lat="49.48891806" lon="9.90181917">
        <ele>233.3846</ele>
        <time>2022-06-01T10:21:33.522Z</time>
      </trkpt>
      <trkpt lat="49.48920612" lon="9.90179417">
        <ele>232.9231</ele>
        <time>2022-06-01T10:21:40.317Z</time>
      </trkpt>
      <trkpt lat="49.48953556" lon="9.90170945">
        <ele>232.5385</ele>
        <time>2022-06-01T10:21:48.184Z</time>
      </trkpt>
      <trkpt lat="49.49006445" lon="9.90162806">
        <ele>232.2308</ele>
        <time>2022-06-01T10:22:00.703Z</time>
      </trkpt>
      <trkpt lat="49.49090695" lon="9.90137334">
        <ele>232.0769</ele>
        <time>2022-06-01T10:22:20.926Z</time>
      </trkpt>
      <trkpt lat="49.49123195" lon="9.9012625">
        <ele>232.2308</ele>
        <time>2022-06-01T10:22:28.767Z</time>
      </trkpt>
      <trkpt lat="49.49154417" lon="9.90119445">
        <ele>232.8462</ele>
        <time>2022-06-01T10:22:36.194Z</time>
      </trkpt>
      <trkpt lat="49.49245167" lon="9.90106639">
        <ele>233.4615</ele>
        <time>2022-06-01T10:22:57.658Z</time>
      </trkpt>
      <trkpt lat="49.49305112" lon="9.90107417">
        <ele>234.0769</ele>
        <time>2022-06-01T10:23:11.777Z</time>
      </trkpt>
      <trkpt lat="49.49304473" lon="9.90104362">
        <ele>233.9231</ele>
        <time>2022-06-01T10:23:12.269Z</time>
      </trkpt>
      <trkpt lat="49.49304084" lon="9.90188167">
        <ele>233.7692</ele>
        <time>2022-06-01T10:23:25.126Z</time>
      </trkpt>
      <trkpt lat="49.49313195" lon="9.90238778">
        <ele>233.6923</ele>
        <time>2022-06-01T10:23:33.182Z</time>
      </trkpt>
      <trkpt lat="49.49331445" lon="9.90268473">
        <ele>233.6154</ele>
        <time>2022-06-01T10:23:39.441Z</time>
      </trkpt>
      <trkpt lat="49.49346139" lon="9.90288945">
        <ele>233.5385</ele>
        <time>2022-06-01T10:23:44.111Z</time>
      </trkpt>
      <trkpt lat="49.49374001" lon="9.90335112">
        <ele>233.8462</ele>
        <time>2022-06-01T10:23:53.766Z</time>
      </trkpt>
      <trkpt lat="49.49487" lon="9.90573334">
        <ele>233.9231</ele>
        <time>2022-06-01T10:24:38.976Z</time>
      </trkpt>
      <trkpt lat="49.49503139" lon="9.90711945">
        <ele>234.0769</ele>
        <time>2022-06-01T10:25:00.577Z</time>
      </trkpt>
      <trkpt lat="49.49514806" lon="9.90853334">
        <ele>234.1538</ele>
        <time>2022-06-01T10:25:22.441Z</time>
      </trkpt>
      <trkpt lat="49.49533528" lon="9.91011973">
        <ele>233.8462</ele>
        <time>2022-06-01T10:25:47.174Z</time>
      </trkpt>
      <trkpt lat="49.49552778" lon="9.9114525">
        <ele>233.3077</ele>
        <time>2022-06-01T10:26:08.117Z</time>
      </trkpt>
      <trkpt lat="49.49566612" lon="9.91462612">
        <ele>232.7692</ele>
        <time>2022-06-01T10:26:56.912Z</time>
      </trkpt>
      <trkpt lat="49.49597723" lon="9.91929417">
        <ele>232.2308</ele>
        <time>2022-06-01T10:28:08.897Z</time>
      </trkpt>
      <trkpt lat="49.49592389" lon="9.92506639">
        <ele>232.4615</ele>
        <time>2022-06-01T10:29:37.456Z</time>
      </trkpt>
      <trkpt lat="49.49589528" lon="9.92865667">
        <ele>232.7692</ele>
        <time>2022-06-01T10:30:32.538Z</time>
      </trkpt>
      <trkpt lat="49.49569056" lon="9.93002362">
        <ele>233.1538</ele>
        <time>2022-06-01T10:30:54.055Z</time>
      </trkpt>
      <trkpt lat="49.49548473" lon="9.93279695">
        <ele>233.7692</ele>
        <time>2022-06-01T10:31:36.876Z</time>
      </trkpt>
      <trkpt lat="49.49548667" lon="9.93537417">
        <ele>234.5385</ele>
        <time>2022-06-01T10:32:16.413Z</time>
      </trkpt>
      <trkpt lat="49.49540139" lon="9.93552306">
        <ele>235.6923</ele>
        <time>2022-06-01T10:32:19.452Z</time>
      </trkpt>
      <trkpt lat="49.49477251" lon="9.93765639">
        <ele>237.2308</ele>
        <time>2022-06-01T10:32:55.375Z</time>
      </trkpt>
      <trkpt lat="49.49410112" lon="9.93996917">
        <ele>238.1538</ele>
        <time>2022-06-01T10:33:34.22Z</time>
      </trkpt>
      <trkpt lat="49.49399473" lon="9.94026778">
        <ele>238.9231</ele>
        <time>2022-06-01T10:33:39.436Z</time>
      </trkpt>
      <trkpt lat="49.49374639" lon="9.94054667">
        <ele>240.1538</ele>
        <time>2022-06-01T10:33:46.679Z</time>
      </trkpt>
      <trkpt lat="49.49324112" lon="9.94063917">
        <ele>241</ele>
        <time>2022-06-01T10:33:58.663Z</time>
      </trkpt>
      <trkpt lat="49.49299056" lon="9.94274917">
        <ele>241.9231</ele>
        <time>2022-06-01T10:34:31.567Z</time>
      </trkpt>
      <trkpt lat="49.49305445" lon="9.94303862">
        <ele>242.4615</ele>
        <time>2022-06-01T10:34:36.25Z</time>
      </trkpt>
      <trkpt lat="49.49309667" lon="9.94335056">
        <ele>243.3077</ele>
        <time>2022-06-01T10:34:41.131Z</time>
      </trkpt>
      <trkpt lat="49.49312889" lon="9.94493945">
        <ele>244</ele>
        <time>2022-06-01T10:35:05.519Z</time>
      </trkpt>
      <trkpt lat="49.49316584" lon="9.94597834">
        <ele>244.3077</ele>
        <time>2022-06-01T10:35:21.481Z</time>
      </trkpt>
      <trkpt lat="49.49408362" lon="9.94960723">
        <ele>244.3077</ele>
        <time>2022-06-01T10:36:21.203Z</time>
      </trkpt>
      <trkpt lat="49.49438084" lon="9.95038834">
        <ele>244.2308</ele>
        <time>2022-06-01T10:36:35.081Z</time>
      </trkpt>
      <trkpt lat="49.49498445" lon="9.95129639">
        <ele>243.5385</ele>
        <time>2022-06-01T10:36:54.985Z</time>
      </trkpt>
      <trkpt lat="49.49567723" lon="9.95236139">
        <ele>242.5385</ele>
        <time>2022-06-01T10:37:18.075Z</time>
      </trkpt>
      <trkpt lat="49.49612639" lon="9.95299">
        <ele>242.1538</ele>
        <time>2022-06-01T10:37:32.389Z</time>
      </trkpt>
      <trkpt lat="49.49644723" lon="9.95315278">
        <ele>241.7692</ele>
        <time>2022-06-01T10:37:40.346Z</time>
      </trkpt>
      <trkpt lat="49.49667834" lon="9.95309223">
        <ele>241.0769</ele>
        <time>2022-06-01T10:37:45.868Z</time>
      </trkpt>
      <trkpt lat="49.49689112" lon="9.95322917">
        <ele>240.5385</ele>
        <time>2022-06-01T10:37:51.301Z</time>
      </trkpt>
      <trkpt lat="49.49771917" lon="9.95398778">
        <ele>240.0769</ele>
        <time>2022-06-01T10:38:14.012Z</time>
      </trkpt>
      <trkpt lat="49.49792501" lon="9.95439834">
        <ele>240.0769</ele>
        <time>2022-06-01T10:38:21.96Z</time>
      </trkpt>
      <trkpt lat="49.49939862" lon="9.95786584">
        <ele>239.8462</ele>
        <time>2022-06-01T10:39:25.473Z</time>
      </trkpt>
      <trkpt lat="49.50077639" lon="9.96182251">
        <ele>239.9231</ele>
        <time>2022-06-01T10:40:34.296Z</time>
      </trkpt>
      <trkpt lat="49.50133417" lon="9.96327056">
        <ele>240.1538</ele>
        <time>2022-06-01T10:41:00.102Z</time>
      </trkpt>
      <trkpt lat="49.50234834" lon="9.96491751">
        <ele>240.3846</ele>
        <time>2022-06-01T10:41:34.869Z</time>
      </trkpt>
      <trkpt lat="49.50377723" lon="9.96703112">
        <ele>240.7692</ele>
        <time>2022-06-01T10:42:21.598Z</time>
      </trkpt>
      <trkpt lat="49.50407945" lon="9.96759028">
        <ele>240.9231</ele>
        <time>2022-06-01T10:42:32.744Z</time>
      </trkpt>
      <trkpt lat="49.50439723" lon="9.96825917">
        <ele>241.2308</ele>
        <time>2022-06-01T10:42:45.443Z</time>
      </trkpt>
      <trkpt lat="49.50496917" lon="9.96918139">
        <ele>241.6154</ele>
        <time>2022-06-01T10:43:04.976Z</time>
      </trkpt>
      <trkpt lat="49.50527112" lon="9.9696875">
        <ele>242.1538</ele>
        <time>2022-06-01T10:43:15.504Z</time>
      </trkpt>
      <trkpt lat="49.50579473" lon="9.97022778">
        <ele>242.7692</ele>
        <time>2022-06-01T10:43:30.362Z</time>
      </trkpt>
      <trkpt lat="49.50665001" lon="9.97045084">
        <ele>243.3846</ele>
        <time>2022-06-01T10:43:50.794Z</time>
      </trkpt>
      <trkpt lat="49.50711445" lon="9.97048501">
        <ele>243.7692</ele>
        <time>2022-06-01T10:44:01.745Z</time>
      </trkpt>
      <trkpt lat="49.50807862" lon="9.97021695">
        <ele>244</ele>
        <time>2022-06-01T10:44:24.822Z</time>
      </trkpt>
      <trkpt lat="49.50897084" lon="9.97013528">
        <ele>244.2308</ele>
        <time>2022-06-01T10:44:45.873Z</time>
      </trkpt>
      <trkpt lat="49.50897584" lon="9.96993389">
        <ele>244.1538</ele>
        <time>2022-06-01T10:44:48.96Z</time>
      </trkpt>
      <trkpt lat="49.50921556" lon="9.96976612">
        <ele>244.0769</ele>
        <time>2022-06-01T10:44:55.163Z</time>
      </trkpt>
      <trkpt lat="49.50987806" lon="9.96913751">
        <ele>244.2308</ele>
        <time>2022-06-01T10:45:13.504Z</time>
      </trkpt>
      <trkpt lat="49.51000278" lon="9.96910167">
        <ele>244.3846</ele>
        <time>2022-06-01T10:45:16.492Z</time>
      </trkpt>
      <trkpt lat="49.510295" lon="9.96953473">
        <ele>244.6154</ele>
        <time>2022-06-01T10:45:26.056Z</time>
      </trkpt>
      <trkpt lat="49.51041473" lon="9.96962223">
        <ele>244.8462</ele>
        <time>2022-06-01T10:45:29.178Z</time>
      </trkpt>
      <trkpt lat="49.51073528" lon="9.97083195">
        <ele>244.7692</ele>
        <time>2022-06-01T10:45:49.208Z</time>
      </trkpt>
      <trkpt lat="49.51084334" lon="9.97086445">
        <ele>244.6154</ele>
        <time>2022-06-01T10:45:51.801Z</time>
      </trkpt>
      <trkpt lat="49.51084667" lon="9.97125056">
        <ele>244.3077</ele>
        <time>2022-06-01T10:45:57.715Z</time>
      </trkpt>
      <trkpt lat="49.51180917" lon="9.97437889">
        <ele>243.9231</ele>
        <time>2022-06-01T10:46:50.777Z</time>
      </trkpt>
      <trkpt lat="49.51213112" lon="9.97532278">
        <ele>243.6154</ele>
        <time>2022-06-01T10:47:07.118Z</time>
      </trkpt>
      <trkpt lat="49.51225862" lon="9.97580862">
        <ele>243.4615</ele>
        <time>2022-06-01T10:47:15.151Z</time>
      </trkpt>
      <trkpt lat="49.51257778" lon="9.97639889">
        <ele>243.1538</ele>
        <time>2022-06-01T10:47:26.917Z</time>
      </trkpt>
      <trkpt lat="49.51343667" lon="9.97801417">
        <ele>243.2308</ele>
        <time>2022-06-01T10:47:58.898Z</time>
      </trkpt>
      <trkpt lat="49.51336028" lon="9.97812695">
        <ele>243.2308</ele>
        <time>2022-06-01T10:48:01.392Z</time>
      </trkpt>
      <trkpt lat="49.51342556" lon="9.97910806">
        <ele>243</ele>
        <time>2022-06-01T10:48:16.516Z</time>
      </trkpt>
      <trkpt lat="49.51352528" lon="9.97955">
        <ele>243</ele>
        <time>2022-06-01T10:48:23.689Z</time>
      </trkpt>
      <trkpt lat="49.51369556" lon="9.98021028">
        <ele>243.0769</ele>
        <time>2022-06-01T10:48:34.58Z</time>
      </trkpt>
      <trkpt lat="49.51451889" lon="9.98264584">
        <ele>243.1538</ele>
        <time>2022-06-01T10:49:16.663Z</time>
      </trkpt>
      <trkpt lat="49.51467084" lon="9.98433945">
        <ele>243.4615</ele>
        <time>2022-06-01T10:49:42.88Z</time>
      </trkpt>
      <trkpt lat="49.51482084" lon="9.98446945">
        <ele>243.6154</ele>
        <time>2022-06-01T10:49:46.935Z</time>
      </trkpt>
      <trkpt lat="49.51510084" lon="9.98478917">
        <ele>243.7692</ele>
        <time>2022-06-01T10:49:55.148Z</time>
      </trkpt>
      <trkpt lat="49.51564056" lon="9.98536945">
        <ele>244.0769</ele>
        <time>2022-06-01T10:50:10.665Z</time>
      </trkpt>
      <trkpt lat="49.51584056" lon="9.98559945">
        <ele>244.3846</ele>
        <time>2022-06-01T10:50:16.547Z</time>
      </trkpt>
      <trkpt lat="49.51655056" lon="9.98635945">
        <ele>244.6154</ele>
        <time>2022-06-01T10:50:36.93Z</time>
      </trkpt>
      <trkpt lat="49.51709084" lon="9.98693945">
        <ele>245.1538</ele>
        <time>2022-06-01T10:50:52.455Z</time>
      </trkpt>
      <trkpt lat="49.51733695" lon="9.98718084">
        <ele>245.3077</ele>
        <time>2022-06-01T10:50:59.33Z</time>
      </trkpt>
      <trkpt lat="49.51732139" lon="9.98738889">
        <ele>245.5385</ele>
        <time>2022-06-01T10:51:02.537Z</time>
      </trkpt>
      <trkpt lat="49.51656195" lon="9.98824528">
        <ele>246.0769</ele>
        <time>2022-06-01T10:51:24.727Z</time>
      </trkpt>
      <trkpt lat="49.51689862" lon="9.98911889">
        <ele>246.1538</ele>
        <time>2022-06-01T10:51:40.294Z</time>
      </trkpt>
      <trkpt lat="49.51722223" lon="9.98987917">
        <ele>246.2308</ele>
        <time>2022-06-01T10:51:54.223Z</time>
      </trkpt>
      <trkpt lat="49.51783056" lon="9.99141945">
        <ele>246.2308</ele>
        <time>2022-06-01T10:52:21.848Z</time>
      </trkpt>
      <trkpt lat="49.51835167" lon="9.99290334">
        <ele>246.1538</ele>
        <time>2022-06-01T10:52:47.701Z</time>
      </trkpt>
      <trkpt lat="49.51846612" lon="9.99343001">
        <ele>246.3077</ele>
        <time>2022-06-01T10:52:56.215Z</time>
      </trkpt>
      <trkpt lat="49.51861056" lon="9.99469945">
        <ele>246.4615</ele>
        <time>2022-06-01T10:53:15.975Z</time>
      </trkpt>
      <trkpt lat="49.51882056" lon="9.99558945">
        <ele>246.6154</ele>
        <time>2022-06-01T10:53:30.491Z</time>
      </trkpt>
      <trkpt lat="49.51907806" lon="9.99656723">
        <ele>246.9231</ele>
        <time>2022-06-01T10:53:46.664Z</time>
      </trkpt>
      <trkpt lat="49.51925584" lon="9.99757473">
        <ele>247.1538</ele>
        <time>2022-06-01T10:54:02.67Z</time>
      </trkpt>
      <trkpt lat="49.51924112" lon="9.99822139">
        <ele>247.2308</ele>
        <time>2022-06-01T10:54:12.592Z</time>
      </trkpt>
      <trkpt lat="49.51911056" lon="9.99878945">
        <ele>247.4615</ele>
        <time>2022-06-01T10:54:21.829Z</time>
      </trkpt>
      <trkpt lat="49.51874056" lon="10.00009917">
        <ele>247.6923</ele>
        <time>2022-06-01T10:54:43.721Z</time>
      </trkpt>
      <trkpt lat="49.51849056" lon="10.00081917">
        <ele>247.6923</ele>
        <time>2022-06-01T10:54:56.233Z</time>
      </trkpt>
      <trkpt lat="49.51779056" lon="10.00205945">
        <ele>247.8462</ele>
        <time>2022-06-01T10:55:21.402Z</time>
      </trkpt>
      <trkpt lat="49.51748056" lon="10.00232945">
        <ele>248</ele>
        <time>2022-06-01T10:55:29.793Z</time>
      </trkpt>
      <trkpt lat="49.51701056" lon="10.00286945">
        <ele>248.3846</ele>
        <time>2022-06-01T10:55:43.617Z</time>
      </trkpt>
      <trkpt lat="49.51663056" lon="10.00299917">
        <ele>248.4615</ele>
        <time>2022-06-01T10:55:52.785Z</time>
      </trkpt>
      <trkpt lat="49.51644056" lon="10.00298945">
        <ele>248.4615</ele>
        <time>2022-06-01T10:55:57.262Z</time>
      </trkpt>
      <trkpt lat="49.51607056" lon="10.00284917">
        <ele>248.7692</ele>
        <time>2022-06-01T10:56:06.237Z</time>
      </trkpt>
      <trkpt lat="49.51603612" lon="10.00285723">
        <ele>249</ele>
        <time>2022-06-01T10:56:07.057Z</time>
      </trkpt>
      <trkpt lat="49.51595223" lon="10.00337278">
        <ele>249.0769</ele>
        <time>2022-06-01T10:56:15.206Z</time>
      </trkpt>
      <trkpt lat="49.51578056" lon="10.00448945">
        <ele>249.3846</ele>
        <time>2022-06-01T10:56:32.8Z</time>
      </trkpt>
      <trkpt lat="49.51571056" lon="10.00548917">
        <ele>249.6923</ele>
        <time>2022-06-01T10:56:48.219Z</time>
      </trkpt>
      <trkpt lat="49.51569056" lon="10.00600917">
        <ele>250.1538</ele>
        <time>2022-06-01T10:56:56.207Z</time>
      </trkpt>
      <trkpt lat="49.51561334" lon="10.00781778">
        <ele>250.7692</ele>
        <time>2022-06-01T10:57:24.001Z</time>
      </trkpt>
      <trkpt lat="49.51548473" lon="10.00781667">
        <ele>251.2308</ele>
        <time>2022-06-01T10:57:27.03Z</time>
      </trkpt>
      <trkpt lat="49.51529139" lon="10.00782723">
        <ele>251.8462</ele>
        <time>2022-06-01T10:57:31.586Z</time>
      </trkpt>
      <trkpt lat="49.51502445" lon="10.00788862">
        <ele>252.4615</ele>
        <time>2022-06-01T10:57:37.943Z</time>
      </trkpt>
      <trkpt lat="49.51442056" lon="10.00814917">
        <ele>252.8462</ele>
        <time>2022-06-01T10:57:52.715Z</time>
      </trkpt>
      <trkpt lat="49.51416056" lon="10.00835917">
        <ele>253.5385</ele>
        <time>2022-06-01T10:57:59.632Z</time>
      </trkpt>
      <trkpt lat="49.51391056" lon="10.00856917">
        <ele>254.2308</ele>
        <time>2022-06-01T10:58:06.341Z</time>
      </trkpt>
      <trkpt lat="49.51356056" lon="10.00879917">
        <ele>254.6923</ele>
        <time>2022-06-01T10:58:15.305Z</time>
      </trkpt>
      <trkpt lat="49.51310667" lon="10.00920639">
        <ele>255.2308</ele>
        <time>2022-06-01T10:58:27.686Z</time>
      </trkpt>
      <trkpt lat="49.51314612" lon="10.0096475">
        <ele>255.7692</ele>
        <time>2022-06-01T10:58:34.514Z</time>
      </trkpt>
      <trkpt lat="49.51307278" lon="10.01010278">
        <ele>256.2308</ele>
        <time>2022-06-01T10:58:41.706Z</time>
      </trkpt>
      <trkpt lat="49.51301112" lon="10.01050056">
        <ele>256.6154</ele>
        <time>2022-06-01T10:58:47.968Z</time>
      </trkpt>
      <trkpt lat="49.51297695" lon="10.01044667">
        <ele>256.7692</ele>
        <time>2022-06-01T10:58:49.121Z</time>
      </trkpt>
      <trkpt lat="49.51269139" lon="10.01034">
        <ele>256.6154</ele>
        <time>2022-06-01T10:58:56.042Z</time>
      </trkpt>
      <trkpt lat="49.51249862" lon="10.01028973">
        <ele>256.8462</ele>
        <time>2022-06-01T10:59:00.647Z</time>
      </trkpt>
      <trkpt lat="49.51224056" lon="10.01023667">
        <ele>257</ele>
        <time>2022-06-01T10:59:06.779Z</time>
      </trkpt>
      <trkpt lat="49.51199278" lon="10.01025028">
        <ele>257.3077</ele>
        <time>2022-06-01T10:59:12.619Z</time>
      </trkpt>
      <trkpt lat="49.51160223" lon="10.01048167">
        <ele>257.8462</ele>
        <time>2022-06-01T10:59:22.476Z</time>
      </trkpt>
      <trkpt lat="49.51070973" lon="10.010765">
        <ele>258.5385</ele>
        <time>2022-06-01T10:59:43.94Z</time>
      </trkpt>
      <trkpt lat="49.51049223" lon="10.01096084">
        <ele>259.2308</ele>
        <time>2022-06-01T10:59:49.876Z</time>
      </trkpt>
      <trkpt lat="49.51038778" lon="10.01117973">
        <ele>260</ele>
        <time>2022-06-01T10:59:54.034Z</time>
      </trkpt>
      <trkpt lat="49.51033945" lon="10.01140695">
        <ele>260.7692</ele>
        <time>2022-06-01T10:59:57.695Z</time>
      </trkpt>
      <trkpt lat="49.5103125" lon="10.01181917">
        <ele>261.6923</ele>
        <time>2022-06-01T11:00:04.049Z</time>
      </trkpt>
      <trkpt lat="49.51034445" lon="10.01244306">
        <ele>262.3077</ele>
        <time>2022-06-01T11:00:13.647Z</time>
      </trkpt>
      <trkpt lat="49.51036723" lon="10.01388584">
        <ele>262.5385</ele>
        <time>2022-06-01T11:00:35.78Z</time>
      </trkpt>
      <trkpt lat="49.51029723" lon="10.01511806">
        <ele>262.3846</ele>
        <time>2022-06-01T11:00:54.749Z</time>
      </trkpt>
      <trkpt lat="49.5101975" lon="10.01570639">
        <ele>262.1538</ele>
        <time>2022-06-01T11:01:04.073Z</time>
      </trkpt>
      <trkpt lat="49.51012723" lon="10.01622362">
        <ele>261.7692</ele>
        <time>2022-06-01T11:01:12.176Z</time>
      </trkpt>
      <trkpt lat="49.50980056" lon="10.01713917">
        <ele>261.3077</ele>
        <time>2022-06-01T11:01:28.187Z</time>
      </trkpt>
      <trkpt lat="49.50954139" lon="10.01758195">
        <ele>260.7692</ele>
        <time>2022-06-01T11:01:37.318Z</time>
      </trkpt>
      <trkpt lat="49.50924917" lon="10.01791223">
        <ele>259.9231</ele>
        <time>2022-06-01T11:01:45.859Z</time>
      </trkpt>
      <trkpt lat="49.50890167" lon="10.01795001">
        <ele>258.9231</ele>
        <time>2022-06-01T11:01:54.064Z</time>
      </trkpt>
      <trkpt lat="49.50847973" lon="10.01793834">
        <ele>258</ele>
        <time>2022-06-01T11:02:04.003Z</time>
      </trkpt>
      <trkpt lat="49.50796112" lon="10.01796001">
        <ele>257.1538</ele>
        <time>2022-06-01T11:02:16.222Z</time>
      </trkpt>
      <trkpt lat="49.50766362" lon="10.01822945">
        <ele>256.3846</ele>
        <time>2022-06-01T11:02:24.354Z</time>
      </trkpt>
      <trkpt lat="49.5072275" lon="10.01847195">
        <ele>255.3846</ele>
        <time>2022-06-01T11:02:35.276Z</time>
      </trkpt>
      <trkpt lat="49.50653751" lon="10.01844612">
        <ele>254.5385</ele>
        <time>2022-06-01T11:02:51.532Z</time>
      </trkpt>
      <trkpt lat="49.50599473" lon="10.01853751">
        <ele>254.3077</ele>
        <time>2022-06-01T11:03:04.392Z</time>
      </trkpt>
      <trkpt lat="49.50563723" lon="10.01866501">
        <ele>254.5385</ele>
        <time>2022-06-01T11:03:13.035Z</time>
      </trkpt>
      <trkpt lat="49.50502167" lon="10.01893195">
        <ele>255</ele>
        <time>2022-06-01T11:03:28.098Z</time>
      </trkpt>
      <trkpt lat="49.50448639" lon="10.01916778">
        <ele>255.4615</ele>
        <time>2022-06-01T11:03:41.212Z</time>
      </trkpt>
      <trkpt lat="49.50438362" lon="10.01933862">
        <ele>256.0769</ele>
        <time>2022-06-01T11:03:44.776Z</time>
      </trkpt>
      <trkpt lat="49.50364223" lon="10.01932001">
        <ele>257.1538</ele>
        <time>2022-06-01T11:04:02.24Z</time>
      </trkpt>
      <trkpt lat="49.50187056" lon="10.01847917">
        <ele>259.0769</ele>
        <time>2022-06-01T11:04:45.915Z</time>
      </trkpt>
      <trkpt lat="49.50154056" lon="10.01838917">
        <ele>261.1538</ele>
        <time>2022-06-01T11:04:53.809Z</time>
      </trkpt>
      <trkpt lat="49.50073056" lon="10.01837889">
        <ele>262.3846</ele>
        <time>2022-06-01T11:05:12.887Z</time>
      </trkpt>
      <trkpt lat="49.50021056" lon="10.01852889">
        <ele>263.1538</ele>
        <time>2022-06-01T11:05:25.348Z</time>
      </trkpt>
      <trkpt lat="49.49963056" lon="10.01885917">
        <ele>263.5385</ele>
        <time>2022-06-01T11:05:39.915Z</time>
      </trkpt>
      <trkpt lat="49.49815056" lon="10.02008889">
        <ele>263.9231</ele>
        <time>2022-06-01T11:06:19.549Z</time>
      </trkpt>
      <trkpt lat="49.49650056" lon="10.02108889">
        <ele>264.3077</ele>
        <time>2022-06-01T11:07:01.329Z</time>
      </trkpt>
      <trkpt lat="49.49577056" lon="10.02126889">
        <ele>264.4615</ele>
        <time>2022-06-01T11:07:18.742Z</time>
      </trkpt>
      <trkpt lat="49.49336056" lon="10.02139889">
        <ele>264.5385</ele>
        <time>2022-06-01T11:08:15.538Z</time>
      </trkpt>
      <trkpt lat="49.49283417" lon="10.02130806">
        <ele>264.9231</ele>
        <time>2022-06-01T11:08:28.014Z</time>
      </trkpt>
      <trkpt lat="49.49197556" lon="10.02104306">
        <ele>265.2308</ele>
        <time>2022-06-01T11:08:48.64Z</time>
      </trkpt>
      <trkpt lat="49.49191278" lon="10.02078806">
        <ele>265.3846</ele>
        <time>2022-06-01T11:08:52.817Z</time>
      </trkpt>
      <trkpt lat="49.49165445" lon="10.02028973">
        <ele>264.9231</ele>
        <time>2022-06-01T11:09:02.588Z</time>
      </trkpt>
      <trkpt lat="49.49096889" lon="10.01946389">
        <ele>263.9231</ele>
        <time>2022-06-01T11:09:23.112Z</time>
      </trkpt>
      <trkpt lat="49.49093389" lon="10.01752556">
        <ele>262.9231</ele>
        <time>2022-06-01T11:09:52.862Z</time>
      </trkpt>
      <trkpt lat="49.49134473" lon="10.01719528">
        <ele>262.4615</ele>
        <time>2022-06-01T11:10:03.781Z</time>
      </trkpt>
      <trkpt lat="49.49170584" lon="10.01706973">
        <ele>262.4615</ele>
        <time>2022-06-01T11:10:12.501Z</time>
      </trkpt>
      <trkpt lat="49.49194195" lon="10.01706584">
        <ele>262.4615</ele>
        <time>2022-06-01T11:10:18.062Z</time>
      </trkpt>
      <trkpt lat="49.49196917" lon="10.01702528">
        <ele>262.4615</ele>
        <time>2022-06-01T11:10:18.955Z</time>
      </trkpt>
      <trkpt lat="49.49165945" lon="10.01663251">
        <ele>262.3846</ele>
        <time>2022-06-01T11:10:28.411Z</time>
      </trkpt>
      <trkpt lat="49.49093389" lon="10.01587278">
        <ele>262.5385</ele>
        <time>2022-06-01T11:10:49.096Z</time>
      </trkpt>
      <trkpt lat="49.49053889" lon="10.01563584">
        <ele>262.7692</ele>
        <time>2022-06-01T11:10:59.082Z</time>
      </trkpt>
      <trkpt lat="49.49090945" lon="10.01587639">
        <ele>262.7692</ele>
        <time>2022-06-01T11:11:08.556Z</time>
      </trkpt>
      <trkpt lat="49.49052695" lon="10.01571112">
        <ele>262.9231</ele>
        <time>2022-06-01T11:11:17.914Z</time>
      </trkpt>
      <trkpt lat="49.48909278" lon="10.01566945">
        <ele>263.3077</ele>
        <time>2022-06-01T11:11:51.698Z</time>
      </trkpt>
      <trkpt lat="49.48873556" lon="10.01530028">
        <ele>263.5385</ele>
        <time>2022-06-01T11:12:01.836Z</time>
      </trkpt>
      <trkpt lat="49.48816889" lon="10.01524112">
        <ele>263.6923</ele>
        <time>2022-06-01T11:12:15.213Z</time>
      </trkpt>
      <trkpt lat="49.48659167" lon="10.01523278">
        <ele>263.6923</ele>
        <time>2022-06-01T11:12:52.36Z</time>
      </trkpt>
      <trkpt lat="49.48539556" lon="10.01525917">
        <ele>264</ele>
        <time>2022-06-01T11:13:20.534Z</time>
      </trkpt>
      <trkpt lat="49.48420334" lon="10.01532028">
        <ele>264.1538</ele>
        <time>2022-06-01T11:13:48.629Z</time>
      </trkpt>
      <trkpt lat="49.4835425" lon="10.01547306">
        <ele>264.6154</ele>
        <time>2022-06-01T11:14:04.368Z</time>
      </trkpt>
      <trkpt lat="49.48215639" lon="10.01654084">
        <ele>265.0769</ele>
        <time>2022-06-01T11:14:40.895Z</time>
      </trkpt>
      <trkpt lat="49.48192667" lon="10.01653084">
        <ele>266</ele>
        <time>2022-06-01T11:14:46.308Z</time>
      </trkpt>
      <trkpt lat="49.48162056" lon="10.01629">
        <ele>266.5385</ele>
        <time>2022-06-01T11:14:54.407Z</time>
      </trkpt>
      <trkpt lat="49.48127973" lon="10.01635639">
        <ele>267.1538</ele>
        <time>2022-06-01T11:15:02.499Z</time>
      </trkpt>
      <trkpt lat="49.4809625" lon="10.01644723">
        <ele>267.6923</ele>
        <time>2022-06-01T11:15:10.099Z</time>
      </trkpt>
      <trkpt lat="49.48086306" lon="10.01643112">
        <ele>268</ele>
        <time>2022-06-01T11:15:12.454Z</time>
      </trkpt>
      <trkpt lat="49.48057389" lon="10.01676417">
        <ele>268.5385</ele>
        <time>2022-06-01T11:15:20.965Z</time>
      </trkpt>
      <trkpt lat="49.47956834" lon="10.01720612">
        <ele>269.4615</ele>
        <time>2022-06-01T11:15:45.6Z</time>
      </trkpt>
      <trkpt lat="49.47822945" lon="10.01757084">
        <ele>270.0769</ele>
        <time>2022-06-01T11:16:17.625Z</time>
      </trkpt>
      <trkpt lat="49.47781084" lon="10.01773306">
        <ele>270.9231</ele>
        <time>2022-06-01T11:16:27.793Z</time>
      </trkpt>
      <trkpt lat="49.47741501" lon="10.01803167">
        <ele>271.1538</ele>
        <time>2022-06-01T11:16:38.178Z</time>
      </trkpt>
      <trkpt lat="49.47625001" lon="10.01916306">
        <ele>271.4615</ele>
        <time>2022-06-01T11:17:10.649Z</time>
      </trkpt>
      <trkpt lat="49.47497751" lon="10.02018028">
        <ele>271.6154</ele>
        <time>2022-06-01T11:17:44.441Z</time>
      </trkpt>
      <trkpt lat="49.47445278" lon="10.0206">
        <ele>271.6923</ele>
        <time>2022-06-01T11:17:58.378Z</time>
      </trkpt>
      <trkpt lat="49.47407667" lon="10.02093195">
        <ele>271.3846</ele>
        <time>2022-06-01T11:18:08.593Z</time>
      </trkpt>
      <trkpt lat="49.47375445" lon="10.021405">
        <ele>271.3077</ele>
        <time>2022-06-01T11:18:19.096Z</time>
      </trkpt>
      <trkpt lat="49.47337362" lon="10.02234389">
        <ele>271.1538</ele>
        <time>2022-06-01T11:18:36.069Z</time>
      </trkpt>
      <trkpt lat="49.47319695" lon="10.02292417">
        <ele>271.0769</ele>
        <time>2022-06-01T11:18:45.899Z</time>
      </trkpt>
      <trkpt lat="49.47296195" lon="10.02358806">
        <ele>271.3846</ele>
        <time>2022-06-01T11:18:57.495Z</time>
      </trkpt>
      <trkpt lat="49.47304362" lon="10.02415195">
        <ele>271.0769</ele>
        <time>2022-06-01T11:19:06.361Z</time>
      </trkpt>
      <trkpt lat="49.47291778" lon="10.02496862">
        <ele>270.7692</ele>
        <time>2022-06-01T11:19:19.241Z</time>
      </trkpt>
      <trkpt lat="49.47236528" lon="10.02687889">
        <ele>270.3846</ele>
        <time>2022-06-01T11:19:51.318Z</time>
      </trkpt>
      <trkpt lat="49.47221973" lon="10.02741223">
        <ele>270</ele>
        <time>2022-06-01T11:20:00.193Z</time>
      </trkpt>
      <trkpt lat="49.47206945" lon="10.02788223">
        <ele>270.2308</ele>
        <time>2022-06-01T11:20:08.228Z</time>
      </trkpt>
      <trkpt lat="49.47174417" lon="10.02876167">
        <ele>270.3077</ele>
        <time>2022-06-01T11:20:23.748Z</time>
      </trkpt>
      <trkpt lat="49.47110945" lon="10.02987167">
        <ele>270.5385</ele>
        <time>2022-06-01T11:20:46.413Z</time>
      </trkpt>
      <trkpt lat="49.47055084" lon="10.03059695">
        <ele>270.9231</ele>
        <time>2022-06-01T11:21:03.647Z</time>
      </trkpt>
      <trkpt lat="49.47000362" lon="10.03118417">
        <ele>271.3846</ele>
        <time>2022-06-01T11:21:19.374Z</time>
      </trkpt>
      <trkpt lat="49.46976028" lon="10.03088973">
        <ele>271.8462</ele>
        <time>2022-06-01T11:21:26.669Z</time>
      </trkpt>
      <trkpt lat="49.46949056" lon="10.03069251">
        <ele>272.3077</ele>
        <time>2022-06-01T11:21:33.704Z</time>
      </trkpt>
      <trkpt lat="49.46920223" lon="10.03061278">
        <ele>272.6923</ele>
        <time>2022-06-01T11:21:40.604Z</time>
      </trkpt>
      <trkpt lat="49.46871112" lon="10.03054001">
        <ele>273.0769</ele>
        <time>2022-06-01T11:21:52.224Z</time>
      </trkpt>
      <trkpt lat="49.46867889" lon="10.03118834">
        <ele>273.7692</ele>
        <time>2022-06-01T11:22:02.204Z</time>
      </trkpt>
      <trkpt lat="49.46868056" lon="10.03113223">
        <ele>274.1538</ele>
        <time>2022-06-01T11:22:03.065Z</time>
      </trkpt>
      <trkpt lat="49.46861973" lon="10.03129612">
        <ele>274.6923</ele>
        <time>2022-06-01T11:22:05.957Z</time>
      </trkpt>
      <trkpt lat="49.46856084" lon="10.03139862">
        <ele>274.9231</ele>
        <time>2022-06-01T11:22:08.053Z</time>
      </trkpt>
      <trkpt lat="49.46844751" lon="10.03156195">
        <ele>275.4615</ele>
        <time>2022-06-01T11:22:11.712Z</time>
      </trkpt>
      <trkpt lat="49.46824167" lon="10.03186889">
        <ele>276</ele>
        <time>2022-06-01T11:22:18.467Z</time>
      </trkpt>
      <trkpt lat="49.468165" lon="10.03237667">
        <ele>276.1538</ele>
        <time>2022-06-01T11:22:26.468Z</time>
      </trkpt>
      <trkpt lat="49.46811417" lon="10.03369139">
        <ele>276.2308</ele>
        <time>2022-06-01T11:22:46.684Z</time>
      </trkpt>
      <trkpt lat="49.46795306" lon="10.03451473">
        <ele>276.3846</ele>
        <time>2022-06-01T11:22:59.879Z</time>
      </trkpt>
      <trkpt lat="49.46778084" lon="10.03489834">
        <ele>276.3846</ele>
        <time>2022-06-01T11:23:07.022Z</time>
      </trkpt>
      <trkpt lat="49.46690084" lon="10.03677862">
        <ele>276.5385</ele>
        <time>2022-06-01T11:23:42.555Z</time>
      </trkpt>
      <trkpt lat="49.46621056" lon="10.03867834">
        <ele>276.5385</ele>
        <time>2022-06-01T11:24:15.941Z</time>
      </trkpt>
      <trkpt lat="49.46569917" lon="10.04044973">
        <ele>276.3846</ele>
        <time>2022-06-01T11:24:45.68Z</time>
      </trkpt>
      <trkpt lat="49.46508056" lon="10.04254834">
        <ele>276.2308</ele>
        <time>2022-06-01T11:25:21.036Z</time>
      </trkpt>
      <trkpt lat="49.46440056" lon="10.04436834">
        <ele>276.2308</ele>
        <time>2022-06-01T11:25:53.239Z</time>
      </trkpt>
      <trkpt lat="49.46421056" lon="10.04511834">
        <ele>276.6923</ele>
        <time>2022-06-01T11:26:05.591Z</time>
      </trkpt>
      <trkpt lat="49.46382056" lon="10.04747834">
        <ele>277.7692</ele>
        <time>2022-06-01T11:26:42.965Z</time>
      </trkpt>
      <trkpt lat="49.46361139" lon="10.05068667">
        <ele>278.3846</ele>
        <time>2022-06-01T11:27:32.461Z</time>
      </trkpt>
      <trkpt lat="49.46311139" lon="10.05125112">
        <ele>279.3077</ele>
        <time>2022-06-01T11:27:47.081Z</time>
      </trkpt>
      <trkpt lat="49.46246584" lon="10.05196167">
        <ele>280.8462</ele>
        <time>2022-06-01T11:28:05.793Z</time>
      </trkpt>
      <trkpt lat="49.46202945" lon="10.05269306">
        <ele>282.4615</ele>
        <time>2022-06-01T11:28:21.015Z</time>
      </trkpt>
      <trkpt lat="49.46098056" lon="10.05423834">
        <ele>283.5385</ele>
        <time>2022-06-01T11:28:55.264Z</time>
      </trkpt>
      <trkpt lat="49.45974223" lon="10.05631584">
        <ele>284.5385</ele>
        <time>2022-06-01T11:29:38.482Z</time>
      </trkpt>
      <trkpt lat="49.45809751" lon="10.05849778">
        <ele>285.2308</ele>
        <time>2022-06-01T11:30:29.694Z</time>
      </trkpt>
      <trkpt lat="49.45689056" lon="10.06008834">
        <ele>286.5385</ele>
        <time>2022-06-01T11:31:07.169Z</time>
      </trkpt>
      <trkpt lat="49.45582056" lon="10.06114834">
        <ele>288</ele>
        <time>2022-06-01T11:31:37.168Z</time>
      </trkpt>
      <trkpt lat="49.45548056" lon="10.06189806">
        <ele>289.2308</ele>
        <time>2022-06-01T11:31:51.19Z</time>
      </trkpt>
      <trkpt lat="49.45536056" lon="10.06250834">
        <ele>290.4615</ele>
        <time>2022-06-01T11:32:00.977Z</time>
      </trkpt>
      <trkpt lat="49.45509056" lon="10.06326834">
        <ele>291.2308</ele>
        <time>2022-06-01T11:32:14.266Z</time>
      </trkpt>
      <trkpt lat="49.45420223" lon="10.06537612">
        <ele>291.6154</ele>
        <time>2022-06-01T11:32:52.802Z</time>
      </trkpt>
      <trkpt lat="49.45357056" lon="10.06685806">
        <ele>292.2308</ele>
        <time>2022-06-01T11:33:19.988Z</time>
      </trkpt>
      <trkpt lat="49.45300056" lon="10.06798806">
        <ele>293.2308</ele>
        <time>2022-06-01T11:33:41.925Z</time>
      </trkpt>
      <trkpt lat="49.45293667" lon="10.06818639">
        <ele>294.1538</ele>
        <time>2022-06-01T11:33:45.318Z</time>
      </trkpt>
      <trkpt lat="49.45297723" lon="10.06811556">
        <ele>294.4966</ele>
        <time>2022-06-01T11:33:46.764Z</time>
      </trkpt>
      <trkpt lat="49.45276112" lon="10.06897612">
        <ele>297.8462</ele>
        <time>2022-06-01T11:34:00.924Z</time>
      </trkpt>
      <trkpt lat="49.45220056" lon="10.07024806">
        <ele>300.2308</ele>
        <time>2022-06-01T11:34:24.498Z</time>
      </trkpt>
      <trkpt lat="49.45163056" lon="10.07099806">
        <ele>302.8462</ele>
        <time>2022-06-01T11:34:42.185Z</time>
      </trkpt>
      <trkpt lat="49.45102056" lon="10.07233806">
        <ele>305</ele>
        <time>2022-06-01T11:35:07.28Z</time>
      </trkpt>
      <trkpt lat="49.45040917" lon="10.07413639">
        <ele>306.7692</ele>
        <time>2022-06-01T11:35:38.422Z</time>
      </trkpt>
      <trkpt lat="49.45005056" lon="10.07561806">
        <ele>308.3846</ele>
        <time>2022-06-01T11:36:02.69Z</time>
      </trkpt>
      <trkpt lat="49.44954056" lon="10.07688806">
        <ele>309.6154</ele>
        <time>2022-06-01T11:36:25.593Z</time>
      </trkpt>
      <trkpt lat="49.44927973" lon="10.07872223">
        <ele>310.7692</ele>
        <time>2022-06-01T11:36:54.419Z</time>
      </trkpt>
      <trkpt lat="49.44872056" lon="10.08198806">
        <ele>311.7692</ele>
        <time>2022-06-01T11:37:46.268Z</time>
      </trkpt>
      <trkpt lat="49.44771056" lon="10.08469806">
        <ele>311.7692</ele>
        <time>2022-06-01T11:38:34.201Z</time>
      </trkpt>
      <trkpt lat="49.44724056" lon="10.08655806">
        <ele>310.8462</ele>
        <time>2022-06-01T11:39:04.833Z</time>
      </trkpt>
      <trkpt lat="49.44708056" lon="10.08750778">
        <ele>309.7692</ele>
        <time>2022-06-01T11:39:19.896Z</time>
      </trkpt>
      <trkpt lat="49.44713056" lon="10.08965778">
        <ele>308.2308</ele>
        <time>2022-06-01T11:39:52.932Z</time>
      </trkpt>
      <trkpt lat="49.44743056" lon="10.09216778">
        <ele>306.0769</ele>
        <time>2022-06-01T11:40:32.118Z</time>
      </trkpt>
      <trkpt lat="49.44739056" lon="10.09298778">
        <ele>304.1538</ele>
        <time>2022-06-01T11:40:44.745Z</time>
      </trkpt>
      <trkpt lat="49.44647028" lon="10.09700778">
        <ele>302.3846</ele>
        <time>2022-06-01T11:41:50.171Z</time>
      </trkpt>
      <trkpt lat="49.44618056" lon="10.09924778">
        <ele>300.6923</ele>
        <time>2022-06-01T11:42:25.239Z</time>
      </trkpt>
      <trkpt lat="49.44581056" lon="10.10104778">
        <ele>299.0769</ele>
        <time>2022-06-01T11:42:54.222Z</time>
      </trkpt>
      <trkpt lat="49.44590056" lon="10.10165778">
        <ele>297.7692</ele>
        <time>2022-06-01T11:43:03.826Z</time>
      </trkpt>
      <trkpt lat="49.44582167" lon="10.10220556">
        <ele>296.7692</ele>
        <time>2022-06-01T11:43:12.441Z</time>
      </trkpt>
      <trkpt lat="49.44582056" lon="10.10235778">
        <ele>296.1538</ele>
        <time>2022-06-01T11:43:14.775Z</time>
      </trkpt>
      <trkpt lat="49.44544056" lon="10.10309778">
        <ele>295.4615</ele>
        <time>2022-06-01T11:43:29.24Z</time>
      </trkpt>
      <trkpt lat="49.44518056" lon="10.10320778">
        <ele>295.6154</ele>
        <time>2022-06-01T11:43:35.592Z</time>
      </trkpt>
      <trkpt lat="49.44504028" lon="10.10350778">
        <ele>295.8462</ele>
        <time>2022-06-01T11:43:41.256Z</time>
      </trkpt>
      <trkpt lat="49.44490028" lon="10.10403778">
        <ele>296</ele>
        <time>2022-06-01T11:43:50.038Z</time>
      </trkpt>
      <trkpt lat="49.44480056" lon="10.10458778">
        <ele>296.2308</ele>
        <time>2022-06-01T11:43:58.805Z</time>
      </trkpt>
      <trkpt lat="49.44475028" lon="10.10544778">
        <ele>296.5385</ele>
        <time>2022-06-01T11:44:12.065Z</time>
      </trkpt>
      <trkpt lat="49.44471056" lon="10.10611778">
        <ele>296.7692</ele>
        <time>2022-06-01T11:44:22.396Z</time>
      </trkpt>
      <trkpt lat="49.44467028" lon="10.10639778">
        <ele>296.7692</ele>
        <time>2022-06-01T11:44:26.793Z</time>
      </trkpt>
      <trkpt lat="49.44476056" lon="10.10692778">
        <ele>296.6154</ele>
        <time>2022-06-01T11:44:35.205Z</time>
      </trkpt>
      <trkpt lat="49.44503001" lon="10.10754362">
        <ele>296.7692</ele>
        <time>2022-06-01T11:44:46.594Z</time>
      </trkpt>
      <trkpt lat="49.44538278" lon="10.10810028">
        <ele>296.7692</ele>
        <time>2022-06-01T11:44:58.515Z</time>
      </trkpt>
      <trkpt lat="49.44587362" lon="10.10884445">
        <ele>297.1538</ele>
        <time>2022-06-01T11:45:14.77Z</time>
      </trkpt>
      <trkpt lat="49.44655251" lon="10.10981556">
        <ele>297.5385</ele>
        <time>2022-06-01T11:45:36.634Z</time>
      </trkpt>
      <trkpt lat="49.44699528" lon="10.11056612">
        <ele>298.0769</ele>
        <time>2022-06-01T11:45:52.177Z</time>
      </trkpt>
      <trkpt lat="49.44712723" lon="10.11067584">
        <ele>299.0769</ele>
        <time>2022-06-01T11:45:55.711Z</time>
      </trkpt>
      <trkpt lat="49.44711028" lon="10.11200778">
        <ele>300.9231</ele>
        <time>2022-06-01T11:46:16.168Z</time>
      </trkpt>
      <trkpt lat="49.44709028" lon="10.11241778">
        <ele>303</ele>
        <time>2022-06-01T11:46:22.482Z</time>
      </trkpt>
      <trkpt lat="49.44693028" lon="10.11292778">
        <ele>305</ele>
        <time>2022-06-01T11:46:31.173Z</time>
      </trkpt>
      <trkpt lat="49.44658028" lon="10.11377778">
        <ele>306.6154</ele>
        <time>2022-06-01T11:46:46.611Z</time>
      </trkpt>
      <trkpt lat="49.44639028" lon="10.11418778">
        <ele>308</ele>
        <time>2022-06-01T11:46:54.335Z</time>
      </trkpt>
      <trkpt lat="49.44613028" lon="10.11499778">
        <ele>308.4615</ele>
        <time>2022-06-01T11:47:08.199Z</time>
      </trkpt>
      <trkpt lat="49.44578028" lon="10.11606778">
        <ele>308.9231</ele>
        <time>2022-06-01T11:47:26.582Z</time>
      </trkpt>
      <trkpt lat="49.44571973" lon="10.11624667">
        <ele>309.1538</ele>
        <time>2022-06-01T11:47:29.674Z</time>
      </trkpt>
      <trkpt lat="49.44570806" lon="10.11714639">
        <ele>309.4615</ele>
        <time>2022-06-01T11:47:43.493Z</time>
      </trkpt>
      <trkpt lat="49.44573223" lon="10.11800695">
        <ele>309.4615</ele>
        <time>2022-06-01T11:47:56.72Z</time>
      </trkpt>
      <trkpt lat="49.44581889" lon="10.11846334">
        <ele>309.0769</ele>
        <time>2022-06-01T11:48:04.02Z</time>
      </trkpt>
      <trkpt lat="49.44594445" lon="10.11945501">
        <ele>308.6923</ele>
        <time>2022-06-01T11:48:19.533Z</time>
      </trkpt>
      <trkpt lat="49.446005" lon="10.12056251">
        <ele>307.8462</ele>
        <time>2022-06-01T11:48:36.6Z</time>
      </trkpt>
      <trkpt lat="49.44591889" lon="10.12084084">
        <ele>306.4615</ele>
        <time>2022-06-01T11:48:41.325Z</time>
      </trkpt>
      <trkpt lat="49.44572584" lon="10.12130084">
        <ele>305.1538</ele>
        <time>2022-06-01T11:48:49.726Z</time>
      </trkpt>
      <trkpt lat="49.44540445" lon="10.12214251">
        <ele>304.3077</ele>
        <time>2022-06-01T11:49:04.704Z</time>
      </trkpt>
      <trkpt lat="49.44505389" lon="10.12275973">
        <ele>303.7692</ele>
        <time>2022-06-01T11:49:17.274Z</time>
      </trkpt>
      <trkpt lat="49.44454445" lon="10.12318223">
        <ele>303.3846</ele>
        <time>2022-06-01T11:49:30.914Z</time>
      </trkpt>
      <trkpt lat="49.44422001" lon="10.12335695">
        <ele>304</ele>
        <time>2022-06-01T11:49:39.011Z</time>
      </trkpt>
      <trkpt lat="49.44333362" lon="10.12414612">
        <ele>304.2308</ele>
        <time>2022-06-01T11:50:03.15Z</time>
      </trkpt>
      <trkpt lat="49.44277028" lon="10.12489778">
        <ele>304.5385</ele>
        <time>2022-06-01T11:50:20.737Z</time>
      </trkpt>
      <trkpt lat="49.44200028" lon="10.12605778">
        <ele>304.5385</ele>
        <time>2022-06-01T11:50:46.158Z</time>
      </trkpt>
      <trkpt lat="49.44156028" lon="10.12659751">
        <ele>304.5385</ele>
        <time>2022-06-01T11:50:59.428Z</time>
      </trkpt>
      <trkpt lat="49.44133028" lon="10.12689751">
        <ele>304.6923</ele>
        <time>2022-06-01T11:51:06.535Z</time>
      </trkpt>
      <trkpt lat="49.44089028" lon="10.12743778">
        <ele>304.8462</ele>
        <time>2022-06-01T11:51:19.81Z</time>
      </trkpt>
      <trkpt lat="49.44069028" lon="10.12817778">
        <ele>305</ele>
        <time>2022-06-01T11:51:32.112Z</time>
      </trkpt>
      <trkpt lat="49.44049028" lon="10.12926778">
        <ele>304.9231</ele>
        <time>2022-06-01T11:51:49.502Z</time>
      </trkpt>
      <trkpt lat="49.44054028" lon="10.13040751">
        <ele>304.7692</ele>
        <time>2022-06-01T11:52:07.046Z</time>
      </trkpt>
      <trkpt lat="49.44046028" lon="10.13208778">
        <ele>304.2308</ele>
        <time>2022-06-01T11:52:32.92Z</time>
      </trkpt>
      <trkpt lat="49.44044028" lon="10.13335778">
        <ele>303.7692</ele>
        <time>2022-06-01T11:52:52.43Z</time>
      </trkpt>
      <trkpt lat="49.44040028" lon="10.13397778">
        <ele>303.3846</ele>
        <time>2022-06-01T11:53:01.999Z</time>
      </trkpt>
      <trkpt lat="49.44023028" lon="10.13471778">
        <ele>303.0769</ele>
        <time>2022-06-01T11:53:14.049Z</time>
      </trkpt>
      <trkpt lat="49.43982028" lon="10.1354975">
        <ele>303.2308</ele>
        <time>2022-06-01T11:53:29.432Z</time>
      </trkpt>
      <trkpt lat="49.43888028" lon="10.1362475">
        <ele>303.1538</ele>
        <time>2022-06-01T11:53:54.388Z</time>
      </trkpt>
      <trkpt lat="49.43834028" lon="10.1366775">
        <ele>303.6154</ele>
        <time>2022-06-01T11:54:08.719Z</time>
      </trkpt>
      <trkpt lat="49.43714028" lon="10.13715751">
        <ele>304.1538</ele>
        <time>2022-06-01T11:54:37.927Z</time>
      </trkpt>
      <trkpt lat="49.43673028" lon="10.1372375">
        <ele>304.7692</ele>
        <time>2022-06-01T11:54:47.661Z</time>
      </trkpt>
      <trkpt lat="49.43633028" lon="10.1371875">
        <ele>305.3077</ele>
        <time>2022-06-01T11:54:57.113Z</time>
      </trkpt>
      <trkpt lat="49.43604" lon="10.13747278">
        <ele>305.8462</ele>
        <time>2022-06-01T11:55:05.23Z</time>
      </trkpt>
      <trkpt lat="49.43585028" lon="10.13772751">
        <ele>306.6154</ele>
        <time>2022-06-01T11:55:11.165Z</time>
      </trkpt>
      <trkpt lat="49.43555028" lon="10.13936751">
        <ele>307.0769</ele>
        <time>2022-06-01T11:55:37.327Z</time>
      </trkpt>
      <trkpt lat="49.43433028" lon="10.14050751">
        <ele>307.6154</ele>
        <time>2022-06-01T11:56:10.976Z</time>
      </trkpt>
      <trkpt lat="49.43416" lon="10.14057306">
        <ele>307.9231</ele>
        <time>2022-06-01T11:56:15.111Z</time>
      </trkpt>
      <trkpt lat="49.43279806" lon="10.13987139">
        <ele>308.3077</ele>
        <time>2022-06-01T11:56:48.95Z</time>
      </trkpt>
      <trkpt lat="49.43233056" lon="10.13981445">
        <ele>308.4615</ele>
        <time>2022-06-01T11:56:59.995Z</time>
      </trkpt>
      <trkpt lat="49.42884028" lon="10.14218751">
        <ele>308.6923</ele>
        <time>2022-06-01T11:58:29.918Z</time>
      </trkpt>
      <trkpt lat="49.42777028" lon="10.14222751">
        <ele>309.4615</ele>
        <time>2022-06-01T11:58:55.126Z</time>
      </trkpt>
      <trkpt lat="49.42750028" lon="10.14237751">
        <ele>310.2308</ele>
        <time>2022-06-01T11:59:01.889Z</time>
      </trkpt>
      <trkpt lat="49.42537028" lon="10.14433723">
        <ele>311.8462</ele>
        <time>2022-06-01T12:00:00.395Z</time>
      </trkpt>
      <trkpt lat="49.42500028" lon="10.1445475">
        <ele>312.4615</ele>
        <time>2022-06-01T12:00:09.687Z</time>
      </trkpt>
      <trkpt lat="49.42401028" lon="10.14486723">
        <ele>312.7692</ele>
        <time>2022-06-01T12:00:33.514Z</time>
      </trkpt>
      <trkpt lat="49.4233675" lon="10.14514334">
        <ele>313</ele>
        <time>2022-06-01T12:00:49.234Z</time>
      </trkpt>
      <trkpt lat="49.42301945" lon="10.14550362">
        <ele>313.1538</ele>
        <time>2022-06-01T12:00:59.121Z</time>
      </trkpt>
      <trkpt lat="49.42230028" lon="10.14586723">
        <ele>313.3846</ele>
        <time>2022-06-01T12:01:16.954Z</time>
      </trkpt>
      <trkpt lat="49.42194028" lon="10.14605723">
        <ele>313.5385</ele>
        <time>2022-06-01T12:01:25.92Z</time>
      </trkpt>
      <trkpt lat="49.42146056" lon="10.14653973">
        <ele>313.8462</ele>
        <time>2022-06-01T12:01:39.433Z</time>
      </trkpt>
      <trkpt lat="49.42097028" lon="10.14744723">
        <ele>314.2308</ele>
        <time>2022-06-01T12:01:57.537Z</time>
      </trkpt>
      <trkpt lat="49.42026612" lon="10.14899945">
        <ele>314.8462</ele>
        <time>2022-06-01T12:02:26.585Z</time>
      </trkpt>
      <trkpt lat="49.42010723" lon="10.14922473">
        <ele>315.2308</ele>
        <time>2022-06-01T12:02:31.679Z</time>
      </trkpt>
      <trkpt lat="49.41971028" lon="10.14946723">
        <ele>315.1538</ele>
        <time>2022-06-01T12:02:41.741Z</time>
      </trkpt>
      <trkpt lat="49.41880028" lon="10.14955723">
        <ele>314.8462</ele>
        <time>2022-06-01T12:03:03.218Z</time>
      </trkpt>
      <trkpt lat="49.41870417" lon="10.15050112">
        <ele>313.6923</ele>
        <time>2022-06-01T12:03:17.896Z</time>
      </trkpt>
      <trkpt lat="49.41818334" lon="10.15014862">
        <ele>313.5385</ele>
        <time>2022-06-01T12:03:31.302Z</time>
      </trkpt>
      <trkpt lat="49.41794612" lon="10.14983973">
        <ele>313.7692</ele>
        <time>2022-06-01T12:03:38.628Z</time>
      </trkpt>
      <trkpt lat="49.41776778" lon="10.14964223">
        <ele>314.0769</ele>
        <time>2022-06-01T12:03:43.807Z</time>
      </trkpt>
      <trkpt lat="49.41763167" lon="10.14953473">
        <ele>314.2308</ele>
        <time>2022-06-01T12:03:47.412Z</time>
      </trkpt>
      <trkpt lat="49.41741723" lon="10.14950723">
        <ele>314.4615</ele>
        <time>2022-06-01T12:03:52.48Z</time>
      </trkpt>
      <trkpt lat="49.41707334" lon="10.14946">
        <ele>314.6923</ele>
        <time>2022-06-01T12:04:00.612Z</time>
      </trkpt>
      <trkpt lat="49.41681167" lon="10.14944139">
        <ele>314.9231</ele>
        <time>2022-06-01T12:04:06.781Z</time>
      </trkpt>
      <trkpt lat="49.41664834" lon="10.14956695">
        <ele>315</ele>
        <time>2022-06-01T12:04:11.083Z</time>
      </trkpt>
      <trkpt lat="49.41651695" lon="10.14971973">
        <ele>314.9231</ele>
        <time>2022-06-01T12:04:14.965Z</time>
      </trkpt>
      <trkpt lat="49.41616862" lon="10.14988584">
        <ele>315.0769</ele>
        <time>2022-06-01T12:04:23.556Z</time>
      </trkpt>
      <trkpt lat="49.41589389" lon="10.15023195">
        <ele>315.4615</ele>
        <time>2022-06-01T12:04:31.927Z</time>
      </trkpt>
      <trkpt lat="49.41574334" lon="10.15021223">
        <ele>315.7692</ele>
        <time>2022-06-01T12:04:35.486Z</time>
      </trkpt>
      <trkpt lat="49.41540556" lon="10.15039917">
        <ele>316.0769</ele>
        <time>2022-06-01T12:04:43.943Z</time>
      </trkpt>
      <trkpt lat="49.41519362" lon="10.15006">
        <ele>316.3846</ele>
        <time>2022-06-01T12:04:51.154Z</time>
      </trkpt>
      <trkpt lat="49.41509417" lon="10.14997167">
        <ele>316.6923</ele>
        <time>2022-06-01T12:04:53.86Z</time>
      </trkpt>
      <trkpt lat="49.41465695" lon="10.14993806">
        <ele>316.9231</ele>
        <time>2022-06-01T12:05:04.17Z</time>
      </trkpt>
      <trkpt lat="49.41442973" lon="10.14980445">
        <ele>317.1538</ele>
        <time>2022-06-01T12:05:09.901Z</time>
      </trkpt>
      <trkpt lat="49.414195" lon="10.14974">
        <ele>317.3077</ele>
        <time>2022-06-01T12:05:15.517Z</time>
      </trkpt>
      <trkpt lat="49.41355834" lon="10.15038889">
        <ele>317.6923</ele>
        <time>2022-06-01T12:05:33.524Z</time>
      </trkpt>
      <trkpt lat="49.41305445" lon="10.15109695">
        <ele>318.8462</ele>
        <time>2022-06-01T12:05:49.624Z</time>
      </trkpt>
      <trkpt lat="49.41267528" lon="10.15163862">
        <ele>319.3846</ele>
        <time>2022-06-01T12:06:01.832Z</time>
      </trkpt>
      <trkpt lat="49.41233306" lon="10.15208528">
        <ele>319.7692</ele>
        <time>2022-06-01T12:06:12.418Z</time>
      </trkpt>
      <trkpt lat="49.41200362" lon="10.15240973">
        <ele>320.0769</ele>
        <time>2022-06-01T12:06:21.637Z</time>
      </trkpt>
      <trkpt lat="49.41139473" lon="10.15272834">
        <ele>320.3077</ele>
        <time>2022-06-01T12:06:36.788Z</time>
      </trkpt>
      <trkpt lat="49.41106556" lon="10.15237056">
        <ele>320.4615</ele>
        <time>2022-06-01T12:06:46.288Z</time>
      </trkpt>
      <trkpt lat="49.41017028" lon="10.15125223">
        <ele>320.6154</ele>
        <time>2022-06-01T12:07:13.49Z</time>
      </trkpt>
      <trkpt lat="49.40952834" lon="10.15137056">
        <ele>321</ele>
        <time>2022-06-01T12:07:28.718Z</time>
      </trkpt>
      <trkpt lat="49.40889501" lon="10.15182473">
        <ele>321.6923</ele>
        <time>2022-06-01T12:07:45.186Z</time>
      </trkpt>
      <trkpt lat="49.40824195" lon="10.15251278">
        <ele>322.4615</ele>
        <time>2022-06-01T12:08:03.851Z</time>
      </trkpt>
      <trkpt lat="49.40772612" lon="10.15310001">
        <ele>322.9231</ele>
        <time>2022-06-01T12:08:18.985Z</time>
      </trkpt>
      <trkpt lat="49.40715723" lon="10.15338306">
        <ele>323.1538</ele>
        <time>2022-06-01T12:08:33.07Z</time>
      </trkpt>
      <trkpt lat="49.40605889" lon="10.15319139">
        <ele>323.3077</ele>
        <time>2022-06-01T12:08:59.105Z</time>
      </trkpt>
      <trkpt lat="49.40513889" lon="10.15337806">
        <ele>322.5385</ele>
        <time>2022-06-01T12:09:20.961Z</time>
      </trkpt>
      <trkpt lat="49.40394501" lon="10.15376695">
        <ele>322.7692</ele>
        <time>2022-06-01T12:09:49.706Z</time>
      </trkpt>
      <trkpt lat="49.40322389" lon="10.15419195">
        <ele>323.3846</ele>
        <time>2022-06-01T12:10:07.903Z</time>
      </trkpt>
      <trkpt lat="49.40280417" lon="10.15461917">
        <ele>324</ele>
        <time>2022-06-01T12:10:19.77Z</time>
      </trkpt>
      <trkpt lat="49.40244084" lon="10.155235">
        <ele>324.6923</ele>
        <time>2022-06-01T12:10:32.53Z</time>
      </trkpt>
      <trkpt lat="49.40203473" lon="10.15606695">
        <ele>325.5385</ele>
        <time>2022-06-01T12:10:48.498Z</time>
      </trkpt>
      <trkpt lat="49.40138306" lon="10.15662501">
        <ele>326.6154</ele>
        <time>2022-06-01T12:11:06.08Z</time>
      </trkpt>
      <trkpt lat="49.40037889" lon="10.15733806">
        <ele>327.3077</ele>
        <time>2022-06-01T12:11:32.146Z</time>
      </trkpt>
      <trkpt lat="49.39978973" lon="10.15739139">
        <ele>327.9231</ele>
        <time>2022-06-01T12:11:46.046Z</time>
      </trkpt>
      <trkpt lat="49.39968584" lon="10.15697945">
        <ele>328.5385</ele>
        <time>2022-06-01T12:11:52.834Z</time>
      </trkpt>
      <trkpt lat="49.39939195" lon="10.15713556">
        <ele>329.8462</ele>
        <time>2022-06-01T12:12:00.159Z</time>
      </trkpt>
      <trkpt lat="49.39902028" lon="10.15757695">
        <ele>331.3077</ele>
        <time>2022-06-01T12:12:11.234Z</time>
      </trkpt>
      <trkpt lat="49.39877028" lon="10.15791695">
        <ele>332.1538</ele>
        <time>2022-06-01T12:12:19.102Z</time>
      </trkpt>
      <trkpt lat="49.39843028" lon="10.15839695">
        <ele>333.1538</ele>
        <time>2022-06-01T12:12:29.991Z</time>
      </trkpt>
      <trkpt lat="49.39809028" lon="10.15898695">
        <ele>333.6154</ele>
        <time>2022-06-01T12:12:42.089Z</time>
      </trkpt>
      <trkpt lat="49.39787028" lon="10.15954695">
        <ele>333.7692</ele>
        <time>2022-06-01T12:12:52.136Z</time>
      </trkpt>
      <trkpt lat="49.39764028" lon="10.16047695">
        <ele>334</ele>
        <time>2022-06-01T12:13:07.423Z</time>
      </trkpt>
      <trkpt lat="49.39764028" lon="10.16075695">
        <ele>334.0769</ele>
        <time>2022-06-01T12:13:11.721Z</time>
      </trkpt>
      <trkpt lat="49.39740028" lon="10.16193695">
        <ele>334.0769</ele>
        <time>2022-06-01T12:13:30.72Z</time>
      </trkpt>
      <trkpt lat="49.39687028" lon="10.16349695">
        <ele>333.7692</ele>
        <time>2022-06-01T12:13:57.754Z</time>
      </trkpt>
      <trkpt lat="49.39640028" lon="10.16534695">
        <ele>333.6154</ele>
        <time>2022-06-01T12:14:28.27Z</time>
      </trkpt>
      <trkpt lat="49.39606028" lon="10.16598695">
        <ele>333.1538</ele>
        <time>2022-06-01T12:14:40.955Z</time>
      </trkpt>
      <trkpt lat="49.39562028" lon="10.16636695">
        <ele>332.6923</ele>
        <time>2022-06-01T12:14:52.847Z</time>
      </trkpt>
      <trkpt lat="49.39495695" lon="10.16628584">
        <ele>331.8462</ele>
        <time>2022-06-01T12:15:08.519Z</time>
      </trkpt>
      <trkpt lat="49.39463528" lon="10.16616417">
        <ele>331.0769</ele>
        <time>2022-06-01T12:15:16.322Z</time>
      </trkpt>
      <trkpt lat="49.39434056" lon="10.16644362">
        <ele>330.9231</ele>
        <time>2022-06-01T12:15:24.482Z</time>
      </trkpt>
      <trkpt lat="49.39397028" lon="10.16660667">
        <ele>330.8462</ele>
        <time>2022-06-01T12:15:33.555Z</time>
      </trkpt>
      <trkpt lat="49.39362028" lon="10.16668695">
        <ele>331.7692</ele>
        <time>2022-06-01T12:15:41.89Z</time>
      </trkpt>
      <trkpt lat="49.39307028" lon="10.16584667">
        <ele>332.8462</ele>
        <time>2022-06-01T12:16:00.184Z</time>
      </trkpt>
      <trkpt lat="49.39274028" lon="10.16542667">
        <ele>333.3077</ele>
        <time>2022-06-01T12:16:10.288Z</time>
      </trkpt>
      <trkpt lat="49.39223028" lon="10.16516667">
        <ele>333.7692</ele>
        <time>2022-06-01T12:16:22.945Z</time>
      </trkpt>
      <trkpt lat="49.39176028" lon="10.16525695">
        <ele>334</ele>
        <time>2022-06-01T12:16:34.101Z</time>
      </trkpt>
      <trkpt lat="49.39148028" lon="10.16544695">
        <ele>334.2308</ele>
        <time>2022-06-01T12:16:41.312Z</time>
      </trkpt>
      <trkpt lat="49.39118667" lon="10.16618195">
        <ele>334.3846</ele>
        <time>2022-06-01T12:16:54.559Z</time>
      </trkpt>
      <trkpt lat="49.39074306" lon="10.16647056">
        <ele>334.5385</ele>
        <time>2022-06-01T12:17:05.907Z</time>
      </trkpt>
      <trkpt lat="49.39021834" lon="10.16666639">
        <ele>334.6923</ele>
        <time>2022-06-01T12:17:18.626Z</time>
      </trkpt>
      <trkpt lat="49.39025278" lon="10.16664112">
        <ele>335.0769</ele>
        <time>2022-06-01T12:17:19.525Z</time>
      </trkpt>
      <trkpt lat="49.38941167" lon="10.16631056">
        <ele>335.4615</ele>
        <time>2022-06-01T12:17:39.974Z</time>
      </trkpt>
      <trkpt lat="49.38875556" lon="10.16619834">
        <ele>335.8462</ele>
        <time>2022-06-01T12:17:55.522Z</time>
      </trkpt>
      <trkpt lat="49.38794778" lon="10.16608223">
        <ele>336.0769</ele>
        <time>2022-06-01T12:18:14.63Z</time>
      </trkpt>
      <trkpt lat="49.38774473" lon="10.166155">
        <ele>335.6154</ele>
        <time>2022-06-01T12:18:19.541Z</time>
      </trkpt>
      <trkpt lat="49.38762862" lon="10.16637501">
        <ele>335.3077</ele>
        <time>2022-06-01T12:18:23.887Z</time>
      </trkpt>
      <trkpt lat="49.38761139" lon="10.16682945">
        <ele>335.5385</ele>
        <time>2022-06-01T12:18:30.886Z</time>
      </trkpt>
      <trkpt lat="49.38757806" lon="10.16700306">
        <ele>335.2308</ele>
        <time>2022-06-01T12:18:33.665Z</time>
      </trkpt>
      <trkpt lat="49.38743195" lon="10.16707695">
        <ele>335.2308</ele>
        <time>2022-06-01T12:18:37.288Z</time>
      </trkpt>
      <trkpt lat="49.38690778" lon="10.167055">
        <ele>335.3077</ele>
        <time>2022-06-01T12:18:49.638Z</time>
      </trkpt>
      <trkpt lat="49.38665834" lon="10.16711">
        <ele>335.4615</ele>
        <time>2022-06-01T12:18:55.573Z</time>
      </trkpt>
      <trkpt lat="49.386595" lon="10.16735723">
        <ele>335.6923</ele>
        <time>2022-06-01T12:18:59.651Z</time>
      </trkpt>
      <trkpt lat="49.38645639" lon="10.16730556">
        <ele>336.1538</ele>
        <time>2022-06-01T12:19:03.011Z</time>
      </trkpt>
      <trkpt lat="49.38591667" lon="10.16692501">
        <ele>336.6923</ele>
        <time>2022-06-01T12:19:17.001Z</time>
      </trkpt>
      <trkpt lat="49.38538584" lon="10.16682945">
        <ele>337.4615</ele>
        <time>2022-06-01T12:19:29.589Z</time>
      </trkpt>
      <trkpt lat="49.38501084" lon="10.16671389">
        <ele>338.0769</ele>
        <time>2022-06-01T12:19:38.597Z</time>
      </trkpt>
      <trkpt lat="49.38419667" lon="10.16790139">
        <ele>338.3077</ele>
        <time>2022-06-01T12:20:05.075Z</time>
      </trkpt>
      <trkpt lat="49.38356973" lon="10.16899473">
        <ele>338.4615</ele>
        <time>2022-06-01T12:20:27.45Z</time>
      </trkpt>
      <trkpt lat="49.38314639" lon="10.16957167">
        <ele>338.3846</ele>
        <time>2022-06-01T12:20:40.796Z</time>
      </trkpt>
      <trkpt lat="49.38251112" lon="10.17005612">
        <ele>339</ele>
        <time>2022-06-01T12:20:57.51Z</time>
      </trkpt>
      <trkpt lat="49.38192639" lon="10.17015834">
        <ele>340.4615</ele>
        <time>2022-06-01T12:21:11.371Z</time>
      </trkpt>
      <trkpt lat="49.38166973" lon="10.17023167">
        <ele>341.8462</ele>
        <time>2022-06-01T12:21:17.52Z</time>
      </trkpt>
      <trkpt lat="49.38104195" lon="10.170425">
        <ele>342.7692</ele>
        <time>2022-06-01T12:21:32.6Z</time>
      </trkpt>
      <trkpt lat="49.38056973" lon="10.17061528">
        <ele>343.2308</ele>
        <time>2022-06-01T12:21:44.099Z</time>
      </trkpt>
      <trkpt lat="49.38048334" lon="10.17082778">
        <ele>343.6154</ele>
        <time>2022-06-01T12:21:47.944Z</time>
      </trkpt>
      <trkpt lat="49.37984612" lon="10.17185445">
        <ele>343.7692</ele>
        <time>2022-06-01T12:22:09.726Z</time>
      </trkpt>
      <trkpt lat="49.37951778" lon="10.17231139">
        <ele>343.9231</ele>
        <time>2022-06-01T12:22:20.174Z</time>
      </trkpt>
      <trkpt lat="49.37926889" lon="10.17284834">
        <ele>344</ele>
        <time>2022-06-01T12:22:30.3Z</time>
      </trkpt>
      <trkpt lat="49.37894306" lon="10.17329528">
        <ele>344.0769</ele>
        <time>2022-06-01T12:22:40.602Z</time>
      </trkpt>
      <trkpt lat="49.37858556" lon="10.17346334">
        <ele>344.9231</ele>
        <time>2022-06-01T12:22:49.408Z</time>
      </trkpt>
      <trkpt lat="49.37814639" lon="10.17332112">
        <ele>345.6154</ele>
        <time>2022-06-01T12:22:59.979Z</time>
      </trkpt>
      <trkpt lat="49.37787723" lon="10.17300112">
        <ele>346</ele>
        <time>2022-06-01T12:23:08Z</time>
      </trkpt>
      <trkpt lat="49.37761139" lon="10.17243973">
        <ele>345.6923</ele>
        <time>2022-06-01T12:23:18.664Z</time>
      </trkpt>
      <trkpt lat="49.37742056" lon="10.17167278">
        <ele>345.1538</ele>
        <time>2022-06-01T12:23:31.285Z</time>
      </trkpt>
      <trkpt lat="49.37745417" lon="10.17169945">
        <ele>345.2308</ele>
        <time>2022-06-01T12:23:32.176Z</time>
      </trkpt>
      <trkpt lat="49.37731251" lon="10.17070834">
        <ele>345.3846</ele>
        <time>2022-06-01T12:23:47.778Z</time>
      </trkpt>
      <trkpt lat="49.37702917" lon="10.16983195">
        <ele>346.4615</ele>
        <time>2022-06-01T12:24:02.817Z</time>
      </trkpt>
      <trkpt lat="49.37665862" lon="10.16941778">
        <ele>347.1538</ele>
        <time>2022-06-01T12:24:13.621Z</time>
      </trkpt>
      <trkpt lat="49.37659806" lon="10.16925223">
        <ele>347.5385</ele>
        <time>2022-06-01T12:24:16.536Z</time>
      </trkpt>
      <trkpt lat="49.37662889" lon="10.16909139">
        <ele>347.6154</ele>
        <time>2022-06-01T12:24:19.11Z</time>
      </trkpt>
      <trkpt lat="49.37671667" lon="10.16859223">
        <ele>347.6923</ele>
        <time>2022-06-01T12:24:27.06Z</time>
      </trkpt>
      <trkpt lat="49.37665889" lon="10.16837112">
        <ele>347.7692</ele>
        <time>2022-06-01T12:24:30.718Z</time>
      </trkpt>
      <trkpt lat="49.37640723" lon="10.16794612">
        <ele>347.5385</ele>
        <time>2022-06-01T12:24:39.541Z</time>
      </trkpt>
      <trkpt lat="49.37612139" lon="10.16772223">
        <ele>347.3846</ele>
        <time>2022-06-01T12:24:47.1Z</time>
      </trkpt>
      <trkpt lat="49.37580084" lon="10.1677">
        <ele>348</ele>
        <time>2022-06-01T12:24:54.657Z</time>
      </trkpt>
      <trkpt lat="49.37541084" lon="10.16784973">
        <ele>348.6923</ele>
        <time>2022-06-01T12:25:04.126Z</time>
      </trkpt>
      <trkpt lat="49.37498167" lon="10.16796695">
        <ele>349.2308</ele>
        <time>2022-06-01T12:25:14.393Z</time>
      </trkpt>
      <trkpt lat="49.37463028" lon="10.16829167">
        <ele>349.8462</ele>
        <time>2022-06-01T12:25:24.055Z</time>
      </trkpt>
      <trkpt lat="49.3743625" lon="10.16864945">
        <ele>350.7692</ele>
        <time>2022-06-01T12:25:32.419Z</time>
      </trkpt>
      <trkpt lat="49.37420389" lon="10.16896112">
        <ele>350.8462</ele>
        <time>2022-06-01T12:25:38.49Z</time>
      </trkpt>
      <trkpt lat="49.37372167" lon="10.16983167">
        <ele>351.2308</ele>
        <time>2022-06-01T12:25:56.046Z</time>
      </trkpt>
      <trkpt lat="49.37348862" lon="10.17032223">
        <ele>351.9231</ele>
        <time>2022-06-01T12:26:05.376Z</time>
      </trkpt>
      <trkpt lat="49.373385" lon="10.17085334">
        <ele>352.3077</ele>
        <time>2022-06-01T12:26:13.901Z</time>
      </trkpt>
      <trkpt lat="49.37332556" lon="10.17143362">
        <ele>352.3846</ele>
        <time>2022-06-01T12:26:22.934Z</time>
      </trkpt>
      <trkpt lat="49.37330084" lon="10.17204389">
        <ele>353</ele>
        <time>2022-06-01T12:26:32.337Z</time>
      </trkpt>
      <trkpt lat="49.37350278" lon="10.17321528">
        <ele>353.5385</ele>
        <time>2022-06-01T12:26:50.969Z</time>
      </trkpt>
      <trkpt lat="49.37374112" lon="10.17408167">
        <ele>354.3077</ele>
        <time>2022-06-01T12:27:05.427Z</time>
      </trkpt>
      <trkpt lat="49.37380917" lon="10.17471584">
        <ele>355.7692</ele>
        <time>2022-06-01T12:27:15.311Z</time>
      </trkpt>
      <trkpt lat="49.37370334" lon="10.17511834">
        <ele>357.2308</ele>
        <time>2022-06-01T12:27:21.984Z</time>
      </trkpt>
      <trkpt lat="49.37362139" lon="10.17530389">
        <ele>359.0769</ele>
        <time>2022-06-01T12:27:25.426Z</time>
      </trkpt>
      <trkpt lat="49.37336723" lon="10.17559945">
        <ele>360.1538</ele>
        <time>2022-06-01T12:27:32.938Z</time>
      </trkpt>
      <trkpt lat="49.37298612" lon="10.17597556">
        <ele>361.3846</ele>
        <time>2022-06-01T12:27:43.612Z</time>
      </trkpt>
      <trkpt lat="49.37246417" lon="10.17642806">
        <ele>363.0769</ele>
        <time>2022-06-01T12:27:57.738Z</time>
      </trkpt>
      <trkpt lat="49.37216417" lon="10.17674389">
        <ele>365.0769</ele>
        <time>2022-06-01T12:28:06.308Z</time>
      </trkpt>
      <trkpt lat="49.37218834" lon="10.17678973">
        <ele>365.2853</ele>
        <time>2022-06-01T12:28:07.213Z</time>
      </trkpt>
      <trkpt lat="49.37296945" lon="10.17787445">
        <ele>371</ele>
        <time>2022-06-01T12:28:32.047Z</time>
      </trkpt>
      <trkpt lat="49.37350973" lon="10.17829167">
        <ele>374.8462</ele>
        <time>2022-06-01T12:28:46.298Z</time>
      </trkpt>
      <trkpt lat="49.37368806" lon="10.178355">
        <ele>377.5385</ele>
        <time>2022-06-01T12:28:50.609Z</time>
      </trkpt>
      <trkpt lat="49.37404417" lon="10.17855139">
        <ele>380.4615</ele>
        <time>2022-06-01T12:28:59.522Z</time>
      </trkpt>
      <trkpt lat="49.37413889" lon="10.17873556">
        <ele>383.1005</ele>
        <time>2022-06-01T12:29:03.124Z</time>
      </trkpt>
      <trkpt lat="49.37417834" lon="10.17892945">
        <ele>385.3846</ele>
        <time>2022-06-01T12:29:06.243Z</time>
      </trkpt>
      <trkpt lat="49.37401584" lon="10.17916639">
        <ele>387.6154</ele>
        <time>2022-06-01T12:29:11.524Z</time>
      </trkpt>
      <trkpt lat="49.37372889" lon="10.17922389">
        <ele>389.5385</ele>
        <time>2022-06-01T12:29:18.34Z</time>
      </trkpt>
      <trkpt lat="49.37347556" lon="10.17913362">
        <ele>391.7692</ele>
        <time>2022-06-01T12:29:24.465Z</time>
      </trkpt>
      <trkpt lat="49.37316528" lon="10.17892973">
        <ele>394.2308</ele>
        <time>2022-06-01T12:29:32.415Z</time>
      </trkpt>
      <trkpt lat="49.37291695" lon="10.17863695">
        <ele>396.3846</ele>
        <time>2022-06-01T12:29:39.792Z</time>
      </trkpt>
      <trkpt lat="49.37244167" lon="10.17811889">
        <ele>398.6154</ele>
        <time>2022-06-01T12:29:53.532Z</time>
      </trkpt>
      <trkpt lat="49.37218306" lon="10.17786584">
        <ele>399.9231</ele>
        <time>2022-06-01T12:30:00.757Z</time>
      </trkpt>
      <trkpt lat="49.37203167" lon="10.17782612">
        <ele>401.3077</ele>
        <time>2022-06-01T12:30:04.374Z</time>
      </trkpt>
      <trkpt lat="49.37189917" lon="10.17790501">
        <ele>402</ele>
        <time>2022-06-01T12:30:07.722Z</time>
      </trkpt>
      <trkpt lat="49.37165473" lon="10.17827639">
        <ele>403.4615</ele>
        <time>2022-06-01T12:30:15.826Z</time>
      </trkpt>
      <trkpt lat="49.37138945" lon="10.17851556">
        <ele>405</ele>
        <time>2022-06-01T12:30:23.074Z</time>
      </trkpt>
      <trkpt lat="49.37097056" lon="10.17874612">
        <ele>406.5385</ele>
        <time>2022-06-01T12:30:33.556Z</time>
      </trkpt>
      <trkpt lat="49.37069667" lon="10.17881306">
        <ele>407.6923</ele>
        <time>2022-06-01T12:30:40.088Z</time>
      </trkpt>
      <trkpt lat="49.37056667" lon="10.17893667">
        <ele>408.6923</ele>
        <time>2022-06-01T12:30:43.691Z</time>
      </trkpt>
      <trkpt lat="49.37046778" lon="10.17901723">
        <ele>409.6154</ele>
        <time>2022-06-01T12:30:46.328Z</time>
      </trkpt>
      <trkpt lat="49.37045639" lon="10.17929862">
        <ele>410.3077</ele>
        <time>2022-06-01T12:30:50.658Z</time>
      </trkpt>
      <trkpt lat="49.37047056" lon="10.17970501">
        <ele>410.9091</ele>
        <time>2022-06-01T12:30:56.917Z</time>
      </trkpt>
      <trkpt lat="49.37060917" lon="10.18030528">
        <ele>411.3333</ele>
        <time>2022-06-01T12:31:06.709Z</time>
      </trkpt>
      <trkpt lat="49.37049612" lon="10.18065889">
        <ele>412.2857</ele>
        <time>2022-06-01T12:31:12.757Z</time>
      </trkpt>
      <trkpt lat="49.37043889" lon="10.18111584">
        <ele>413</ele>
        <time>2022-06-01T12:31:19.913Z</time>
      </trkpt>
      <trkpt lat="49.37042723" lon="10.18167139">
        <ele>413</ele>
        <time>2022-06-01T12:31:28.462Z</time>
      </trkpt>
      <trkpt lat="49.37043528" lon="10.18198362">
        <ele>412</ele>
        <time>2022-06-01T12:31:33.261Z</time>
      </trkpt>
    </trkseg>
  </trk>
</gpx>
